Time,TemperatureF,DewpointF,PressureIn,WindDirection,WindDirectionDegrees,WindSpeedMPH,WindSpeedGustMPH,Humidity,HourlyPrecipIn,Conditions,Clouds,dailyrainin,SoftwareType,DateUTC
2013-08-25 00:00:00,57.7,56.3,30.16,North,355,0.0,11.0,95,0.00,,,0.00,VWS V14.01,2013-08-25 04:00:00,
2013-08-25 00:01:00,57.7,56.3,30.16,North,355,0.0,11.0,95,0.00,,,0.00,VWS V14.01,2013-08-25 04:01:00,
2013-08-25 00:02:00,57.6,56.2,30.16,North,355,0.0,11.0,95,0.00,,,0.00,VWS V14.01,2013-08-25 04:02:00,
2013-08-25 00:03:00,57.6,56.2,30.16,North,355,0.0,11.0,95,0.00,,,0.00,VWS V14.01,2013-08-25 04:03:00,
2013-08-25 00:04:00,57.6,56.2,30.16,North,355,0.0,11.0,95,0.00,,,0.00,VWS V14.01,2013-08-25 04:04:00,
2013-08-25 00:05:00,57.6,56.2,30.16,North,355,0.0,11.0,95,0.00,,,0.00,VWS V14.01,2013-08-25 04:05:00,
2013-08-25 00:06:00,57.6,56.2,30.16,North,355,0.0,11.0,95,0.00,,,0.00,VWS V14.01,2013-08-25 04:06:00,
2013-08-25 00:07:00,57.6,56.2,30.16,North,355,0.0,11.0,95,0.00,,,0.00,VWS V14.01,2013-08-25 04:07:00,
2013-08-25 00:08:00,57.6,56.2,30.16,North,355,0.0,11.0,95,0.00,,,0.00,VWS V14.01,2013-08-25 04:08:00,
2013-08-25 00:09:00,57.6,56.2,30.16,North,355,0.0,11.0,95,0.00,,,0.00,VWS V14.01,2013-08-25 04:09:00,
2013-08-25 00:10:00,57.5,56.1,30.16,North,355,0.0,11.0,95,0.00,,,0.00,VWS V14.01,2013-08-25 04:10:00,
2013-08-25 00:11:00,57.5,56.1,30.16,North,355,0.0,11.0,95,0.00,,,0.00,VWS V14.01,2013-08-25 04:11:00,
2013-08-25 00:12:00,57.5,56.1,30.16,North,355,0.0,11.0,95,0.00,,,0.00,VWS V14.01,2013-08-25 04:12:00,
2013-08-25 00:13:00,57.5,56.1,30.16,North,355,0.0,11.0,95,0.00,,,0.00,VWS V14.01,2013-08-25 04:13:00,
2013-08-25 00:15:00,57.5,56.1,30.16,North,355,0.0,11.0,95,0.00,,,0.00,VWS V14.01,2013-08-25 04:15:00,
2013-08-25 00:16:00,57.5,56.1,30.16,North,355,0.0,11.0,95,0.00,,,0.00,VWS V14.01,2013-08-25 04:16:00,
2013-08-25 00:17:00,57.5,56.1,30.16,North,355,0.0,11.0,95,0.00,,,0.00,VWS V14.01,2013-08-25 04:17:00,
2013-08-25 00:18:00,57.4,56.0,30.16,North,355,0.0,11.0,95,0.00,,,0.00,VWS V14.01,2013-08-25 04:18:00,
2013-08-25 00:19:00,57.4,56.0,30.16,North,355,0.0,11.0,95,0.00,,,0.00,VWS V14.01,2013-08-25 04:19:00,
2013-08-25 00:20:00,57.4,56.0,30.16,North,355,0.0,11.0,95,0.00,,,0.00,VWS V14.01,2013-08-25 04:20:00,
2013-08-25 00:21:00,57.4,56.0,30.16,North,355,0.0,11.0,95,0.00,,,0.00,VWS V14.01,2013-08-25 04:21:00,
2013-08-25 00:22:00,57.4,56.0,30.16,North,355,0.0,11.0,95,0.00,,,0.00,VWS V14.01,2013-08-25 04:22:00,
2013-08-25 00:23:00,57.4,56.0,30.16,North,355,0.0,11.0,95,0.00,,,0.00,VWS V14.01,2013-08-25 04:23:00,
2013-08-25 00:24:00,57.4,56.0,30.16,North,355,0.0,11.0,95,0.00,,,0.00,VWS V14.01,2013-08-25 04:24:00,
2013-08-25 00:25:00,57.3,55.9,30.16,North,355,0.0,11.0,95,0.00,,,0.00,VWS V14.01,2013-08-25 04:25:00,
2013-08-25 00:26:00,57.3,55.9,30.16,North,355,0.0,11.0,95,0.00,,,0.00,VWS V14.01,2013-08-25 04:26:00,
2013-08-25 00:27:00,57.3,55.9,30.16,North,355,0.0,11.0,95,0.00,,,0.00,VWS V14.01,2013-08-25 04:27:00,
2013-08-25 00:28:00,57.3,55.9,30.16,North,355,0.0,11.0,95,0.00,,,0.00,VWS V14.01,2013-08-25 04:28:00,
2013-08-25 00:29:00,57.3,55.9,30.16,North,355,0.0,11.0,95,0.00,,,0.00,VWS V14.01,2013-08-25 04:29:00,
2013-08-25 00:30:00,57.3,55.9,30.16,North,355,0.0,11.0,95,0.00,,,0.00,VWS V14.01,2013-08-25 04:30:00,
2013-08-25 00:31:00,57.3,55.9,30.16,NNW,341,0.0,11.0,95,0.00,,,0.00,VWS V14.01,2013-08-25 04:31:00,
2013-08-25 00:32:00,57.3,56.2,30.16,NNW,341,0.0,11.0,96,0.00,,,0.00,VWS V14.01,2013-08-25 04:32:00,
2013-08-25 00:33:00,57.3,56.2,30.16,NE,37,0.0,11.0,96,0.00,,,0.00,VWS V14.01,2013-08-25 04:33:00,
2013-08-25 00:34:00,57.3,56.2,30.16,NE,37,0.0,11.0,96,0.00,,,0.00,VWS V14.01,2013-08-25 04:34:00,
2013-08-25 00:35:00,57.3,56.2,30.16,NE,37,0.0,11.0,96,0.00,,,0.00,VWS V14.01,2013-08-25 04:35:00,
2013-08-25 00:37:00,57.4,56.3,30.15,NE,37,0.0,11.0,96,0.00,,,0.00,VWS V14.01,2013-08-25 04:37:00,
2013-08-25 00:38:00,57.5,56.7,30.15,SE,126,0.0,11.0,97,0.00,,,0.00,VWS V14.01,2013-08-25 04:38:00,
2013-08-25 00:40:00,57.6,56.8,30.15,SE,128,0.0,11.0,97,0.00,,,0.00,VWS V14.01,2013-08-25 04:40:00,
2013-08-25 00:42:00,57.7,56.9,30.16,SE,128,0.0,11.0,97,0.00,,,0.00,VWS V14.01,2013-08-25 04:42:00,
2013-08-25 00:43:00,57.6,56.5,30.16,SE,128,0.0,11.0,96,0.00,,,0.00,VWS V14.01,2013-08-25 04:43:00,
2013-08-25 00:47:00,57.6,56.2,30.15,SE,128,0.0,11.0,95,0.00,,,0.00,VWS V14.01,2013-08-25 04:47:00,
2013-08-25 00:48:00,57.5,56.1,30.15,SE,128,0.0,11.0,95,0.00,,,0.00,VWS V14.01,2013-08-25 04:48:00,
2013-08-25 00:49:00,57.5,56.1,30.15,SE,128,0.0,11.0,95,0.00,,,0.00,VWS V14.01,2013-08-25 04:49:00,
2013-08-25 00:50:00,57.4,56.0,30.15,SE,128,0.0,11.0,95,0.00,,,0.00,VWS V14.01,2013-08-25 04:50:00,
2013-08-25 00:51:00,57.4,56.0,30.15,SE,128,0.0,11.0,95,0.00,,,0.00,VWS V14.01,2013-08-25 04:51:00,
2013-08-25 00:53:00,57.3,55.6,30.15,SE,128,0.0,11.0,94,0.00,,,0.00,VWS V14.01,2013-08-25 04:53:00,
2013-08-25 00:55:00,57.3,55.6,30.15,SE,128,0.0,11.0,94,0.00,,,0.00,VWS V14.01,2013-08-25 04:55:00,
2013-08-25 00:56:00,57.2,55.5,30.16,SE,128,0.0,11.0,94,0.00,,,0.00,VWS V14.01,2013-08-25 04:56:00,
2013-08-25 00:57:00,57.2,55.5,30.16,SE,128,0.0,11.0,94,0.00,,,0.00,VWS V14.01,2013-08-25 04:57:00,
2013-08-25 00:58:00,57.1,55.4,30.16,SE,128,0.0,11.0,94,0.00,,,0.00,VWS V14.01,2013-08-25 04:58:00,
2013-08-25 00:59:00,57.2,55.5,30.16,SE,128,0.0,11.0,94,0.00,,,0.00,VWS V14.01,2013-08-25 04:59:00,
2013-08-25 01:00:00,57.1,55.4,30.16,SE,128,0.0,11.0,94,0.00,,,0.00,VWS V14.01,2013-08-25 05:00:00,
2013-08-25 01:01:00,57.1,55.4,30.16,SE,128,0.0,11.0,94,0.00,,,0.00,VWS V14.01,2013-08-25 05:01:00,
2013-08-25 01:02:00,57.0,55.3,30.16,SE,128,0.0,11.0,94,0.00,,,0.00,VWS V14.01,2013-08-25 05:02:00,
2013-08-25 01:03:00,57.0,55.3,30.16,SE,127,0.0,11.0,94,0.00,,,0.00,VWS V14.01,2013-08-25 05:03:00,
2013-08-25 01:04:00,57.0,55.3,30.16,SE,128,0.0,11.0,94,0.00,,,0.00,VWS V14.01,2013-08-25 05:04:00,
2013-08-25 01:05:00,56.9,55.2,30.16,SE,128,0.0,11.0,94,0.00,,,0.00,VWS V14.01,2013-08-25 05:05:00,
2013-08-25 01:06:00,56.9,55.2,30.16,SE,128,0.0,11.0,94,0.00,,,0.00,VWS V14.01,2013-08-25 05:06:00,
2013-08-25 01:07:00,56.9,55.2,30.16,SE,128,0.0,11.0,94,0.00,,,0.00,VWS V14.01,2013-08-25 05:07:00,
2013-08-25 01:08:00,56.8,55.1,30.16,SE,128,0.0,11.0,94,0.00,,,0.00,VWS V14.01,2013-08-25 05:08:00,
2013-08-25 01:09:00,56.8,55.1,30.16,SE,128,0.0,11.0,94,0.00,,,0.00,VWS V14.01,2013-08-25 05:09:00,
2013-08-25 01:10:00,56.8,55.1,30.16,SE,128,0.0,11.0,94,0.00,,,0.00,VWS V14.01,2013-08-25 05:10:00,
2013-08-25 01:11:00,56.7,55.0,30.16,SE,128,0.0,11.0,94,0.00,,,0.00,VWS V14.01,2013-08-25 05:11:00,
2013-08-25 01:12:00,56.7,55.0,30.16,SE,128,0.0,11.0,94,0.00,,,0.00,VWS V14.01,2013-08-25 05:12:00,
2013-08-25 01:13:00,56.7,55.0,30.15,SE,128,0.0,11.0,94,0.00,,,0.00,VWS V14.01,2013-08-25 05:13:00,
2013-08-25 01:15:00,56.6,54.9,30.15,SE,128,0.0,11.0,94,0.00,,,0.00,VWS V14.01,2013-08-25 05:15:00,
2013-08-25 01:16:00,56.6,55.2,30.16,SE,128,0.0,11.0,95,0.00,,,0.00,VWS V14.01,2013-08-25 05:16:00,
2013-08-25 01:18:00,56.5,55.1,30.15,SE,128,0.0,11.0,95,0.00,,,0.00,VWS V14.01,2013-08-25 05:18:00,
2013-08-25 01:19:00,56.6,55.2,30.15,SE,128,0.0,11.0,95,0.00,,,0.00,VWS V14.01,2013-08-25 05:19:00,
2013-08-25 01:20:00,56.5,55.1,30.15,SE,128,0.0,11.0,95,0.00,,,0.00,VWS V14.01,2013-08-25 05:20:00,
2013-08-25 01:21:00,56.5,55.1,30.15,SE,128,0.0,11.0,95,0.00,,,0.00,VWS V14.01,2013-08-25 05:21:00,
2013-08-25 01:22:00,56.4,55.0,30.15,SE,128,0.0,11.0,95,0.00,,,0.00,VWS V14.01,2013-08-25 05:22:00,
2013-08-25 01:23:00,56.3,54.9,30.16,SE,128,0.0,11.0,95,0.00,,,0.00,VWS V14.01,2013-08-25 05:23:00,
2013-08-25 01:24:00,56.4,55.0,30.15,SE,128,0.0,11.0,95,0.00,,,0.00,VWS V14.01,2013-08-25 05:24:00,
2013-08-25 01:25:00,56.4,54.7,30.16,SE,128,0.0,11.0,94,0.00,,,0.00,VWS V14.01,2013-08-25 05:25:00,
2013-08-25 01:26:00,56.3,54.6,30.16,SE,128,0.0,11.0,94,0.00,,,0.00,VWS V14.01,2013-08-25 05:26:00,
2013-08-25 01:27:00,56.3,54.6,30.15,SE,128,0.0,11.0,94,0.00,,,0.00,VWS V14.01,2013-08-25 05:27:00,
2013-08-25 01:28:00,56.2,54.8,30.15,SE,128,0.0,11.0,95,0.00,,,0.00,VWS V14.01,2013-08-25 05:28:00,
2013-08-25 01:29:00,56.2,54.8,30.15,SE,128,0.0,11.0,95,0.00,,,0.00,VWS V14.01,2013-08-25 05:29:00,
2013-08-25 01:30:00,56.2,54.5,30.15,SE,128,0.0,11.0,94,0.00,,,0.00,VWS V14.01,2013-08-25 05:30:00,
2013-08-25 01:31:00,56.2,54.5,30.15,SE,128,0.0,11.0,94,0.00,,,0.00,VWS V14.01,2013-08-25 05:31:00,
2013-08-25 01:32:00,56.2,54.5,30.15,SE,128,0.0,11.0,94,0.00,,,0.00,VWS V14.01,2013-08-25 05:32:00,
2013-08-25 01:33:00,56.1,54.4,30.15,SE,128,0.0,11.0,94,0.00,,,0.00,VWS V14.01,2013-08-25 05:33:00,
2013-08-25 01:34:00,56.1,54.4,30.15,SE,128,0.0,11.0,94,0.00,,,0.00,VWS V14.01,2013-08-25 05:34:00,
2013-08-25 01:35:00,56.1,54.4,30.15,SE,128,0.0,11.0,94,0.00,,,0.00,VWS V14.01,2013-08-25 05:35:00,
2013-08-25 01:36:00,56.0,54.3,30.15,SE,128,0.0,11.0,94,0.00,,,0.00,VWS V14.01,2013-08-25 05:36:00,
2013-08-25 01:37:00,56.0,54.3,30.15,SE,128,0.0,11.0,94,0.00,,,0.00,VWS V14.01,2013-08-25 05:37:00,
2013-08-25 01:38:00,56.0,54.3,30.15,SE,128,0.0,11.0,94,0.00,,,0.00,VWS V14.01,2013-08-25 05:38:00,
2013-08-25 01:39:00,55.9,54.5,30.15,SE,128,0.0,11.0,95,0.00,,,0.00,VWS V14.01,2013-08-25 05:39:00,
2013-08-25 01:40:00,55.9,54.5,30.15,SE,128,0.0,11.0,95,0.00,,,0.00,VWS V14.01,2013-08-25 05:40:00,
2013-08-25 01:41:00,55.9,54.5,30.15,SE,146,0.0,11.0,95,0.00,,,0.00,VWS V14.01,2013-08-25 05:41:00,
2013-08-25 01:42:00,55.9,54.5,30.15,SE,146,0.0,11.0,95,0.00,,,0.00,VWS V14.01,2013-08-25 05:42:00,
2013-08-25 01:43:00,55.9,54.5,30.15,SSE,159,0.0,11.0,95,0.00,,,0.00,VWS V14.01,2013-08-25 05:43:00,
2013-08-25 01:44:00,55.8,54.4,30.15,SSE,159,0.0,11.0,95,0.00,,,0.00,VWS V14.01,2013-08-25 05:44:00,
2013-08-25 01:45:00,55.8,54.4,30.15,SSE,159,0.0,11.0,95,0.00,,,0.00,VWS V14.01,2013-08-25 05:45:00,
2013-08-25 01:47:00,55.8,54.4,30.15,SSE,161,0.0,11.0,95,0.00,,,0.00,VWS V14.01,2013-08-25 05:47:00,
2013-08-25 01:48:00,55.8,54.4,30.15,SSE,161,0.0,11.0,95,0.00,,,0.00,VWS V14.01,2013-08-25 05:48:00,
2013-08-25 01:49:00,55.7,54.3,30.15,SSW,213,0.0,11.0,95,0.00,,,0.00,VWS V14.01,2013-08-25 05:49:00,
2013-08-25 01:52:00,55.7,54.3,30.15,SSW,213,0.0,11.0,95,0.00,,,0.00,VWS V14.01,2013-08-25 05:52:00,
2013-08-25 01:53:00,55.7,54.3,30.15,SSW,213,0.0,11.0,95,0.00,,,0.00,VWS V14.01,2013-08-25 05:53:00,
2013-08-25 01:54:00,55.7,54.3,30.15,SSW,212,0.0,11.0,95,0.00,,,0.00,VWS V14.01,2013-08-25 05:54:00,
2013-08-25 01:55:00,55.7,54.3,30.15,SSW,212,0.0,11.0,95,0.00,,,0.00,VWS V14.01,2013-08-25 05:55:00,
2013-08-25 01:56:00,55.7,54.3,30.15,SSW,211,0.0,11.0,95,0.00,,,0.00,VWS V14.01,2013-08-25 05:56:00,
2013-08-25 01:57:00,55.8,54.4,30.14,SSW,213,0.0,11.0,95,0.00,,,0.00,VWS V14.01,2013-08-25 05:57:00,
2013-08-25 01:58:00,55.7,54.3,30.14,SSW,213,0.0,11.0,95,0.00,,,0.00,VWS V14.01,2013-08-25 05:58:00,
2013-08-25 01:59:00,55.7,54.3,30.14,SSE,157,0.0,11.0,95,0.00,,,0.00,VWS V14.01,2013-08-25 05:59:00,
2013-08-25 02:00:00,55.7,54.3,30.14,SSE,157,0.0,11.0,95,0.00,,,0.00,VWS V14.01,2013-08-25 06:00:00,
2013-08-25 02:01:00,55.7,54.3,30.14,SSE,158,0.0,11.0,95,0.00,,,0.00,VWS V14.01,2013-08-25 06:01:00,
2013-08-25 02:02:00,55.7,54.3,30.14,SSE,161,0.0,11.0,95,0.00,,,0.00,VWS V14.01,2013-08-25 06:02:00,
2013-08-25 02:04:00,55.7,54.6,30.14,South,179,0.0,11.0,96,0.00,,,0.00,VWS V14.01,2013-08-25 06:04:00,
2013-08-25 02:05:00,55.7,54.6,30.14,South,179,0.0,11.0,96,0.00,,,0.00,VWS V14.01,2013-08-25 06:05:00,
2013-08-25 02:06:00,55.7,54.6,30.14,SSW,192,0.0,11.0,96,0.00,,,0.00,VWS V14.01,2013-08-25 06:06:00,
2013-08-25 02:09:00,55.9,54.8,30.14,South,190,0.0,11.0,96,0.00,,,0.00,VWS V14.01,2013-08-25 06:09:00,
2013-08-25 02:11:00,55.9,54.8,30.14,South,190,0.0,11.0,96,0.00,,,0.00,VWS V14.01,2013-08-25 06:11:00,
2013-08-25 02:12:00,55.9,54.8,30.14,South,190,0.0,11.0,96,0.00,,,0.00,VWS V14.01,2013-08-25 06:12:00,
2013-08-25 02:13:00,56.0,54.9,30.14,SW,227,0.0,11.0,96,0.00,,,0.00,VWS V14.01,2013-08-25 06:13:00,
2013-08-25 02:14:00,56.0,54.9,30.14,SW,216,0.0,11.0,96,0.00,,,0.00,VWS V14.01,2013-08-25 06:14:00,
2013-08-25 02:16:00,56.0,54.9,30.14,SW,217,0.0,11.0,96,0.00,,,0.00,VWS V14.01,2013-08-25 06:16:00,
2013-08-25 02:18:00,56.0,54.6,30.14,SW,216,0.0,11.0,95,0.00,,,0.00,VWS V14.01,2013-08-25 06:18:00,
2013-08-25 02:19:00,56.0,54.6,30.14,SW,216,0.0,11.0,95,0.00,,,0.00,VWS V14.01,2013-08-25 06:19:00,
2013-08-25 02:20:00,56.0,54.6,30.14,SW,216,0.0,11.0,95,0.00,,,0.00,VWS V14.01,2013-08-25 06:20:00,
2013-08-25 02:22:00,56.0,54.6,30.14,SW,217,0.0,11.0,95,0.00,,,0.00,VWS V14.01,2013-08-25 06:22:00,
2013-08-25 02:23:00,56.0,54.9,30.14,SW,216,0.0,11.0,96,0.00,,,0.00,VWS V14.01,2013-08-25 06:23:00,
2013-08-25 02:24:00,56.1,55.0,30.14,South,177,0.0,11.0,96,0.00,,,0.00,VWS V14.01,2013-08-25 06:24:00,
2013-08-25 02:25:00,56.1,55.0,30.14,South,177,0.0,11.0,96,0.00,,,0.00,VWS V14.01,2013-08-25 06:25:00,
2013-08-25 02:27:00,56.1,55.0,30.14,South,183,0.0,11.0,96,0.00,,,0.00,VWS V14.01,2013-08-25 06:27:00,
2013-08-25 02:29:00,56.2,54.8,30.14,South,180,0.0,11.0,95,0.00,,,0.00,VWS V14.01,2013-08-25 06:29:00,
2013-08-25 02:30:00,56.2,54.8,30.14,South,181,0.0,11.0,95,0.00,,,0.00,VWS V14.01,2013-08-25 06:30:00,
2013-08-25 02:33:00,56.2,55.1,30.14,South,172,0.0,11.0,96,0.00,,,0.00,VWS V14.01,2013-08-25 06:33:00,
2013-08-25 02:34:00,56.4,55.3,30.14,South,179,0.0,11.0,96,0.00,,,0.00,VWS V14.01,2013-08-25 06:34:00,
2013-08-25 02:35:00,56.4,55.3,30.14,South,179,0.0,11.0,96,0.00,,,0.00,VWS V14.01,2013-08-25 06:35:00,
2013-08-25 02:36:00,56.4,55.0,30.14,SSE,165,0.0,11.0,95,0.00,,,0.00,VWS V14.01,2013-08-25 06:36:00,
2013-08-25 02:38:00,56.5,55.1,30.13,SSW,196,0.0,11.0,95,0.00,,,0.00,VWS V14.01,2013-08-25 06:38:00,
2013-08-25 02:40:00,56.6,55.5,30.13,South,186,0.0,11.0,96,0.00,,,0.00,VWS V14.01,2013-08-25 06:40:00,
2013-08-25 02:41:00,56.6,55.2,30.13,South,186,0.0,11.0,95,0.00,,,0.00,VWS V14.01,2013-08-25 06:41:00,
2013-08-25 02:43:00,56.7,55.3,30.13,South,187,0.0,11.0,95,0.00,,,0.00,VWS V14.01,2013-08-25 06:43:00,
2013-08-25 02:45:00,56.9,55.5,30.13,SSW,204,0.0,11.0,95,0.00,,,0.00,VWS V14.01,2013-08-25 06:45:00,
2013-08-25 02:47:00,57.0,55.6,30.13,SSW,204,0.0,11.0,95,0.00,,,0.00,VWS V14.01,2013-08-25 06:47:00,
2013-08-25 02:50:00,57.4,56.0,30.13,SSW,195,0.0,11.0,95,0.00,,,0.00,VWS V14.01,2013-08-25 06:50:00,
2013-08-25 02:51:00,57.4,56.0,30.13,SSW,195,0.0,11.0,95,0.00,,,0.00,VWS V14.01,2013-08-25 06:51:00,
2013-08-25 02:54:00,57.7,56.0,30.13,SSW,211,0.0,11.0,94,0.00,,,0.00,VWS V14.01,2013-08-25 06:54:00,
2013-08-25 02:55:00,58.0,56.3,30.13,SSW,192,0.0,11.0,94,0.00,,,0.00,VWS V14.01,2013-08-25 06:55:00,
2013-08-25 02:56:00,58.0,56.3,30.13,SSW,192,0.0,11.0,94,0.00,,,0.00,VWS V14.01,2013-08-25 06:56:00,
2013-08-25 02:59:00,58.2,56.2,30.13,South,188,0.0,11.0,93,0.00,,,0.00,VWS V14.01,2013-08-25 06:59:00,
2013-08-25 03:00:00,58.5,56.5,30.13,South,180,0.0,11.0,93,0.00,,,0.00,VWS V14.01,2013-08-25 07:00:00,
2013-08-25 03:01:00,58.5,56.5,30.13,South,180,0.0,11.0,93,0.00,,,0.00,VWS V14.01,2013-08-25 07:01:00,
2013-08-25 03:02:00,58.6,56.6,30.13,South,181,0.0,11.0,93,0.00,,,0.00,VWS V14.01,2013-08-25 07:02:00,
2013-08-25 03:03:00,58.8,56.5,30.12,SSW,192,0.0,11.0,92,0.00,,,0.00,VWS V14.01,2013-08-25 07:03:00,
2013-08-25 03:04:00,58.8,56.5,30.12,SSW,192,0.0,11.0,92,0.00,,,0.00,VWS V14.01,2013-08-25 07:04:00,
2013-08-25 03:05:00,59.0,56.7,30.12,SSE,160,0.0,11.0,92,0.00,,,0.00,VWS V14.01,2013-08-25 07:05:00,
2013-08-25 03:06:00,59.0,56.7,30.12,SSE,160,0.0,11.0,92,0.00,,,0.00,VWS V14.01,2013-08-25 07:06:00,
2013-08-25 03:07:00,59.1,56.8,30.12,SSE,159,0.0,11.0,92,0.00,,,0.00,VWS V14.01,2013-08-25 07:07:00,
2013-08-25 03:08:00,59.1,56.8,30.12,SSE,160,0.0,11.0,92,0.00,,,0.00,VWS V14.01,2013-08-25 07:08:00,
2013-08-25 03:09:00,59.2,56.6,30.12,SSE,160,0.0,11.0,91,0.00,,,0.00,VWS V14.01,2013-08-25 07:09:00,
2013-08-25 03:10:00,59.3,56.7,30.12,South,182,0.0,11.0,91,0.00,,,0.00,VWS V14.01,2013-08-25 07:10:00,
2013-08-25 03:12:00,59.3,56.7,30.12,South,190,0.0,11.0,91,0.00,,,0.00,VWS V14.01,2013-08-25 07:12:00,
2013-08-25 03:13:00,59.4,56.8,30.12,SSW,205,0.0,11.0,91,0.00,,,0.00,VWS V14.01,2013-08-25 07:13:00,
2013-08-25 03:14:00,59.5,56.9,30.12,SW,221,0.0,11.0,91,0.00,,,0.00,VWS V14.01,2013-08-25 07:14:00,
2013-08-25 03:15:00,59.6,57.0,30.12,South,171,0.0,11.0,91,0.00,,,0.00,VWS V14.01,2013-08-25 07:15:00,
2013-08-25 03:16:00,59.6,57.0,30.12,South,171,0.0,11.0,91,0.00,,,0.00,VWS V14.01,2013-08-25 07:16:00,
2013-08-25 03:18:00,59.8,57.2,30.12,South,169,0.0,11.0,91,0.00,,,0.00,VWS V14.01,2013-08-25 07:18:00,
2013-08-25 03:19:00,59.8,57.2,30.12,SSE,162,0.0,11.0,91,0.00,,,0.00,VWS V14.01,2013-08-25 07:19:00,
2013-08-25 03:20:00,59.9,57.0,30.12,South,186,0.0,11.0,90,0.00,,,0.00,VWS V14.01,2013-08-25 07:20:00,
2013-08-25 03:21:00,59.9,57.0,30.12,South,186,0.0,11.0,90,0.00,,,0.00,VWS V14.01,2013-08-25 07:21:00,
2013-08-25 03:22:00,60.0,57.1,30.12,SSW,209,0.0,11.0,90,0.00,,,0.00,VWS V14.01,2013-08-25 07:22:00,
2013-08-25 03:24:00,60.2,57.3,30.12,SW,215,0.0,11.0,90,0.00,,,0.00,VWS V14.01,2013-08-25 07:24:00,
2013-08-25 03:25:00,60.2,57.3,30.13,SSW,199,0.0,11.0,90,0.00,,,0.00,VWS V14.01,2013-08-25 07:25:00,
2013-08-25 03:26:00,60.2,57.3,30.13,SSW,199,0.0,11.0,90,0.00,,,0.00,VWS V14.01,2013-08-25 07:26:00,
2013-08-25 03:27:00,60.3,57.4,30.13,SSW,197,0.0,11.0,90,0.00,,,0.00,VWS V14.01,2013-08-25 07:27:00,
2013-08-25 03:29:00,60.4,57.2,30.13,SSW,196,0.0,11.0,89,0.00,,,0.00,VWS V14.01,2013-08-25 07:29:00,
2013-08-25 03:30:00,60.5,57.6,30.13,SSE,163,0.0,11.0,90,0.00,,,0.00,VWS V14.01,2013-08-25 07:30:00,
2013-08-25 03:31:00,60.5,57.6,30.13,SSE,163,0.0,11.0,90,0.00,,,0.00,VWS V14.01,2013-08-25 07:31:00,
2013-08-25 03:32:00,60.5,57.6,30.13,SSE,163,0.0,11.0,90,0.00,,,0.00,VWS V14.01,2013-08-25 07:32:00,
2013-08-25 03:33:00,60.5,57.2,30.13,SSE,165,0.0,11.0,89,0.00,,,0.00,VWS V14.01,2013-08-25 07:33:00,
2013-08-25 03:34:00,60.6,57.3,30.12,SSW,210,0.0,11.0,89,0.00,,,0.00,VWS V14.01,2013-08-25 07:34:00,
2013-08-25 03:35:00,60.7,57.4,30.12,SSW,194,0.0,11.0,89,0.00,,,0.00,VWS V14.01,2013-08-25 07:35:00,
2013-08-25 03:36:00,60.7,57.4,30.12,SSW,194,0.0,11.0,89,0.00,,,0.00,VWS V14.01,2013-08-25 07:36:00,
2013-08-25 03:37:00,60.9,57.6,30.12,South,171,0.0,11.0,89,0.00,,,0.00,VWS V14.01,2013-08-25 07:37:00,
2013-08-25 03:38:00,60.9,57.6,30.12,SW,218,0.0,11.0,89,0.00,,,0.00,VWS V14.01,2013-08-25 07:38:00,
2013-08-25 03:39:00,61.1,57.5,30.12,SSE,163,0.0,11.0,88,0.00,,,0.00,VWS V14.01,2013-08-25 07:39:00,
2013-08-25 03:40:00,61.2,57.6,30.12,SW,223,0.0,11.0,88,0.00,,,0.00,VWS V14.01,2013-08-25 07:40:00,
2013-08-25 03:41:00,61.2,57.6,30.12,SW,223,0.0,11.0,88,0.00,,,0.00,VWS V14.01,2013-08-25 07:41:00,
2013-08-25 03:42:00,61.3,57.7,30.12,SW,222,0.0,11.0,88,0.00,,,0.00,VWS V14.01,2013-08-25 07:42:00,
2013-08-25 03:43:00,61.3,57.7,30.12,SW,214,0.0,11.0,88,0.00,,,0.00,VWS V14.01,2013-08-25 07:43:00,
2013-08-25 03:44:00,61.4,57.8,30.12,SSW,212,0.0,11.0,88,0.00,,,0.00,VWS V14.01,2013-08-25 07:44:00,
2013-08-25 03:45:00,61.5,57.9,30.12,SSW,211,0.0,11.0,88,0.00,,,0.00,VWS V14.01,2013-08-25 07:45:00,
2013-08-25 03:46:00,61.5,57.9,30.12,SSW,211,0.0,11.0,88,0.00,,,0.00,VWS V14.01,2013-08-25 07:46:00,
2013-08-25 03:47:00,61.6,58.0,30.12,SSW,202,0.0,11.0,88,0.00,,,0.00,VWS V14.01,2013-08-25 07:47:00,
2013-08-25 03:49:00,61.7,57.8,30.12,SSW,209,0.0,11.0,87,0.00,,,0.00,VWS V14.01,2013-08-25 07:49:00,
2013-08-25 03:50:00,61.8,57.9,30.12,SW,229,0.0,11.0,87,0.00,,,0.00,VWS V14.01,2013-08-25 07:50:00,
2013-08-25 03:51:00,61.8,57.9,30.12,SW,229,0.0,11.0,87,0.00,,,0.00,VWS V14.01,2013-08-25 07:51:00,
2013-08-25 03:52:00,61.8,57.9,30.12,SSW,196,0.0,11.0,87,0.00,,,0.00,VWS V14.01,2013-08-25 07:52:00,
2013-08-25 03:53:00,61.9,58.0,30.12,SSW,204,0.0,11.0,87,0.00,,,0.00,VWS V14.01,2013-08-25 07:53:00,
2013-08-25 03:54:00,61.9,58.0,30.12,SSW,204,0.0,11.0,87,0.00,,,0.00,VWS V14.01,2013-08-25 07:54:00,
2013-08-25 03:55:00,62.0,58.1,30.12,SSW,206,0.0,11.0,87,0.00,,,0.00,VWS V14.01,2013-08-25 07:55:00,
2013-08-25 03:56:00,62.0,58.1,30.12,SSW,205,0.0,11.0,87,0.00,,,0.00,VWS V14.01,2013-08-25 07:56:00,
2013-08-25 03:57:00,62.0,58.1,30.12,SSW,205,0.0,11.0,87,0.00,,,0.00,VWS V14.01,2013-08-25 07:57:00,
2013-08-25 03:58:00,62.1,58.2,30.12,SSW,193,0.0,11.0,87,0.00,,,0.00,VWS V14.01,2013-08-25 07:58:00,
2013-08-25 03:59:00,62.1,58.2,30.12,SSW,198,0.0,11.0,87,0.00,,,0.00,VWS V14.01,2013-08-25 07:59:00,
2013-08-25 04:00:00,62.2,58.3,30.12,SSW,203,0.0,11.0,87,0.00,,,0.00,VWS V14.01,2013-08-25 08:00:00,
2013-08-25 04:02:00,62.2,58.3,30.12,SSW,200,0.0,11.0,87,0.00,,,0.00,VWS V14.01,2013-08-25 08:02:00,
2013-08-25 04:03:00,62.3,58.1,30.12,WSW,242,0.0,11.0,86,0.00,,,0.00,VWS V14.01,2013-08-25 08:03:00,
2013-08-25 04:04:00,62.3,58.1,30.13,SSE,168,0.0,11.0,86,0.00,,,0.00,VWS V14.01,2013-08-25 08:04:00,
2013-08-25 04:05:00,62.5,58.3,30.13,South,178,0.0,11.0,86,0.00,,,0.00,VWS V14.01,2013-08-25 08:05:00,
2013-08-25 04:06:00,62.4,58.2,30.13,SSW,209,4.0,11.0,86,0.00,,,0.00,VWS V14.01,2013-08-25 08:06:00,
2013-08-25 04:07:00,62.5,58.3,30.13,South,179,0.0,11.0,86,0.00,,,0.00,VWS V14.01,2013-08-25 08:07:00,
2013-08-25 04:08:00,62.6,58.4,30.13,South,180,0.0,11.0,86,0.00,,,0.00,VWS V14.01,2013-08-25 08:08:00,
2013-08-25 04:09:00,62.7,58.1,30.13,South,182,0.0,11.0,85,0.00,,,0.00,VWS V14.01,2013-08-25 08:09:00,
2013-08-25 04:10:00,62.8,58.2,30.13,SSW,206,0.0,11.0,85,0.00,,,0.00,VWS V14.01,2013-08-25 08:10:00,
2013-08-25 04:11:00,62.8,58.6,30.13,South,183,0.0,11.0,86,0.00,,,0.00,VWS V14.01,2013-08-25 08:11:00,
2013-08-25 04:12:00,62.8,58.2,30.13,SW,219,0.0,11.0,85,0.00,,,0.00,VWS V14.01,2013-08-25 08:12:00,
2013-08-25 04:14:00,62.9,58.3,30.13,SSW,211,0.0,11.0,85,0.00,,,0.00,VWS V14.01,2013-08-25 08:14:00,
2013-08-25 04:15:00,63.0,58.4,30.13,SSW,202,0.0,11.0,85,0.00,,,0.00,VWS V14.01,2013-08-25 08:15:00,
2013-08-25 04:16:00,63.0,58.4,30.13,SSE,162,0.0,11.0,85,0.00,,,0.00,VWS V14.01,2013-08-25 08:16:00,
2013-08-25 04:17:00,63.1,58.5,30.13,SSW,197,0.0,11.0,85,0.00,,,0.00,VWS V14.01,2013-08-25 08:17:00,
2013-08-25 04:18:00,63.1,58.5,30.13,SSW,194,0.0,11.0,85,0.00,,,0.00,VWS V14.01,2013-08-25 08:18:00,
2013-08-25 04:19:00,63.2,58.6,30.13,South,185,0.0,11.0,85,0.00,,,0.00,VWS V14.01,2013-08-25 08:19:00,
2013-08-25 04:20:00,63.2,58.6,30.13,SSW,193,0.0,11.0,85,0.00,,,0.00,VWS V14.01,2013-08-25 08:20:00,
2013-08-25 04:21:00,63.3,58.4,30.13,SSW,207,4.0,11.0,84,0.00,,,0.00,VWS V14.01,2013-08-25 08:21:00,
2013-08-25 04:22:00,63.4,58.5,30.13,SSW,209,0.0,11.0,84,0.00,,,0.00,VWS V14.01,2013-08-25 08:22:00,
2013-08-25 04:23:00,63.4,58.5,30.13,SSW,198,0.0,11.0,84,0.00,,,0.00,VWS V14.01,2013-08-25 08:23:00,
2013-08-25 04:24:00,63.5,58.6,30.13,SSW,199,0.0,11.0,84,0.00,,,0.00,VWS V14.01,2013-08-25 08:24:00,
2013-08-25 04:25:00,63.5,58.6,30.13,SSW,198,0.0,11.0,84,0.00,,,0.00,VWS V14.01,2013-08-25 08:25:00,
2013-08-25 04:26:00,63.6,58.7,30.13,South,186,0.0,11.0,84,0.00,,,0.00,VWS V14.01,2013-08-25 08:26:00,
2013-08-25 04:27:00,63.6,58.7,30.13,South,186,0.0,11.0,84,0.00,,,0.00,VWS V14.01,2013-08-25 08:27:00,
2013-08-25 04:28:00,63.6,58.7,30.13,South,188,0.0,11.0,84,0.00,,,0.00,VWS V14.01,2013-08-25 08:28:00,
2013-08-25 04:29:00,63.7,58.8,30.13,South,177,0.0,11.0,84,0.00,,,0.00,VWS V14.01,2013-08-25 08:29:00,
2013-08-25 04:30:00,63.8,58.9,30.12,SSW,192,0.0,11.0,84,0.00,,,0.00,VWS V14.01,2013-08-25 08:30:00,
2013-08-25 04:31:00,63.8,58.5,30.12,SSW,213,0.0,11.0,83,0.00,,,0.00,VWS V14.01,2013-08-25 08:31:00,
2013-08-25 04:32:00,63.8,58.5,30.12,SSW,213,0.0,11.0,83,0.00,,,0.00,VWS V14.01,2013-08-25 08:32:00,
2013-08-25 04:34:00,63.8,58.5,30.12,South,186,0.0,11.0,83,0.00,,,0.00,VWS V14.01,2013-08-25 08:34:00,
2013-08-25 04:35:00,63.8,58.5,30.12,SSW,208,0.0,11.0,83,0.00,,,0.00,VWS V14.01,2013-08-25 08:35:00,
2013-08-25 04:36:00,63.9,58.6,30.12,South,184,0.0,11.0,83,0.00,,,0.00,VWS V14.01,2013-08-25 08:36:00,
2013-08-25 04:37:00,63.9,58.6,30.12,South,184,0.0,11.0,83,0.00,,,0.00,VWS V14.01,2013-08-25 08:37:00,
2013-08-25 04:38:00,63.9,58.6,30.12,South,174,0.0,11.0,83,0.00,,,0.00,VWS V14.01,2013-08-25 08:38:00,
2013-08-25 04:39:00,63.9,58.6,30.12,South,182,0.0,11.0,83,0.00,,,0.00,VWS V14.01,2013-08-25 08:39:00,
2013-08-25 04:40:00,64.0,58.7,30.12,SSW,205,4.0,11.0,83,0.00,,,0.00,VWS V14.01,2013-08-25 08:40:00,
2013-08-25 04:41:00,64.0,58.7,30.12,South,191,0.0,11.0,83,0.00,,,0.00,VWS V14.01,2013-08-25 08:41:00,
2013-08-25 04:42:00,64.0,58.7,30.12,South,191,0.0,11.0,83,0.00,,,0.00,VWS V14.01,2013-08-25 08:42:00,
2013-08-25 04:43:00,64.0,58.7,30.12,SSW,198,0.0,11.0,83,0.00,,,0.00,VWS V14.01,2013-08-25 08:43:00,
2013-08-25 04:44:00,64.1,58.8,30.12,SW,234,2.0,11.0,83,0.00,,,0.00,VWS V14.01,2013-08-25 08:44:00,
2013-08-25 04:45:00,64.1,58.8,30.12,SSW,192,0.0,11.0,83,0.00,,,0.00,VWS V14.01,2013-08-25 08:45:00,
2013-08-25 04:46:00,64.1,58.5,30.12,SSW,203,0.0,11.0,82,0.00,,,0.00,VWS V14.01,2013-08-25 08:46:00,
2013-08-25 04:47:00,64.1,58.5,30.12,SSW,203,0.0,11.0,82,0.00,,,0.00,VWS V14.01,2013-08-25 08:47:00,
2013-08-25 04:48:00,64.1,58.5,30.12,SW,223,0.0,11.0,82,0.00,,,0.00,VWS V14.01,2013-08-25 08:48:00,
2013-08-25 04:49:00,64.1,58.8,30.12,South,191,0.0,11.0,83,0.00,,,0.00,VWS V14.01,2013-08-25 08:49:00,
2013-08-25 04:50:00,64.2,58.6,30.12,SSW,211,0.0,11.0,82,0.00,,,0.00,VWS V14.01,2013-08-25 08:50:00,
2013-08-25 04:51:00,64.3,58.7,30.12,South,181,0.0,11.0,82,0.00,,,0.00,VWS V14.01,2013-08-25 08:51:00,
2013-08-25 04:52:00,64.3,58.7,30.12,South,181,0.0,11.0,82,0.00,,,0.00,VWS V14.01,2013-08-25 08:52:00,
2013-08-25 04:53:00,64.3,58.7,30.12,South,182,0.0,11.0,82,0.00,,,0.00,VWS V14.01,2013-08-25 08:53:00,
2013-08-25 04:54:00,64.3,58.7,30.12,SSW,206,0.0,11.0,82,0.00,,,0.00,VWS V14.01,2013-08-25 08:54:00,
2013-08-25 04:55:00,64.3,58.7,30.12,SSW,192,0.0,11.0,82,0.00,,,0.00,VWS V14.01,2013-08-25 08:55:00,
2013-08-25 04:56:00,64.4,58.8,30.13,SSW,197,5.0,11.0,82,0.00,,,0.00,VWS V14.01,2013-08-25 08:56:00,
2013-08-25 04:57:00,64.4,58.8,30.13,SSW,197,5.0,11.0,82,0.00,,,0.00,VWS V14.01,2013-08-25 08:57:00,
2013-08-25 04:58:00,64.4,58.8,30.13,SSW,206,4.0,11.0,82,0.00,,,0.00,VWS V14.01,2013-08-25 08:58:00,
2013-08-25 04:59:00,64.5,58.5,30.12,South,186,0.0,11.0,81,0.00,,,0.00,VWS V14.01,2013-08-25 08:59:00,
2013-08-25 05:00:00,64.6,59.0,30.13,SW,215,8.0,11.0,82,0.00,,,0.00,VWS V14.01,2013-08-25 09:00:00,
2013-08-25 05:01:00,64.7,58.7,30.12,SSW,206,0.0,11.0,81,0.00,,,0.00,VWS V14.01,2013-08-25 09:01:00,
2013-08-25 05:02:00,64.7,58.7,30.12,SSW,207,0.0,11.0,81,0.00,,,0.00,VWS V14.01,2013-08-25 09:02:00,
2013-08-25 05:03:00,64.8,58.8,30.12,SSW,211,0.0,11.0,81,0.00,,,0.00,VWS V14.01,2013-08-25 09:03:00,
2013-08-25 05:04:00,64.8,58.8,30.12,SSW,213,0.0,11.0,81,0.00,,,0.00,VWS V14.01,2013-08-25 09:04:00,
2013-08-25 05:05:00,64.9,58.9,30.12,SW,215,0.0,11.0,81,0.00,,,0.00,VWS V14.01,2013-08-25 09:05:00,
2013-08-25 05:06:00,65.0,59.0,30.13,SSW,208,0.0,11.0,81,0.00,,,0.00,VWS V14.01,2013-08-25 09:06:00,
2013-08-25 05:07:00,64.9,58.9,30.13,South,184,0.0,11.0,81,0.00,,,0.00,VWS V14.01,2013-08-25 09:07:00,
2013-08-25 05:08:00,65.0,59.0,30.13,SSW,202,0.0,11.0,81,0.00,,,0.00,VWS V14.01,2013-08-25 09:08:00,
2013-08-25 05:09:00,65.0,59.0,30.13,SSW,210,0.0,11.0,81,0.00,,,0.00,VWS V14.01,2013-08-25 09:09:00,
2013-08-25 05:10:00,65.1,59.1,30.13,SSW,207,3.0,11.0,81,0.00,,,0.00,VWS V14.01,2013-08-25 09:10:00,
2013-08-25 05:11:00,65.1,59.1,30.13,SSW,192,0.0,11.0,81,0.00,,,0.00,VWS V14.01,2013-08-25 09:11:00,
2013-08-25 05:12:00,65.1,58.8,30.13,SSW,192,0.0,11.0,80,0.00,,,0.00,VWS V14.01,2013-08-25 09:12:00,
2013-08-25 05:13:00,65.1,59.1,30.13,SSW,210,0.0,11.0,81,0.00,,,0.00,VWS V14.01,2013-08-25 09:13:00,
2013-08-25 05:14:00,65.1,58.8,30.13,SSW,200,5.0,11.0,80,0.00,,,0.00,VWS V14.01,2013-08-25 09:14:00,
2013-08-25 05:15:00,65.1,59.1,30.13,SSW,200,0.0,11.0,81,0.00,,,0.00,VWS V14.01,2013-08-25 09:15:00,
2013-08-25 05:16:00,65.2,59.2,30.12,SSW,200,0.0,11.0,81,0.00,,,0.00,VWS V14.01,2013-08-25 09:16:00,
2013-08-25 05:17:00,65.2,58.9,30.12,SSW,200,0.0,11.0,80,0.00,,,0.00,VWS V14.01,2013-08-25 09:17:00,
2013-08-25 05:18:00,65.2,59.2,30.12,South,178,0.0,11.0,81,0.00,,,0.00,VWS V14.01,2013-08-25 09:18:00,
2013-08-25 05:19:00,65.2,59.2,30.12,South,182,0.0,11.0,81,0.00,,,0.00,VWS V14.01,2013-08-25 09:19:00,
2013-08-25 05:20:00,65.2,59.2,30.12,South,184,3.0,11.0,81,0.00,,,0.00,VWS V14.01,2013-08-25 09:20:00,
2013-08-25 05:21:00,65.3,59.0,30.11,SW,223,0.0,11.0,80,0.00,,,0.00,VWS V14.01,2013-08-25 09:21:00,
2013-08-25 05:22:00,65.3,59.0,30.12,SSW,203,0.0,11.0,80,0.00,,,0.00,VWS V14.01,2013-08-25 09:22:00,
2013-08-25 05:23:00,65.4,59.1,30.11,South,176,0.0,11.0,80,0.00,,,0.00,VWS V14.01,2013-08-25 09:23:00,
2013-08-25 05:24:00,65.4,59.4,30.11,SSE,167,0.0,11.0,81,0.00,,,0.00,VWS V14.01,2013-08-25 09:24:00,
2013-08-25 05:25:00,65.5,59.2,30.12,South,171,0.0,11.0,80,0.00,,,0.00,VWS V14.01,2013-08-25 09:25:00,
2013-08-25 05:26:00,65.6,59.3,30.12,SSW,209,0.0,11.0,80,0.00,,,0.00,VWS V14.01,2013-08-25 09:26:00,
2013-08-25 05:27:00,65.6,59.3,30.12,SSW,209,0.0,11.0,80,0.00,,,0.00,VWS V14.01,2013-08-25 09:27:00,
2013-08-25 05:28:00,65.6,59.3,30.12,SW,228,0.0,11.0,80,0.00,,,0.00,VWS V14.01,2013-08-25 09:28:00,
2013-08-25 05:29:00,65.6,59.3,30.12,South,182,0.0,11.0,80,0.00,,,0.00,VWS V14.01,2013-08-25 09:29:00,
2013-08-25 05:30:00,65.6,59.3,30.12,South,184,0.0,11.0,80,0.00,,,0.00,VWS V14.01,2013-08-25 09:30:00,
2013-08-25 05:31:00,65.6,59.3,30.12,SSW,194,0.0,11.0,80,0.00,,,0.00,VWS V14.01,2013-08-25 09:31:00,
2013-08-25 05:32:00,65.6,59.3,30.12,South,184,0.0,11.0,80,0.00,,,0.00,VWS V14.01,2013-08-25 09:32:00,
2013-08-25 05:33:00,65.6,59.3,30.12,SSW,194,0.0,11.0,80,0.00,,,0.00,VWS V14.01,2013-08-25 09:33:00,
2013-08-25 05:34:00,65.5,59.2,30.12,SSW,213,4.0,11.0,80,0.00,,,0.00,VWS V14.01,2013-08-25 09:34:00,
2013-08-25 05:35:00,65.5,59.2,30.12,SSW,211,0.0,11.0,80,0.00,,,0.00,VWS V14.01,2013-08-25 09:35:00,
2013-08-25 05:36:00,65.5,59.5,30.12,SW,218,0.0,11.0,81,0.00,,,0.00,VWS V14.01,2013-08-25 09:36:00,
2013-08-25 05:37:00,65.5,59.2,30.12,SSW,205,0.0,11.0,80,0.00,,,0.00,VWS V14.01,2013-08-25 09:37:00,
2013-08-25 05:38:00,65.5,59.2,30.12,SSW,205,0.0,11.0,80,0.00,,,0.00,VWS V14.01,2013-08-25 09:38:00,
2013-08-25 05:39:00,65.5,59.2,30.12,SW,215,0.0,11.0,80,0.00,,,0.00,VWS V14.01,2013-08-25 09:39:00,
2013-08-25 05:40:00,65.5,59.5,30.12,SW,216,0.0,11.0,81,0.00,,,0.00,VWS V14.01,2013-08-25 09:40:00,
2013-08-25 05:41:00,65.4,59.4,30.12,SW,229,0.0,11.0,81,0.00,,,0.00,VWS V14.01,2013-08-25 09:41:00,
2013-08-25 05:42:00,65.4,59.4,30.12,SW,219,0.0,11.0,81,0.00,,,0.00,VWS V14.01,2013-08-25 09:42:00,
2013-08-25 05:43:00,65.4,59.4,30.12,SSW,205,0.0,11.0,81,0.00,,,0.00,VWS V14.01,2013-08-25 09:43:00,
2013-08-25 05:44:00,65.4,59.4,30.12,SW,221,0.0,11.0,81,0.00,,,0.00,VWS V14.01,2013-08-25 09:44:00,
2013-08-25 05:45:00,65.4,59.4,30.12,South,188,0.0,11.0,81,0.00,,,0.00,VWS V14.01,2013-08-25 09:45:00,
2013-08-25 05:46:00,65.4,59.4,30.12,South,175,0.0,11.0,81,0.00,,,0.00,VWS V14.01,2013-08-25 09:46:00,
2013-08-25 05:47:00,65.3,59.3,30.12,SSW,202,0.0,11.0,81,0.00,,,0.00,VWS V14.01,2013-08-25 09:47:00,
2013-08-25 05:48:00,65.3,59.3,30.12,SSW,202,0.0,11.0,81,0.00,,,0.00,VWS V14.01,2013-08-25 09:48:00,
2013-08-25 05:49:00,65.3,59.3,30.12,SW,223,0.0,11.0,81,0.00,,,0.00,VWS V14.01,2013-08-25 09:49:00,
2013-08-25 05:50:00,65.3,59.3,30.12,South,182,0.0,11.0,81,0.00,,,0.00,VWS V14.01,2013-08-25 09:50:00,
2013-08-25 05:51:00,65.3,59.3,30.12,SSW,203,0.0,11.0,81,0.00,,,0.00,VWS V14.01,2013-08-25 09:51:00,
2013-08-25 05:52:00,65.3,59.3,30.12,SSW,211,0.0,11.0,81,0.00,,,0.00,VWS V14.01,2013-08-25 09:52:00,
2013-08-25 05:53:00,65.2,59.2,30.12,SSW,211,0.0,11.0,81,0.00,,,0.00,VWS V14.01,2013-08-25 09:53:00,
2013-08-25 05:54:00,65.2,59.2,30.12,SSW,203,0.0,11.0,81,0.00,,,0.00,VWS V14.01,2013-08-25 09:54:00,
2013-08-25 05:55:00,65.2,59.2,30.12,SSW,200,0.0,11.0,81,0.00,,,0.00,VWS V14.01,2013-08-25 09:55:00,
2013-08-25 05:56:00,65.2,59.2,30.12,South,178,0.0,11.0,81,0.00,,,0.00,VWS V14.01,2013-08-25 09:56:00,
2013-08-25 05:57:00,65.2,59.2,30.12,SSW,211,0.0,11.0,81,0.00,,,0.00,VWS V14.01,2013-08-25 09:57:00,
2013-08-25 05:58:00,65.2,59.2,30.12,SSW,211,0.0,11.0,81,0.00,,,0.00,VWS V14.01,2013-08-25 09:58:00,
2013-08-25 06:00:00,65.2,58.9,30.12,South,181,0.0,11.0,80,0.00,,,0.00,VWS V14.01,2013-08-25 10:00:00,
2013-08-25 06:02:00,65.2,58.5,30.12,South,187,5.0,11.0,79,0.00,,,0.00,VWS V14.01,2013-08-25 10:02:00,
2013-08-25 06:03:00,65.2,58.5,30.12,South,187,5.0,11.0,79,0.00,,,0.00,VWS V14.01,2013-08-25 10:03:00,
2013-08-25 06:04:00,65.3,58.6,30.12,SSW,206,3.0,11.0,79,0.00,,,0.00,VWS V14.01,2013-08-25 10:04:00,
2013-08-25 06:05:00,65.3,58.6,30.12,SSW,202,7.0,11.0,79,0.00,,,0.00,VWS V14.01,2013-08-25 10:05:00,
2013-08-25 06:06:00,65.3,58.6,30.12,South,171,0.0,11.0,79,0.00,,,0.00,VWS V14.01,2013-08-25 10:06:00,
2013-08-25 06:07:00,65.4,58.7,30.13,SW,216,0.0,11.0,79,0.00,,,0.00,VWS V14.01,2013-08-25 10:07:00,
2013-08-25 06:08:00,65.4,58.7,30.13,SW,216,0.0,11.0,79,0.00,,,0.00,VWS V14.01,2013-08-25 10:08:00,
2013-08-25 06:09:00,65.4,58.7,30.13,SSW,201,0.0,11.0,79,0.00,,,0.00,VWS V14.01,2013-08-25 10:09:00,
2013-08-25 06:10:00,65.4,58.7,30.13,SW,214,1.0,11.0,79,0.00,,,0.00,VWS V14.01,2013-08-25 10:10:00,
2013-08-25 06:11:00,65.4,58.7,30.12,South,190,5.0,11.0,79,0.00,,,0.00,VWS V14.01,2013-08-25 10:11:00,
2013-08-25 06:12:00,65.5,58.5,30.12,SW,218,8.0,11.0,78,0.00,,,0.00,VWS V14.01,2013-08-25 10:12:00,
2013-08-25 06:13:00,65.5,58.5,30.12,SW,218,8.0,11.0,78,0.00,,,0.00,VWS V14.01,2013-08-25 10:13:00,
2013-08-25 06:14:00,65.6,58.6,30.12,SSW,207,0.0,11.0,78,0.00,,,0.00,VWS V14.01,2013-08-25 10:14:00,
2013-08-25 06:15:00,65.6,58.6,30.12,SSW,202,6.0,11.0,78,0.00,,,0.00,VWS V14.01,2013-08-25 10:15:00,
2013-08-25 06:16:00,65.7,58.7,30.12,SW,220,5.0,11.0,78,0.00,,,0.00,VWS V14.01,2013-08-25 10:16:00,
2013-08-25 06:17:00,65.8,58.8,30.12,SW,224,0.0,11.0,78,0.00,,,0.00,VWS V14.01,2013-08-25 10:17:00,
2013-08-25 06:18:00,65.8,58.8,30.12,SW,224,0.0,11.0,78,0.00,,,0.00,VWS V14.01,2013-08-25 10:18:00,
2013-08-25 06:20:00,66.0,59.0,30.12,SW,220,0.0,11.0,78,0.00,,,0.00,VWS V14.01,2013-08-25 10:20:00,
2013-08-25 06:21:00,66.1,59.0,30.12,SW,218,2.0,11.0,78,0.00,,,0.00,VWS V14.01,2013-08-25 10:21:00,
2013-08-25 06:22:00,66.2,58.8,30.12,SW,221,7.0,11.0,77,0.00,,,0.00,VWS V14.01,2013-08-25 10:22:00,
2013-08-25 06:23:00,66.2,58.8,30.12,South,189,6.0,11.0,77,0.00,,,0.00,VWS V14.01,2013-08-25 10:23:00,
2013-08-25 06:24:00,66.3,58.9,30.12,SW,220,14.0,14.0,77,0.00,,,0.00,VWS V14.01,2013-08-25 10:24:00,
2013-08-25 06:25:00,66.4,58.6,30.12,SSW,211,0.0,11.0,76,0.00,,,0.00,VWS V14.01,2013-08-25 10:25:00,
2013-08-25 06:26:00,66.5,59.1,30.12,South,177,0.0,11.0,77,0.00,,,0.00,VWS V14.01,2013-08-25 10:26:00,
2013-08-25 06:27:00,66.6,58.8,30.12,South,173,0.0,11.0,76,0.00,,,0.00,VWS V14.01,2013-08-25 10:27:00,
2013-08-25 06:28:00,66.6,59.2,30.12,South,180,0.0,11.0,77,0.00,,,0.00,VWS V14.01,2013-08-25 10:28:00,
2013-08-25 06:29:00,66.7,58.9,30.12,SW,215,0.0,11.0,76,0.00,,,0.00,VWS V14.01,2013-08-25 10:29:00,
2013-08-25 06:30:00,66.7,58.9,30.12,SW,221,0.0,11.0,76,0.00,,,0.00,VWS V14.01,2013-08-25 10:30:00,
2013-08-25 06:31:00,66.7,58.9,30.12,South,188,3.0,11.0,76,0.00,,,0.00,VWS V14.01,2013-08-25 10:31:00,
2013-08-25 06:32:00,66.8,58.6,30.12,South,186,0.0,11.0,75,0.00,,,0.00,VWS V14.01,2013-08-25 10:32:00,
2013-08-25 06:33:00,66.8,59.0,30.12,SW,225,0.0,11.0,76,0.00,,,0.00,VWS V14.01,2013-08-25 10:33:00,
2013-08-25 06:34:00,66.8,58.6,30.12,South,175,6.0,11.0,75,0.00,,,0.00,VWS V14.01,2013-08-25 10:34:00,
2013-08-25 06:35:00,66.8,58.6,30.12,SSW,193,0.0,11.0,75,0.00,,,0.00,VWS V14.01,2013-08-25 10:35:00,
2013-08-25 06:36:00,66.9,58.7,30.11,SSW,213,0.0,11.0,75,0.00,,,0.00,VWS V14.01,2013-08-25 10:36:00,
2013-08-25 06:37:00,67.0,58.8,30.12,SSW,201,2.0,11.0,75,0.00,,,0.00,VWS V14.01,2013-08-25 10:37:00,
2013-08-25 06:38:00,67.0,58.8,30.12,South,190,3.0,11.0,75,0.00,,,0.00,VWS V14.01,2013-08-25 10:38:00,
2013-08-25 06:39:00,67.0,58.8,30.12,SSW,200,7.0,11.0,75,0.00,,,0.00,VWS V14.01,2013-08-25 10:39:00,
2013-08-25 06:40:00,67.0,58.8,30.12,SSW,205,0.0,11.0,75,0.00,,,0.00,VWS V14.01,2013-08-25 10:40:00,
2013-08-25 06:41:00,67.0,58.8,30.11,South,172,8.0,11.0,75,0.00,,,0.00,VWS V14.01,2013-08-25 10:41:00,
2013-08-25 06:42:00,67.1,58.9,30.11,SSW,194,6.0,11.0,75,0.00,,,0.00,VWS V14.01,2013-08-25 10:42:00,
2013-08-25 06:43:00,67.1,58.9,30.11,SSW,199,0.0,11.0,75,0.00,,,0.00,VWS V14.01,2013-08-25 10:43:00,
2013-08-25 06:44:00,67.1,58.9,30.11,SSW,198,1.0,11.0,75,0.00,,,0.00,VWS V14.01,2013-08-25 10:44:00,
2013-08-25 06:45:00,67.1,58.9,30.11,South,181,8.0,11.0,75,0.00,,,0.00,VWS V14.01,2013-08-25 10:45:00,
2013-08-25 06:46:00,67.1,58.9,30.11,SE,146,0.0,11.0,75,0.00,,,0.00,VWS V14.01,2013-08-25 10:46:00,
2013-08-25 06:47:00,67.0,58.8,30.11,SSW,200,0.0,11.0,75,0.00,,,0.00,VWS V14.01,2013-08-25 10:47:00,
2013-08-25 06:48:00,67.0,58.8,30.11,SSW,205,0.0,11.0,75,0.00,,,0.00,VWS V14.01,2013-08-25 10:48:00,
2013-08-25 06:49:00,67.0,58.8,30.11,SSW,202,0.0,11.0,75,0.00,,,0.00,VWS V14.01,2013-08-25 10:49:00,
2013-08-25 06:50:00,67.0,58.8,30.11,SSW,213,0.0,11.0,75,0.00,,,0.00,VWS V14.01,2013-08-25 10:50:00,
2013-08-25 06:51:00,67.0,58.8,30.11,SW,215,0.0,11.0,75,0.00,,,0.00,VWS V14.01,2013-08-25 10:51:00,
2013-08-25 06:52:00,66.9,59.1,30.11,SW,220,0.0,11.0,76,0.00,,,0.00,VWS V14.01,2013-08-25 10:52:00,
2013-08-25 06:53:00,67.0,59.2,30.11,SSW,210,4.0,11.0,76,0.00,,,0.00,VWS V14.01,2013-08-25 10:53:00,
2013-08-25 06:55:00,66.9,58.7,30.11,SSW,193,0.0,11.0,75,0.00,,,0.00,VWS V14.01,2013-08-25 10:55:00,
2013-08-25 06:56:00,66.8,58.6,30.11,SSW,205,0.0,11.0,75,0.00,,,0.00,VWS V14.01,2013-08-25 10:56:00,
2013-08-25 06:57:00,66.8,59.0,30.11,SW,223,0.0,11.0,76,0.00,,,0.00,VWS V14.01,2013-08-25 10:57:00,
2013-08-25 06:58:00,66.8,59.0,30.11,SW,217,0.0,11.0,76,0.00,,,0.00,VWS V14.01,2013-08-25 10:58:00,
2013-08-25 06:59:00,66.8,58.6,30.11,SW,223,0.0,11.0,75,0.00,,,0.00,VWS V14.01,2013-08-25 10:59:00,
2013-08-25 07:00:00,66.7,58.9,30.11,South,181,0.0,11.0,76,0.00,,,0.00,VWS V14.01,2013-08-25 11:00:00,
2013-08-25 07:01:00,66.7,58.5,30.11,SW,217,0.0,11.0,75,0.00,,,0.00,VWS V14.01,2013-08-25 11:01:00,
2013-08-25 07:02:00,66.6,58.4,30.11,SSE,165,0.0,11.0,75,0.00,,,0.00,VWS V14.01,2013-08-25 11:02:00,
2013-08-25 07:03:00,66.6,58.8,30.11,SSW,210,0.0,11.0,76,0.00,,,0.00,VWS V14.01,2013-08-25 11:03:00,
2013-08-25 07:04:00,66.6,58.4,30.11,SSW,198,0.0,11.0,75,0.00,,,0.00,VWS V14.01,2013-08-25 11:04:00,
2013-08-25 07:05:00,66.6,58.4,30.11,SSE,163,0.0,11.0,75,0.00,,,0.00,VWS V14.01,2013-08-25 11:05:00,
2013-08-25 07:06:00,66.6,58.8,30.11,SW,232,0.0,11.0,76,0.00,,,0.00,VWS V14.01,2013-08-25 11:06:00,
2013-08-25 07:07:00,66.5,58.7,30.11,SSW,196,0.0,11.0,76,0.00,,,0.00,VWS V14.01,2013-08-25 11:07:00,
2013-08-25 07:08:00,66.5,58.7,30.11,SSW,193,0.0,11.0,76,0.00,,,0.00,VWS V14.01,2013-08-25 11:08:00,
2013-08-25 07:09:00,66.6,58.8,30.11,SSW,193,0.0,11.0,76,0.00,,,0.00,VWS V14.01,2013-08-25 11:09:00,
2013-08-25 07:10:00,66.5,58.3,30.12,SW,221,0.0,11.0,75,0.00,,,0.00,VWS V14.01,2013-08-25 11:10:00,
2013-08-25 07:11:00,66.5,58.3,30.11,SSW,203,0.0,11.0,75,0.00,,,0.00,VWS V14.01,2013-08-25 11:11:00,
2013-08-25 07:12:00,66.5,58.3,30.11,SSW,205,3.0,11.0,75,0.00,,,0.00,VWS V14.01,2013-08-25 11:12:00,
2013-08-25 07:13:00,66.6,58.4,30.12,SW,229,0.0,11.0,75,0.00,,,0.00,VWS V14.01,2013-08-25 11:13:00,
2013-08-25 07:14:00,66.6,58.4,30.12,SW,222,0.0,11.0,75,0.00,,,0.00,VWS V14.01,2013-08-25 11:14:00,
2013-08-25 07:15:00,66.6,58.4,30.11,SSW,202,5.0,11.0,75,0.00,,,0.00,VWS V14.01,2013-08-25 11:15:00,
2013-08-25 07:16:00,66.6,58.4,30.11,South,186,0.0,11.0,75,0.00,,,0.00,VWS V14.01,2013-08-25 11:16:00,
2013-08-25 07:17:00,66.6,58.4,30.11,South,175,0.0,11.0,75,0.00,,,0.00,VWS V14.01,2013-08-25 11:17:00,
2013-08-25 07:18:00,66.6,58.4,30.11,SSW,205,0.0,11.0,75,0.00,,,0.00,VWS V14.01,2013-08-25 11:18:00,
2013-08-25 07:19:00,66.6,58.4,30.11,SW,226,0.0,11.0,75,0.00,,,0.00,VWS V14.01,2013-08-25 11:19:00,
2013-08-25 07:20:00,66.7,58.5,30.11,South,178,0.0,11.0,75,0.00,,,0.00,VWS V14.01,2013-08-25 11:20:00,
2013-08-25 07:21:00,66.6,58.1,30.11,SW,217,0.0,11.0,74,0.00,,,0.00,VWS V14.01,2013-08-25 11:21:00,
2013-08-25 07:22:00,66.7,58.2,30.11,SSW,194,6.0,11.0,74,0.00,,,0.00,VWS V14.01,2013-08-25 11:22:00,
2013-08-25 07:23:00,66.6,58.1,30.11,SSW,196,3.0,11.0,74,0.00,,,0.00,VWS V14.01,2013-08-25 11:23:00,
2013-08-25 07:24:00,66.7,58.2,30.11,SSW,196,2.0,11.0,74,0.00,,,0.00,VWS V14.01,2013-08-25 11:24:00,
2013-08-25 07:25:00,66.7,58.2,30.11,South,179,0.0,11.0,74,0.00,,,0.00,VWS V14.01,2013-08-25 11:25:00,
2013-08-25 07:26:00,66.7,58.2,30.11,SW,217,4.0,11.0,74,0.00,,,0.00,VWS V14.01,2013-08-25 11:26:00,
2013-08-25 07:27:00,66.7,58.2,30.11,SSW,204,8.0,11.0,74,0.00,,,0.00,VWS V14.01,2013-08-25 11:27:00,
2013-08-25 07:28:00,66.6,58.1,30.11,WSW,237,3.0,11.0,74,0.00,,,0.00,VWS V14.01,2013-08-25 11:28:00,
2013-08-25 07:29:00,66.6,58.1,30.11,WSW,237,3.0,11.0,74,0.00,,,0.00,VWS V14.01,2013-08-25 11:29:00,
2013-08-25 07:30:00,66.7,58.2,30.11,South,170,0.0,11.0,74,0.00,,,0.00,VWS V14.01,2013-08-25 11:30:00,
2013-08-25 07:31:00,66.7,58.2,30.11,SSW,200,5.0,11.0,74,0.00,,,0.00,VWS V14.01,2013-08-25 11:31:00,
2013-08-25 07:32:00,66.7,58.2,30.11,SW,234,7.0,11.0,74,0.00,,,0.00,VWS V14.01,2013-08-25 11:32:00,
2013-08-25 07:33:00,66.7,58.2,30.11,SW,218,0.0,11.0,74,0.00,,,0.00,VWS V14.01,2013-08-25 11:33:00,
2013-08-25 07:34:00,66.7,58.2,30.11,SW,218,0.0,11.0,74,0.00,,,0.00,VWS V14.01,2013-08-25 11:34:00,
2013-08-25 07:35:00,66.7,58.2,30.11,SSW,198,1.0,11.0,74,0.00,,,0.00,VWS V14.01,2013-08-25 11:35:00,
2013-08-25 07:36:00,66.7,58.2,30.11,SW,220,0.0,11.0,74,0.00,,,0.00,VWS V14.01,2013-08-25 11:36:00,
2013-08-25 07:37:00,66.7,58.2,30.11,SW,225,0.0,11.0,74,0.00,,,0.00,VWS V14.01,2013-08-25 11:37:00,
2013-08-25 07:38:00,66.7,58.2,30.11,SW,219,5.0,11.0,74,0.00,,,0.00,VWS V14.01,2013-08-25 11:38:00,
2013-08-25 07:39:00,66.7,58.2,30.11,SW,219,5.0,11.0,74,0.00,,,0.00,VWS V14.01,2013-08-25 11:39:00,
2013-08-25 07:40:00,66.7,57.8,30.11,SSW,203,2.0,11.0,73,0.00,,,0.00,VWS V14.01,2013-08-25 11:40:00,
2013-08-25 07:41:00,66.8,57.9,30.11,SW,220,6.0,11.0,73,0.00,,,0.00,VWS V14.01,2013-08-25 11:41:00,
2013-08-25 07:42:00,66.8,58.3,30.11,SSW,197,3.0,11.0,74,0.00,,,0.00,VWS V14.01,2013-08-25 11:42:00,
2013-08-25 07:43:00,66.9,58.3,30.11,SSW,211,0.0,11.0,74,0.00,,,0.00,VWS V14.01,2013-08-25 11:43:00,
2013-08-25 07:44:00,66.9,58.3,30.11,SSW,211,0.0,11.0,74,0.00,,,0.00,VWS V14.01,2013-08-25 11:44:00,
2013-08-25 07:45:00,66.9,58.3,30.11,SSW,200,10.0,11.0,74,0.00,,,0.00,VWS V14.01,2013-08-25 11:45:00,
2013-08-25 07:47:00,67.1,58.2,30.11,SW,234,7.0,11.0,73,0.00,,,0.00,VWS V14.01,2013-08-25 11:47:00,
2013-08-25 07:48:00,67.2,58.3,30.11,SW,215,9.0,11.0,73,0.00,,,0.00,VWS V14.01,2013-08-25 11:48:00,
2013-08-25 07:49:00,67.2,58.3,30.11,SSW,203,9.0,11.0,73,0.00,,,0.00,VWS V14.01,2013-08-25 11:49:00,
2013-08-25 07:50:00,67.3,58.0,30.11,SSW,202,7.0,11.0,72,0.00,,,0.00,VWS V14.01,2013-08-25 11:50:00,
2013-08-25 07:51:00,67.4,58.1,30.11,SSW,207,7.0,11.0,72,0.00,,,0.00,VWS V14.01,2013-08-25 11:51:00,
2013-08-25 07:52:00,67.5,58.5,30.11,South,184,4.0,11.0,73,0.00,,,0.00,VWS V14.01,2013-08-25 11:52:00,
2013-08-25 07:53:00,67.6,58.3,30.10,SW,215,0.0,11.0,72,0.00,,,0.00,VWS V14.01,2013-08-25 11:53:00,
2013-08-25 07:54:00,67.6,58.3,30.11,SW,216,3.0,11.0,72,0.00,,,0.00,VWS V14.01,2013-08-25 11:54:00,
2013-08-25 07:55:00,67.7,58.4,30.10,SSW,202,9.0,11.0,72,0.00,,,0.00,VWS V14.01,2013-08-25 11:55:00,
2013-08-25 07:56:00,67.8,58.5,30.11,SSW,202,0.0,11.0,72,0.00,,,0.00,VWS V14.01,2013-08-25 11:56:00,
2013-08-25 07:57:00,67.9,58.5,30.11,SSE,167,8.0,11.0,72,0.00,,,0.00,VWS V14.01,2013-08-25 11:57:00,
2013-08-25 07:58:00,68.0,58.7,30.11,SW,229,4.0,11.0,72,0.00,,,0.00,VWS V14.01,2013-08-25 11:58:00,
2013-08-25 07:59:00,68.0,58.7,30.10,South,184,9.0,11.0,72,0.00,,,0.00,VWS V14.01,2013-08-25 11:59:00,
2013-08-25 08:00:00,68.0,58.3,30.11,SSW,193,6.0,11.0,71,0.00,,,0.00,VWS V14.01,2013-08-25 12:00:00,
2013-08-25 08:01:00,68.1,58.3,30.11,SW,224,0.0,11.0,71,0.00,,,0.00,VWS V14.01,2013-08-25 12:01:00,
2013-08-25 08:02:00,68.1,58.3,30.10,SSW,211,0.0,11.0,71,0.00,,,0.00,VWS V14.01,2013-08-25 12:02:00,
2013-08-25 08:03:00,68.3,58.5,30.10,SW,216,3.0,11.0,71,0.00,,,0.00,VWS V14.01,2013-08-25 12:03:00,
2013-08-25 08:04:00,68.3,58.5,30.11,SSW,202,10.0,11.0,71,0.00,,,0.00,VWS V14.01,2013-08-25 12:04:00,
2013-08-25 08:05:00,68.3,58.5,30.10,South,190,12.0,12.0,71,0.00,,,0.00,VWS V14.01,2013-08-25 12:05:00,
2013-08-25 08:06:00,68.4,58.2,30.10,SSW,196,6.0,11.0,70,0.00,,,0.00,VWS V14.01,2013-08-25 12:06:00,
2013-08-25 08:07:00,68.5,58.3,30.10,SSW,200,8.0,11.0,70,0.00,,,0.00,VWS V14.01,2013-08-25 12:07:00,
2013-08-25 08:08:00,68.6,58.4,30.10,South,190,6.0,11.0,70,0.00,,,0.00,VWS V14.01,2013-08-25 12:08:00,
2013-08-25 08:09:00,68.6,58.4,30.10,SSW,205,7.0,11.0,70,0.00,,,0.00,VWS V14.01,2013-08-25 12:09:00,
2013-08-25 08:10:00,68.6,58.4,30.10,South,172,0.0,11.0,70,0.00,,,0.00,VWS V14.01,2013-08-25 12:10:00,
2013-08-25 08:11:00,68.6,58.4,30.10,SSW,209,5.0,11.0,70,0.00,,,0.00,VWS V14.01,2013-08-25 12:11:00,
2013-08-25 08:12:00,68.7,58.5,30.10,SSE,157,3.0,11.0,70,0.00,,,0.00,VWS V14.01,2013-08-25 12:12:00,
2013-08-25 08:13:00,68.7,58.5,30.10,SW,215,11.0,11.0,70,0.00,,,0.00,VWS V14.01,2013-08-25 12:13:00,
2013-08-25 08:14:00,68.7,58.5,30.10,SW,218,11.0,11.0,70,0.00,,,0.00,VWS V14.01,2013-08-25 12:14:00,
2013-08-25 08:15:00,68.7,58.1,30.10,SW,232,16.0,16.0,69,0.00,,,0.00,VWS V14.01,2013-08-25 12:15:00,
2013-08-25 08:16:00,68.7,58.5,30.10,SSW,206,8.0,11.0,70,0.00,,,0.00,VWS V14.01,2013-08-25 12:16:00,
2013-08-25 08:17:00,68.7,58.5,30.10,SW,222,2.0,11.0,70,0.00,,,0.00,VWS V14.01,2013-08-25 12:17:00,
2013-08-25 08:18:00,68.8,58.2,30.10,SW,230,6.0,11.0,69,0.00,,,0.00,VWS V14.01,2013-08-25 12:18:00,
2013-08-25 08:19:00,68.8,58.6,30.10,South,184,2.0,11.0,70,0.00,,,0.00,VWS V14.01,2013-08-25 12:19:00,
2013-08-25 08:20:00,68.8,58.2,30.10,South,186,8.0,11.0,69,0.00,,,0.00,VWS V14.01,2013-08-25 12:20:00,
2013-08-25 08:21:00,68.8,58.2,30.10,SSE,163,0.0,11.0,69,0.00,,,0.00,VWS V14.01,2013-08-25 12:21:00,
2013-08-25 08:22:00,68.8,58.6,30.10,SSW,211,5.0,11.0,70,0.00,,,0.00,VWS V14.01,2013-08-25 12:22:00,
2013-08-25 08:23:00,68.9,58.3,30.10,SW,215,1.0,11.0,69,0.00,,,0.00,VWS V14.01,2013-08-25 12:23:00,
2013-08-25 08:24:00,68.8,58.6,30.10,South,171,0.0,11.0,70,0.00,,,0.00,VWS V14.01,2013-08-25 12:24:00,
2013-08-25 08:25:00,68.9,58.3,30.10,SSW,207,12.0,12.0,69,0.00,,,0.00,VWS V14.01,2013-08-25 12:25:00,
2013-08-25 08:26:00,68.9,58.3,30.10,SW,219,0.0,11.0,69,0.00,,,0.00,VWS V14.01,2013-08-25 12:26:00,
2013-08-25 08:27:00,68.9,59.1,30.10,SW,234,0.0,11.0,71,0.00,,,0.00,VWS V14.01,2013-08-25 12:27:00,
2013-08-25 08:28:00,68.9,58.7,30.10,SSW,205,10.0,11.0,70,0.00,,,0.00,VWS V14.01,2013-08-25 12:28:00,
2013-08-25 08:29:00,68.9,58.3,30.10,SW,221,11.0,11.0,69,0.00,,,0.00,VWS V14.01,2013-08-25 12:29:00,
2013-08-25 08:30:00,68.9,58.3,30.10,South,184,9.0,11.0,69,0.00,,,0.00,VWS V14.01,2013-08-25 12:30:00,
2013-08-25 08:31:00,68.9,58.7,30.10,SW,221,13.0,13.0,70,0.00,,,0.00,VWS V14.01,2013-08-25 12:31:00,
2013-08-25 08:32:00,68.9,58.3,30.10,SSW,195,7.0,11.0,69,0.00,,,0.00,VWS V14.01,2013-08-25 12:32:00,
2013-08-25 08:33:00,69.0,58.4,30.10,SE,142,9.0,11.0,69,0.00,,,0.00,VWS V14.01,2013-08-25 12:33:00,
2013-08-25 08:34:00,69.0,58.4,30.10,SW,229,6.0,11.0,69,0.00,,,0.00,VWS V14.01,2013-08-25 12:34:00,
2013-08-25 08:35:00,69.0,58.4,30.10,SSW,208,10.0,11.0,69,0.00,,,0.00,VWS V14.01,2013-08-25 12:35:00,
2013-08-25 08:36:00,69.1,58.5,30.10,SSW,196,5.0,11.0,69,0.00,,,0.00,VWS V14.01,2013-08-25 12:36:00,
2013-08-25 08:37:00,69.1,58.5,30.10,SSW,200,7.0,11.0,69,0.00,,,0.00,VWS V14.01,2013-08-25 12:37:00,
2013-08-25 08:38:00,69.2,58.6,30.10,SW,227,4.0,11.0,69,0.00,,,0.00,VWS V14.01,2013-08-25 12:38:00,
2013-08-25 08:39:00,69.2,59.0,30.10,South,169,0.0,11.0,70,0.00,,,0.00,VWS V14.01,2013-08-25 12:39:00,
2013-08-25 08:40:00,69.2,59.0,30.10,SSW,205,0.0,11.0,70,0.00,,,0.00,VWS V14.01,2013-08-25 12:40:00,
2013-08-25 08:41:00,69.2,59.0,30.10,SW,215,10.0,11.0,70,0.00,,,0.00,VWS V14.01,2013-08-25 12:41:00,
2013-08-25 08:44:00,69.3,58.7,30.10,SSE,167,3.0,11.0,69,0.00,,,0.00,VWS V14.01,2013-08-25 12:44:00,
2013-08-25 08:45:00,69.3,58.7,30.10,South,188,0.0,11.0,69,0.00,,,0.00,VWS V14.01,2013-08-25 12:45:00,
2013-08-25 08:46:00,69.3,58.7,30.10,SSW,205,0.0,11.0,69,0.00,,,0.00,VWS V14.01,2013-08-25 12:46:00,
2013-08-25 08:47:00,69.4,59.2,30.09,SSW,197,0.0,11.0,70,0.00,,,0.00,VWS V14.01,2013-08-25 12:47:00,
2013-08-25 08:48:00,69.4,58.8,30.10,WSW,240,11.0,11.0,69,0.00,,,0.00,VWS V14.01,2013-08-25 12:48:00,
2013-08-25 08:49:00,69.4,58.8,30.09,SSW,195,9.0,11.0,69,0.00,,,0.00,VWS V14.01,2013-08-25 12:49:00,
2013-08-25 08:50:00,69.4,58.8,30.09,SSW,205,13.0,13.0,69,0.00,,,0.00,VWS V14.01,2013-08-25 12:50:00,
2013-08-25 08:51:00,69.4,58.8,30.09,SW,229,8.0,11.0,69,0.00,,,0.00,VWS V14.01,2013-08-25 12:51:00,
2013-08-25 08:52:00,69.4,58.8,30.09,SW,225,5.0,11.0,69,0.00,,,0.00,VWS V14.01,2013-08-25 12:52:00,
2013-08-25 08:53:00,69.4,58.8,30.09,SSW,204,4.0,11.0,69,0.00,,,0.00,VWS V14.01,2013-08-25 12:53:00,
2013-08-25 08:54:00,69.5,58.9,30.09,SSW,194,0.0,11.0,69,0.00,,,0.00,VWS V14.01,2013-08-25 12:54:00,
2013-08-25 08:55:00,69.5,58.9,30.09,SSW,194,0.0,11.0,69,0.00,,,0.00,VWS V14.01,2013-08-25 12:55:00,
2013-08-25 08:56:00,69.5,58.9,30.09,SSW,208,0.0,11.0,69,0.00,,,0.00,VWS V14.01,2013-08-25 12:56:00,
2013-08-25 08:57:00,69.5,58.9,30.09,South,179,0.0,11.0,69,0.00,,,0.00,VWS V14.01,2013-08-25 12:57:00,
2013-08-25 08:58:00,69.5,58.9,30.09,South,169,0.0,11.0,69,0.00,,,0.00,VWS V14.01,2013-08-25 12:58:00,
2013-08-25 08:59:00,69.6,59.0,30.10,SW,221,4.0,11.0,69,0.00,,,0.00,VWS V14.01,2013-08-25 12:59:00,
2013-08-25 09:00:00,69.6,59.0,30.10,SW,221,4.0,11.0,69,0.00,,,0.00,VWS V14.01,2013-08-25 13:00:00,
2013-08-25 09:01:00,69.6,59.0,30.09,SSW,208,7.0,11.0,69,0.00,,,0.00,VWS V14.01,2013-08-25 13:01:00,
2013-08-25 09:03:00,69.7,58.7,30.09,SSW,202,10.0,11.0,68,0.00,,,0.00,VWS V14.01,2013-08-25 13:03:00,
2013-08-25 09:04:00,69.7,59.1,30.09,SW,223,5.0,11.0,69,0.00,,,0.00,VWS V14.01,2013-08-25 13:04:00,
2013-08-25 09:05:00,69.7,59.1,30.09,South,184,5.0,11.0,69,0.00,,,0.00,VWS V14.01,2013-08-25 13:05:00,
2013-08-25 09:06:00,69.8,59.2,30.09,SW,216,11.0,11.0,69,0.00,,,0.00,VWS V14.01,2013-08-25 13:06:00,
2013-08-25 09:07:00,69.8,58.8,30.09,South,190,0.0,11.0,68,0.00,,,0.00,VWS V14.01,2013-08-25 13:07:00,
2013-08-25 09:08:00,69.8,59.2,30.09,SSW,212,11.0,11.0,69,0.00,,,0.00,VWS V14.01,2013-08-25 13:08:00,
2013-08-25 09:09:00,69.9,58.9,30.09,SSW,207,14.0,14.0,68,0.00,,,0.00,VWS V14.01,2013-08-25 13:09:00,
2013-08-25 09:10:00,69.9,58.9,30.09,SSE,161,13.0,13.0,68,0.00,,,0.00,VWS V14.01,2013-08-25 13:10:00,
2013-08-25 09:11:00,69.9,59.3,30.09,SW,217,8.0,11.0,69,0.00,,,0.00,VWS V14.01,2013-08-25 13:11:00,
2013-08-25 09:12:00,69.9,59.3,30.09,South,189,7.0,11.0,69,0.00,,,0.00,VWS V14.01,2013-08-25 13:12:00,
2013-08-25 09:13:00,69.9,59.3,30.09,SSW,211,9.0,11.0,69,0.00,,,0.00,VWS V14.01,2013-08-25 13:13:00,
2013-08-25 09:14:00,70.1,59.5,30.08,SSW,196,10.0,11.0,69,0.00,,,0.00,VWS V14.01,2013-08-25 13:14:00,
2013-08-25 09:15:00,70.1,59.5,30.09,South,178,18.0,18.0,69,0.00,,,0.00,VWS V14.01,2013-08-25 13:15:00,
2013-08-25 09:16:00,70.1,59.1,30.08,South,189,9.0,11.0,68,0.00,,,0.00,VWS V14.01,2013-08-25 13:16:00,
2013-08-25 09:17:00,70.1,59.5,30.09,SW,223,10.0,11.0,69,0.00,,,0.00,VWS V14.01,2013-08-25 13:17:00,
2013-08-25 09:18:00,70.2,59.6,30.09,SW,231,10.0,11.0,69,0.00,,,0.00,VWS V14.01,2013-08-25 13:18:00,
2013-08-25 09:19:00,70.3,59.7,30.09,SW,223,5.0,11.0,69,0.00,,,0.00,VWS V14.01,2013-08-25 13:19:00,
2013-08-25 09:20:00,70.3,59.7,30.09,SSW,192,12.0,12.0,69,0.00,,,0.00,VWS V14.01,2013-08-25 13:20:00,
2013-08-25 09:21:00,70.3,59.2,30.09,South,184,13.0,13.0,68,0.00,,,0.00,VWS V14.01,2013-08-25 13:21:00,
2013-08-25 09:22:00,70.3,59.2,30.09,SSW,197,11.0,11.0,68,0.00,,,0.00,VWS V14.01,2013-08-25 13:22:00,
2013-08-25 09:23:00,70.4,59.8,30.09,SSW,212,0.0,11.0,69,0.00,,,0.00,VWS V14.01,2013-08-25 13:23:00,
2013-08-25 09:24:00,70.5,59.4,30.09,SW,217,0.0,11.0,68,0.00,,,0.00,VWS V14.01,2013-08-25 13:24:00,
2013-08-25 09:25:00,70.4,59.3,30.09,SW,221,0.0,11.0,68,0.00,,,0.00,VWS V14.01,2013-08-25 13:25:00,
2013-08-25 09:26:00,70.5,59.8,30.09,SW,215,0.0,11.0,69,0.00,,,0.00,VWS V14.01,2013-08-25 13:26:00,
2013-08-25 09:27:00,70.5,59.8,30.09,SSW,211,0.0,11.0,69,0.00,,,0.00,VWS V14.01,2013-08-25 13:27:00,
2013-08-25 09:28:00,70.5,59.8,30.09,SSW,211,6.0,11.0,69,0.00,,,0.00,VWS V14.01,2013-08-25 13:28:00,
2013-08-25 09:29:00,70.5,59.8,30.09,SSW,196,9.0,11.0,69,0.00,,,0.00,VWS V14.01,2013-08-25 13:29:00,
2013-08-25 09:30:00,70.5,59.8,30.09,SW,228,7.0,11.0,69,0.00,,,0.00,VWS V14.01,2013-08-25 13:30:00,
2013-08-25 09:31:00,70.5,59.8,30.09,WSW,238,0.0,11.0,69,0.00,,,0.00,VWS V14.01,2013-08-25 13:31:00,
2013-08-25 09:32:00,70.5,60.3,30.09,South,171,0.0,11.0,70,0.00,,,0.00,VWS V14.01,2013-08-25 13:32:00,
2013-08-25 09:33:00,70.5,60.3,30.09,SSW,209,0.0,11.0,70,0.00,,,0.00,VWS V14.01,2013-08-25 13:33:00,
2013-08-25 09:34:00,70.6,60.0,30.08,SSW,205,0.0,11.0,69,0.00,,,0.00,VWS V14.01,2013-08-25 13:34:00,
2013-08-25 09:35:00,70.6,60.3,30.08,South,186,9.0,11.0,70,0.00,,,0.00,VWS V14.01,2013-08-25 13:35:00,
2013-08-25 09:36:00,70.6,60.0,30.08,SSW,205,0.0,11.0,69,0.00,,,0.00,VWS V14.01,2013-08-25 13:36:00,
2013-08-25 09:37:00,70.6,60.3,30.08,SW,231,10.0,11.0,70,0.00,,,0.00,VWS V14.01,2013-08-25 13:37:00,
2013-08-25 09:38:00,70.6,60.3,30.08,SW,221,6.0,11.0,70,0.00,,,0.00,VWS V14.01,2013-08-25 13:38:00,
2013-08-25 09:39:00,70.7,60.5,30.08,SSW,197,8.0,11.0,70,0.00,,,0.00,VWS V14.01,2013-08-25 13:39:00,
2013-08-25 09:40:00,70.7,60.5,30.08,SSW,195,2.0,11.0,70,0.00,,,0.00,VWS V14.01,2013-08-25 13:40:00,
2013-08-25 09:41:00,70.8,60.5,30.08,SW,219,0.0,11.0,70,0.00,,,0.00,VWS V14.01,2013-08-25 13:41:00,
2013-08-25 09:42:00,70.8,60.5,30.08,SW,220,0.0,11.0,70,0.00,,,0.00,VWS V14.01,2013-08-25 13:42:00,
2013-08-25 09:43:00,70.8,60.5,30.08,SSW,209,7.0,11.0,70,0.00,,,0.00,VWS V14.01,2013-08-25 13:43:00,
2013-08-25 09:44:00,70.9,60.6,30.08,SSW,202,0.0,11.0,70,0.00,,,0.00,VWS V14.01,2013-08-25 13:44:00,
2013-08-25 09:45:00,71.0,60.7,30.08,SSW,200,0.0,11.0,70,0.00,,,0.00,VWS V14.01,2013-08-25 13:45:00,
2013-08-25 09:46:00,71.0,60.7,30.08,SW,220,0.0,11.0,70,0.00,,,0.00,VWS V14.01,2013-08-25 13:46:00,
2013-08-25 09:47:00,71.1,60.8,30.08,SW,215,14.0,14.0,70,0.00,,,0.00,VWS V14.01,2013-08-25 13:47:00,
2013-08-25 09:48:00,71.1,60.4,30.08,South,179,5.0,11.0,69,0.00,,,0.00,VWS V14.01,2013-08-25 13:48:00,
2013-08-25 09:49:00,71.2,60.5,30.08,South,180,0.0,11.0,69,0.00,,,0.00,VWS V14.01,2013-08-25 13:49:00,
2013-08-25 09:50:00,71.2,60.9,30.08,SW,223,0.0,11.0,70,0.00,,,0.00,VWS V14.01,2013-08-25 13:50:00,
2013-08-25 09:51:00,71.2,60.9,30.08,SW,214,4.0,11.0,70,0.00,,,0.00,VWS V14.01,2013-08-25 13:51:00,
2013-08-25 09:52:00,71.3,60.6,30.08,SSW,213,8.0,11.0,69,0.00,,,0.00,VWS V14.01,2013-08-25 13:52:00,
2013-08-25 09:53:00,71.3,60.6,30.08,SSW,203,17.0,17.0,69,0.00,,,0.00,VWS V14.01,2013-08-25 13:53:00,
2013-08-25 09:54:00,71.3,60.6,30.08,SE,146,5.0,11.0,69,0.00,,,0.00,VWS V14.01,2013-08-25 13:54:00,
2013-08-25 09:55:00,71.4,61.1,30.07,SW,223,7.0,11.0,70,0.00,,,0.00,VWS V14.01,2013-08-25 13:55:00,
2013-08-25 09:56:00,71.4,61.1,30.07,SW,223,7.0,11.0,70,0.00,,,0.00,VWS V14.01,2013-08-25 13:56:00,
2013-08-25 09:57:00,71.5,60.8,30.07,SW,228,3.0,11.0,69,0.00,,,0.00,VWS V14.01,2013-08-25 13:57:00,
2013-08-25 09:58:00,71.5,61.2,30.07,SSW,200,0.0,11.0,70,0.00,,,0.00,VWS V14.01,2013-08-25 13:58:00,
2013-08-25 09:59:00,71.5,61.2,30.07,SE,134,0.0,11.0,70,0.00,,,0.00,VWS V14.01,2013-08-25 13:59:00,
2013-08-25 10:00:00,71.6,61.3,30.07,SSW,210,5.0,11.0,70,0.00,,,0.00,VWS V14.01,2013-08-25 14:00:00,
2013-08-25 10:01:00,71.6,61.3,30.07,SSW,210,5.0,11.0,70,0.00,,,0.00,VWS V14.01,2013-08-25 14:01:00,
2013-08-25 10:02:00,71.6,61.3,30.07,SSW,201,8.0,11.0,70,0.00,,,0.00,VWS V14.01,2013-08-25 14:02:00,
2013-08-25 10:03:00,71.7,61.4,30.07,SSW,198,4.0,11.0,70,0.00,,,0.00,VWS V14.01,2013-08-25 14:03:00,
2013-08-25 10:04:00,71.7,61.0,30.07,SSW,202,8.0,11.0,69,0.00,,,0.00,VWS V14.01,2013-08-25 14:04:00,
2013-08-25 10:05:00,71.8,61.5,30.07,SSW,213,10.0,11.0,70,0.00,,,0.00,VWS V14.01,2013-08-25 14:05:00,
2013-08-25 10:06:00,71.8,61.5,30.07,SSW,213,10.0,11.0,70,0.00,,,0.00,VWS V14.01,2013-08-25 14:06:00,
2013-08-25 10:07:00,71.9,61.2,30.07,SW,218,5.0,11.0,69,0.00,,,0.00,VWS V14.01,2013-08-25 14:07:00,
2013-08-25 10:08:00,71.9,61.2,30.07,SSW,194,6.0,11.0,69,0.00,,,0.00,VWS V14.01,2013-08-25 14:08:00,
2013-08-25 10:09:00,71.9,61.2,30.07,SSW,205,4.0,11.0,69,0.00,,,0.00,VWS V14.01,2013-08-25 14:09:00,
2013-08-25 10:10:00,72.0,61.3,30.06,SSW,194,11.0,11.0,69,0.00,,,0.00,VWS V14.01,2013-08-25 14:10:00,
2013-08-25 10:11:00,72.0,61.3,30.06,SSW,194,11.0,11.0,69,0.00,,,0.00,VWS V14.01,2013-08-25 14:11:00,
2013-08-25 10:12:00,72.0,61.3,30.06,SSE,167,11.0,11.0,69,0.00,,,0.00,VWS V14.01,2013-08-25 14:12:00,
2013-08-25 10:13:00,72.1,61.4,30.06,SSW,196,6.0,11.0,69,0.00,,,0.00,VWS V14.01,2013-08-25 14:13:00,
2013-08-25 10:14:00,72.1,61.4,30.06,SW,227,0.0,11.0,69,0.00,,,0.00,VWS V14.01,2013-08-25 14:14:00,
2013-08-25 10:15:00,72.2,61.5,30.06,SSW,202,9.0,11.0,69,0.00,,,0.00,VWS V14.01,2013-08-25 14:15:00,
2013-08-25 10:16:00,72.2,61.5,30.06,SSW,202,9.0,11.0,69,0.00,,,0.00,VWS V14.01,2013-08-25 14:16:00,
2013-08-25 10:17:00,72.3,61.6,30.06,South,183,9.0,11.0,69,0.00,,,0.00,VWS V14.01,2013-08-25 14:17:00,
2013-08-25 10:18:00,72.4,61.7,30.06,SW,234,6.0,11.0,69,0.00,,,0.00,VWS V14.01,2013-08-25 14:18:00,
2013-08-25 10:19:00,72.5,61.8,30.06,SSW,194,8.0,11.0,69,0.00,,,0.00,VWS V14.01,2013-08-25 14:19:00,
2013-08-25 10:20:00,72.8,61.6,30.06,SW,227,7.0,11.0,68,0.00,,,0.00,VWS V14.01,2013-08-25 14:20:00,
2013-08-25 10:21:00,72.8,61.6,30.06,SW,227,7.0,11.0,68,0.00,,,0.00,VWS V14.01,2013-08-25 14:21:00,
2013-08-25 10:22:00,72.8,61.6,30.06,South,191,5.0,11.0,68,0.00,,,0.00,VWS V14.01,2013-08-25 14:22:00,
2013-08-25 10:23:00,72.9,61.7,30.06,SSW,196,12.0,12.0,68,0.00,,,0.00,VWS V14.01,2013-08-25 14:23:00,
2013-08-25 10:24:00,73.0,61.8,30.06,South,173,10.0,11.0,68,0.00,,,0.00,VWS V14.01,2013-08-25 14:24:00,
2013-08-25 10:25:00,73.2,62.0,30.06,SSW,213,3.0,11.0,68,0.00,,,0.00,VWS V14.01,2013-08-25 14:25:00,
2013-08-25 10:26:00,73.2,62.0,30.06,SSW,213,3.0,11.0,68,0.00,,,0.00,VWS V14.01,2013-08-25 14:26:00,
2013-08-25 10:27:00,73.4,62.2,30.06,SSE,161,14.0,14.0,68,0.00,,,0.00,VWS V14.01,2013-08-25 14:27:00,
2013-08-25 10:28:00,73.5,62.3,30.06,South,186,5.0,11.0,68,0.00,,,0.00,VWS V14.01,2013-08-25 14:28:00,
2013-08-25 10:29:00,73.7,62.9,30.06,SW,235,0.0,11.0,69,0.00,,,0.00,VWS V14.01,2013-08-25 14:29:00,
2013-08-25 10:30:00,74.0,62.8,30.06,SSW,212,12.0,12.0,68,0.00,,,0.00,VWS V14.01,2013-08-25 14:30:00,
2013-08-25 10:31:00,74.0,62.8,30.06,SSW,212,12.0,12.0,68,0.00,,,0.00,VWS V14.01,2013-08-25 14:31:00,
2013-08-25 10:32:00,74.2,63.0,30.06,WSW,241,9.0,11.0,68,0.00,,,0.00,VWS V14.01,2013-08-25 14:32:00,
2013-08-25 10:33:00,74.4,63.2,30.06,South,190,5.0,11.0,68,0.00,,,0.00,VWS V14.01,2013-08-25 14:33:00,
2013-08-25 10:34:00,74.6,63.3,30.06,WSW,248,0.0,11.0,68,0.00,,,0.00,VWS V14.01,2013-08-25 14:34:00,
2013-08-25 10:35:00,74.9,62.8,30.06,SSW,207,19.0,19.0,66,0.00,,,0.00,VWS V14.01,2013-08-25 14:35:00,
2013-08-25 10:36:00,74.9,62.8,30.06,SSW,207,19.0,19.0,66,0.00,,,0.00,VWS V14.01,2013-08-25 14:36:00,
2013-08-25 10:37:00,75.0,62.9,30.06,SSW,213,6.0,11.0,66,0.00,,,0.00,VWS V14.01,2013-08-25 14:37:00,
2013-08-25 10:38:00,75.1,63.4,30.06,SW,229,12.0,12.0,67,0.00,,,0.00,VWS V14.01,2013-08-25 14:38:00,
2013-08-25 10:39:00,75.2,63.1,30.06,SW,215,7.0,11.0,66,0.00,,,0.00,VWS V14.01,2013-08-25 14:39:00,
2013-08-25 10:40:00,75.3,63.2,30.06,SW,236,0.0,11.0,66,0.00,,,0.00,VWS V14.01,2013-08-25 14:40:00,
2013-08-25 10:41:00,75.3,63.2,30.06,SW,236,0.0,11.0,66,0.00,,,0.00,VWS V14.01,2013-08-25 14:41:00,
2013-08-25 10:42:00,75.3,63.2,30.06,South,190,6.0,11.0,66,0.00,,,0.00,VWS V14.01,2013-08-25 14:42:00,
2013-08-25 10:43:00,75.3,63.2,30.06,WSW,244,10.0,11.0,66,0.00,,,0.00,VWS V14.01,2013-08-25 14:43:00,
2013-08-25 10:44:00,75.3,63.2,30.06,SW,219,6.0,11.0,66,0.00,,,0.00,VWS V14.01,2013-08-25 14:44:00,
2013-08-25 10:45:00,75.4,63.3,30.06,SW,221,0.0,11.0,66,0.00,,,0.00,VWS V14.01,2013-08-25 14:45:00,
2013-08-25 10:46:00,75.4,63.3,30.06,SW,221,0.0,11.0,66,0.00,,,0.00,VWS V14.01,2013-08-25 14:46:00,
2013-08-25 10:47:00,75.5,63.8,30.06,SSW,204,5.0,11.0,67,0.00,,,0.00,VWS V14.01,2013-08-25 14:47:00,
2013-08-25 10:48:00,75.7,64.0,30.06,SW,217,12.0,12.0,67,0.00,,,0.00,VWS V14.01,2013-08-25 14:48:00,
2013-08-25 10:49:00,75.9,63.3,30.06,West,259,9.0,11.0,65,0.00,,,0.00,VWS V14.01,2013-08-25 14:49:00,
2013-08-25 10:50:00,76.1,63.9,30.06,South,188,12.0,12.0,66,0.00,,,0.00,VWS V14.01,2013-08-25 14:50:00,
2013-08-25 10:51:00,76.1,63.9,30.06,SW,221,7.0,11.0,66,0.00,,,0.00,VWS V14.01,2013-08-25 14:51:00,
2013-08-25 10:52:00,76.2,64.0,30.06,SSW,211,10.0,11.0,66,0.00,,,0.00,VWS V14.01,2013-08-25 14:52:00,
2013-08-25 10:53:00,76.2,64.0,30.06,SSW,204,5.0,11.0,66,0.00,,,0.00,VWS V14.01,2013-08-25 14:53:00,
2013-08-25 10:54:00,76.3,64.1,30.06,SSW,207,16.0,16.0,66,0.00,,,0.00,VWS V14.01,2013-08-25 14:54:00,
2013-08-25 10:55:00,76.2,63.6,30.06,SSE,153,10.0,11.0,65,0.00,,,0.00,VWS V14.01,2013-08-25 14:55:00,
2013-08-25 10:56:00,76.2,63.6,30.06,SSW,206,11.0,11.0,65,0.00,,,0.00,VWS V14.01,2013-08-25 14:56:00,
2013-08-25 10:58:00,76.1,63.5,30.06,SSW,205,14.0,14.0,65,0.00,,,0.00,VWS V14.01,2013-08-25 14:58:00,
2013-08-25 10:59:00,76.0,63.4,30.06,SSW,192,10.0,11.0,65,0.00,,,0.00,VWS V14.01,2013-08-25 14:59:00,
2013-08-25 11:00:00,75.8,63.6,30.06,SSW,205,9.0,11.0,66,0.00,,,0.00,VWS V14.01,2013-08-25 15:00:00,
2013-08-25 11:01:00,75.8,63.6,30.06,SW,223,8.0,11.0,66,0.00,,,0.00,VWS V14.01,2013-08-25 15:01:00,
2013-08-25 11:02:00,75.7,63.5,30.06,South,173,14.0,14.0,66,0.00,,,0.00,VWS V14.01,2013-08-25 15:02:00,
2013-08-25 11:03:00,75.6,63.5,30.06,SSW,213,8.0,11.0,66,0.00,,,0.00,VWS V14.01,2013-08-25 15:03:00,
2013-08-25 11:04:00,75.5,63.8,30.06,SSW,211,9.0,11.0,67,0.00,,,0.00,VWS V14.01,2013-08-25 15:04:00,
2013-08-25 11:05:00,75.5,63.8,30.06,South,188,9.0,11.0,67,0.00,,,0.00,VWS V14.01,2013-08-25 15:05:00,
2013-08-25 11:06:00,75.5,63.8,30.06,South,182,11.0,11.0,67,0.00,,,0.00,VWS V14.01,2013-08-25 15:06:00,
2013-08-25 11:07:00,75.5,63.8,30.06,South,176,8.0,11.0,67,0.00,,,0.00,VWS V14.01,2013-08-25 15:07:00,
2013-08-25 11:08:00,75.6,63.9,30.06,WSW,240,10.0,11.0,67,0.00,,,0.00,VWS V14.01,2013-08-25 15:08:00,
2013-08-25 11:09:00,75.6,64.3,30.06,SSW,193,6.0,11.0,68,0.00,,,0.00,VWS V14.01,2013-08-25 15:09:00,
2013-08-25 11:10:00,75.8,64.1,30.05,SSW,192,12.0,12.0,67,0.00,,,0.00,VWS V14.01,2013-08-25 15:10:00,
2013-08-25 11:11:00,75.7,64.0,30.06,South,176,4.0,11.0,67,0.00,,,0.00,VWS V14.01,2013-08-25 15:11:00,
2013-08-25 11:12:00,75.8,64.5,30.05,WSW,238,21.0,21.0,68,0.00,,,0.00,VWS V14.01,2013-08-25 15:12:00,
2013-08-25 11:13:00,75.9,64.2,30.06,South,173,16.0,16.0,67,0.00,,,0.00,VWS V14.01,2013-08-25 15:13:00,
2013-08-25 11:14:00,76.0,63.8,30.06,SW,217,11.0,11.0,66,0.00,,,0.00,VWS V14.01,2013-08-25 15:14:00,
2013-08-25 11:15:00,76.2,64.9,30.05,SSW,211,6.0,11.0,68,0.00,,,0.00,VWS V14.01,2013-08-25 15:15:00,
2013-08-25 11:16:00,76.2,64.9,30.05,South,190,3.0,11.0,68,0.00,,,0.00,VWS V14.01,2013-08-25 15:16:00,
2013-08-25 11:17:00,76.3,65.0,30.05,WSW,238,9.0,11.0,68,0.00,,,0.00,VWS V14.01,2013-08-25 15:17:00,
2013-08-25 11:18:00,76.4,64.6,30.05,SSW,199,7.0,11.0,67,0.00,,,0.00,VWS V14.01,2013-08-25 15:18:00,
2013-08-25 11:19:00,76.5,64.7,30.05,South,187,13.0,13.0,67,0.00,,,0.00,VWS V14.01,2013-08-25 15:19:00,
2013-08-25 11:20:00,76.7,64.9,30.05,SSW,200,17.0,17.0,67,0.00,,,0.00,VWS V14.01,2013-08-25 15:20:00,
2013-08-25 11:21:00,76.7,65.3,30.05,SSW,197,7.0,11.0,68,0.00,,,0.00,VWS V14.01,2013-08-25 15:21:00,
2013-08-25 11:22:00,76.8,64.6,30.05,SW,230,13.0,13.0,66,0.00,,,0.00,VWS V14.01,2013-08-25 15:22:00,
2013-08-25 11:23:00,76.8,65.0,30.05,SW,215,10.0,11.0,67,0.00,,,0.00,VWS V14.01,2013-08-25 15:23:00,
2013-08-25 11:24:00,76.9,64.7,30.05,WSW,241,9.0,11.0,66,0.00,,,0.00,VWS V14.01,2013-08-25 15:24:00,
2013-08-25 11:25:00,77.1,64.9,30.05,SW,235,0.0,11.0,66,0.00,,,0.00,VWS V14.01,2013-08-25 15:25:00,
2013-08-25 11:26:00,77.1,65.3,30.05,SSW,213,9.0,11.0,67,0.00,,,0.00,VWS V14.01,2013-08-25 15:26:00,
2013-08-25 11:27:00,77.1,65.3,30.05,SW,226,5.0,11.0,67,0.00,,,0.00,VWS V14.01,2013-08-25 15:27:00,
2013-08-25 11:28:00,77.1,64.9,30.05,SSW,194,14.0,14.0,66,0.00,,,0.00,VWS V14.01,2013-08-25 15:28:00,
2013-08-25 11:29:00,77.1,64.9,30.05,SSW,203,6.0,11.0,66,0.00,,,0.00,VWS V14.01,2013-08-25 15:29:00,
2013-08-25 11:30:00,77.1,64.9,30.05,SSW,205,5.0,11.0,66,0.00,,,0.00,VWS V14.01,2013-08-25 15:30:00,
2013-08-25 11:31:00,77.2,65.0,30.05,SW,225,4.0,11.0,66,0.00,,,0.00,VWS V14.01,2013-08-25 15:31:00,
2013-08-25 11:32:00,77.2,65.0,30.05,SW,218,16.0,16.0,66,0.00,,,0.00,VWS V14.01,2013-08-25 15:32:00,
2013-08-25 11:33:00,77.3,65.1,30.05,WSW,244,5.0,11.0,66,0.00,,,0.00,VWS V14.01,2013-08-25 15:33:00,
2013-08-25 11:34:00,77.3,65.1,30.05,WSW,251,8.0,11.0,66,0.00,,,0.00,VWS V14.01,2013-08-25 15:34:00,
2013-08-25 11:36:00,77.5,65.3,30.05,SW,232,7.0,11.0,66,0.00,,,0.00,VWS V14.01,2013-08-25 15:36:00,
2013-08-25 11:37:00,77.5,65.3,30.05,SW,215,2.0,11.0,66,0.00,,,0.00,VWS V14.01,2013-08-25 15:37:00,
2013-08-25 11:38:00,77.5,65.7,30.05,SSW,197,16.0,16.0,67,0.00,,,0.00,VWS V14.01,2013-08-25 15:38:00,
2013-08-25 11:39:00,77.5,65.3,30.05,South,175,10.0,11.0,66,0.00,,,0.00,VWS V14.01,2013-08-25 15:39:00,
2013-08-25 11:40:00,77.6,65.8,30.04,SW,217,15.0,15.0,67,0.00,,,0.00,VWS V14.01,2013-08-25 15:40:00,
2013-08-25 11:41:00,77.6,65.3,30.05,South,172,6.0,11.0,66,0.00,,,0.00,VWS V14.01,2013-08-25 15:41:00,
2013-08-25 11:42:00,77.6,65.3,30.05,South,172,6.0,11.0,66,0.00,,,0.00,VWS V14.01,2013-08-25 15:42:00,
2013-08-25 11:43:00,77.6,65.8,30.04,SSW,210,16.0,16.0,67,0.00,,,0.00,VWS V14.01,2013-08-25 15:43:00,
2013-08-25 11:44:00,77.7,65.4,30.04,SSW,194,6.0,11.0,66,0.00,,,0.00,VWS V14.01,2013-08-25 15:44:00,
2013-08-25 11:45:00,77.8,65.5,30.04,South,185,11.0,11.0,66,0.00,,,0.00,VWS V14.01,2013-08-25 15:45:00,
2013-08-25 11:46:00,78.0,65.7,30.04,SSW,211,14.0,14.0,66,0.00,,,0.00,VWS V14.01,2013-08-25 15:46:00,
2013-08-25 11:47:00,77.9,65.6,30.04,SSW,205,20.0,20.0,66,0.00,,,0.00,VWS V14.01,2013-08-25 15:47:00,
2013-08-25 11:48:00,78.0,65.7,30.04,SSW,211,10.0,11.0,66,0.00,,,0.00,VWS V14.01,2013-08-25 15:48:00,
2013-08-25 11:49:00,78.1,65.4,30.04,SSW,209,11.0,11.0,65,0.00,,,0.00,VWS V14.01,2013-08-25 15:49:00,
2013-08-25 11:50:00,78.2,65.9,30.04,SSE,167,9.0,11.0,66,0.00,,,0.00,VWS V14.01,2013-08-25 15:50:00,
2013-08-25 11:51:00,78.3,65.6,30.04,SW,232,17.0,17.0,65,0.00,,,0.00,VWS V14.01,2013-08-25 15:51:00,
2013-08-25 11:52:00,78.3,65.6,30.04,South,187,11.0,11.0,65,0.00,,,0.00,VWS V14.01,2013-08-25 15:52:00,
2013-08-25 11:53:00,78.4,66.1,30.04,SSW,196,2.0,11.0,66,0.00,,,0.00,VWS V14.01,2013-08-25 15:53:00,
2013-08-25 11:54:00,78.4,66.1,30.04,South,186,9.0,11.0,66,0.00,,,0.00,VWS V14.01,2013-08-25 15:54:00,
2013-08-25 11:55:00,78.5,66.6,30.04,SSW,200,8.0,11.0,67,0.00,,,0.00,VWS V14.01,2013-08-25 15:55:00,
2013-08-25 11:56:00,78.7,66.4,30.04,SSW,207,9.0,11.0,66,0.00,,,0.00,VWS V14.01,2013-08-25 15:56:00,
2013-08-25 11:57:00,78.7,66.4,30.04,SW,226,20.0,20.0,66,0.00,,,0.00,VWS V14.01,2013-08-25 15:57:00,
2013-08-25 11:58:00,78.8,66.1,30.04,SW,232,6.0,11.0,65,0.00,,,0.00,VWS V14.01,2013-08-25 15:58:00,
2013-08-25 11:59:00,78.9,66.2,30.04,SW,219,7.0,11.0,65,0.00,,,0.00,VWS V14.01,2013-08-25 15:59:00,
2013-08-25 12:00:00,78.9,66.2,30.03,SSW,209,8.0,11.0,65,0.00,,,0.00,VWS V14.01,2013-08-25 16:00:00,
2013-08-25 12:01:00,79.1,66.8,30.03,South,183,5.0,11.0,66,0.00,,,0.00,VWS V14.01,2013-08-25 16:01:00,
2013-08-25 12:02:00,79.0,65.8,30.03,WSW,242,10.0,11.0,64,0.00,,,0.00,VWS V14.01,2013-08-25 16:02:00,
2013-08-25 12:03:00,79.1,66.3,30.03,SSW,196,3.0,11.0,65,0.00,,,0.00,VWS V14.01,2013-08-25 16:03:00,
2013-08-25 12:04:00,79.1,66.3,30.03,WSW,237,16.0,16.0,65,0.00,,,0.00,VWS V14.01,2013-08-25 16:04:00,
2013-08-25 12:05:00,79.2,66.0,30.03,SSW,211,12.0,12.0,64,0.00,,,0.00,VWS V14.01,2013-08-25 16:05:00,
2013-08-25 12:06:00,79.1,65.9,30.03,SSW,205,6.0,11.0,64,0.00,,,0.00,VWS V14.01,2013-08-25 16:06:00,
2013-08-25 12:07:00,79.1,65.9,30.03,SW,217,14.0,14.0,64,0.00,,,0.00,VWS V14.01,2013-08-25 16:07:00,
2013-08-25 12:08:00,79.1,66.3,30.03,South,183,13.0,13.0,65,0.00,,,0.00,VWS V14.01,2013-08-25 16:08:00,
2013-08-25 12:09:00,79.1,66.3,30.03,SSW,211,15.0,15.0,65,0.00,,,0.00,VWS V14.01,2013-08-25 16:09:00,
2013-08-25 12:10:00,79.1,65.9,30.03,SW,217,13.0,13.0,64,0.00,,,0.00,VWS V14.01,2013-08-25 16:10:00,
2013-08-25 12:11:00,78.9,66.2,30.03,South,191,7.0,11.0,65,0.00,,,0.00,VWS V14.01,2013-08-25 16:11:00,
2013-08-25 12:12:00,79.0,65.8,30.03,SSW,213,8.0,11.0,64,0.00,,,0.00,VWS V14.01,2013-08-25 16:12:00,
2013-08-25 12:13:00,78.9,66.2,30.03,SSW,195,9.0,11.0,65,0.00,,,0.00,VWS V14.01,2013-08-25 16:13:00,
2013-08-25 12:14:00,79.0,66.7,30.03,SW,228,6.0,11.0,66,0.00,,,0.00,VWS V14.01,2013-08-25 16:14:00,
2013-08-25 12:15:00,79.0,66.2,30.03,WSW,257,8.0,11.0,65,0.00,,,0.00,VWS V14.01,2013-08-25 16:15:00,
2013-08-25 12:16:00,79.1,66.3,30.03,SW,223,9.0,11.0,65,0.00,,,0.00,VWS V14.01,2013-08-25 16:16:00,
2013-08-25 12:17:00,79.1,66.3,30.03,South,169,20.0,20.0,65,0.00,,,0.00,VWS V14.01,2013-08-25 16:17:00,
2013-08-25 12:18:00,79.1,66.3,30.03,South,171,11.0,11.0,65,0.00,,,0.00,VWS V14.01,2013-08-25 16:18:00,
2013-08-25 12:19:00,79.1,66.3,30.03,South,175,9.0,11.0,65,0.00,,,0.00,VWS V14.01,2013-08-25 16:19:00,
2013-08-25 12:20:00,79.2,66.4,30.03,SSW,202,9.0,11.0,65,0.00,,,0.00,VWS V14.01,2013-08-25 16:20:00,
2013-08-25 12:21:00,79.2,66.9,30.03,SW,224,11.0,11.0,66,0.00,,,0.00,VWS V14.01,2013-08-25 16:21:00,
2013-08-25 12:22:00,79.1,66.3,30.02,SSW,201,11.0,11.0,65,0.00,,,0.00,VWS V14.01,2013-08-25 16:22:00,
2013-08-25 12:23:00,79.1,66.3,30.02,South,185,4.0,11.0,65,0.00,,,0.00,VWS V14.01,2013-08-25 16:23:00,
2013-08-25 12:24:00,79.1,66.8,30.03,SW,235,13.0,13.0,66,0.00,,,0.00,VWS V14.01,2013-08-25 16:24:00,
2013-08-25 12:25:00,79.1,66.3,30.02,SW,236,2.0,11.0,65,0.00,,,0.00,VWS V14.01,2013-08-25 16:25:00,
2013-08-25 12:26:00,79.2,66.9,30.02,SW,226,7.0,11.0,66,0.00,,,0.00,VWS V14.01,2013-08-25 16:26:00,
2013-08-25 12:27:00,79.2,66.9,30.02,SSW,207,13.0,13.0,66,0.00,,,0.00,VWS V14.01,2013-08-25 16:27:00,
2013-08-25 12:29:00,79.2,66.4,30.02,SSW,207,11.0,11.0,65,0.00,,,0.00,VWS V14.01,2013-08-25 16:29:00,
2013-08-25 12:30:00,79.2,66.4,30.02,SW,221,9.0,11.0,65,0.00,,,0.00,VWS V14.01,2013-08-25 16:30:00,
2013-08-25 12:31:00,79.2,66.4,30.02,South,190,5.0,11.0,65,0.00,,,0.00,VWS V14.01,2013-08-25 16:31:00,
2013-08-25 12:32:00,79.3,66.5,30.02,SW,234,5.0,11.0,65,0.00,,,0.00,VWS V14.01,2013-08-25 16:32:00,
2013-08-25 12:33:00,79.3,66.5,30.02,SW,227,4.0,11.0,65,0.00,,,0.00,VWS V14.01,2013-08-25 16:33:00,
2013-08-25 12:34:00,79.3,66.1,30.02,South,179,8.0,11.0,64,0.00,,,0.00,VWS V14.01,2013-08-25 16:34:00,
2013-08-25 12:35:00,79.3,66.5,30.02,SSE,157,17.0,17.0,65,0.00,,,0.00,VWS V14.01,2013-08-25 16:35:00,
2013-08-25 12:36:00,79.4,66.6,30.02,SSW,211,4.0,11.0,65,0.00,,,0.00,VWS V14.01,2013-08-25 16:36:00,
2013-08-25 12:37:00,79.7,67.3,30.02,SSW,206,17.0,17.0,66,0.00,,,0.00,VWS V14.01,2013-08-25 16:37:00,
2013-08-25 12:38:00,79.7,67.3,30.02,SSW,206,17.0,17.0,66,0.00,,,0.00,VWS V14.01,2013-08-25 16:38:00,
2013-08-25 12:39:00,79.8,67.0,30.02,SSE,167,22.0,22.0,65,0.00,,,0.00,VWS V14.01,2013-08-25 16:39:00,
2013-08-25 12:40:00,80.0,67.2,30.02,SW,230,0.0,11.0,65,0.00,,,0.00,VWS V14.01,2013-08-25 16:40:00,
2013-08-25 12:41:00,80.1,67.3,30.02,South,184,9.0,11.0,65,0.00,,,0.00,VWS V14.01,2013-08-25 16:41:00,
2013-08-25 12:42:00,80.3,67.0,30.02,SSE,159,9.0,11.0,64,0.00,,,0.00,VWS V14.01,2013-08-25 16:42:00,
2013-08-25 12:43:00,80.3,67.0,30.02,SSE,159,9.0,11.0,64,0.00,,,0.00,VWS V14.01,2013-08-25 16:43:00,
2013-08-25 12:44:00,80.4,67.1,30.02,South,185,0.0,11.0,64,0.00,,,0.00,VWS V14.01,2013-08-25 16:44:00,
2013-08-25 12:45:00,80.5,67.7,30.02,SW,222,5.0,11.0,65,0.00,,,0.00,VWS V14.01,2013-08-25 16:45:00,
2013-08-25 12:46:00,80.6,67.3,30.02,SW,215,8.0,11.0,64,0.00,,,0.00,VWS V14.01,2013-08-25 16:46:00,
2013-08-25 12:47:00,80.7,66.9,30.02,SSW,192,16.0,16.0,63,0.00,,,0.00,VWS V14.01,2013-08-25 16:47:00,
2013-08-25 12:48:00,80.7,66.9,30.02,SSW,192,16.0,16.0,63,0.00,,,0.00,VWS V14.01,2013-08-25 16:48:00,
2013-08-25 12:49:00,80.8,67.0,30.02,SW,217,7.0,11.0,63,0.00,,,0.00,VWS V14.01,2013-08-25 16:49:00,
2013-08-25 12:50:00,80.8,67.0,30.02,South,180,20.0,20.0,63,0.00,,,0.00,VWS V14.01,2013-08-25 16:50:00,
2013-08-25 12:51:00,80.8,67.0,30.02,SW,214,13.0,13.0,63,0.00,,,0.00,VWS V14.01,2013-08-25 16:51:00,
2013-08-25 12:52:00,80.9,68.0,30.02,SSW,210,10.0,11.0,65,0.00,,,0.00,VWS V14.01,2013-08-25 16:52:00,
2013-08-25 12:53:00,80.9,68.0,30.02,SSW,210,10.0,11.0,65,0.00,,,0.00,VWS V14.01,2013-08-25 16:53:00,
2013-08-25 12:54:00,81.0,67.7,30.02,SSE,167,9.0,11.0,64,0.00,,,0.00,VWS V14.01,2013-08-25 16:54:00,
2013-08-25 12:55:00,81.0,67.7,30.02,SSW,209,7.0,11.0,64,0.00,,,0.00,VWS V14.01,2013-08-25 16:55:00,
2013-08-25 12:56:00,81.1,67.3,30.02,SSW,206,15.0,15.0,63,0.00,,,0.00,VWS V14.01,2013-08-25 16:56:00,
2013-08-25 12:57:00,81.0,67.2,30.02,SSW,205,4.0,11.0,63,0.00,,,0.00,VWS V14.01,2013-08-25 16:57:00,
2013-08-25 12:58:00,81.0,67.2,30.02,SSW,205,4.0,11.0,63,0.00,,,0.00,VWS V14.01,2013-08-25 16:58:00,
2013-08-25 12:59:00,81.0,67.7,30.01,SSW,211,12.0,12.0,64,0.00,,,0.00,VWS V14.01,2013-08-25 16:59:00,
2013-08-25 13:00:00,81.0,67.7,30.01,South,173,9.0,11.0,64,0.00,,,0.00,VWS V14.01,2013-08-25 17:00:00,
2013-08-25 13:01:00,81.0,67.2,30.01,SSW,204,15.0,15.0,63,0.00,,,0.00,VWS V14.01,2013-08-25 17:01:00,
2013-08-25 13:02:00,81.2,67.9,30.01,SW,234,6.0,11.0,64,0.00,,,0.00,VWS V14.01,2013-08-25 17:02:00,
2013-08-25 13:03:00,81.2,67.9,30.01,SW,234,6.0,11.0,64,0.00,,,0.00,VWS V14.01,2013-08-25 17:03:00,
2013-08-25 13:04:00,81.2,67.4,30.01,SSW,200,0.0,11.0,63,0.00,,,0.00,VWS V14.01,2013-08-25 17:04:00,
2013-08-25 13:05:00,81.4,68.5,30.01,SSW,208,15.0,15.0,65,0.00,,,0.00,VWS V14.01,2013-08-25 17:05:00,
2013-08-25 13:06:00,81.5,68.2,30.01,SSW,200,4.0,11.0,64,0.00,,,0.00,VWS V14.01,2013-08-25 17:06:00,
2013-08-25 13:07:00,81.8,68.0,30.01,SW,214,8.0,11.0,63,0.00,,,0.00,VWS V14.01,2013-08-25 17:07:00,
2013-08-25 13:08:00,81.7,67.9,30.01,SW,215,9.0,11.0,63,0.00,,,0.00,VWS V14.01,2013-08-25 17:08:00,
2013-08-25 13:09:00,81.9,68.5,30.01,SSE,150,11.0,11.0,64,0.00,,,0.00,VWS V14.01,2013-08-25 17:09:00,
2013-08-25 13:10:00,82.0,68.2,30.01,SSW,210,16.0,16.0,63,0.00,,,0.00,VWS V14.01,2013-08-25 17:10:00,
2013-08-25 13:11:00,82.0,67.7,30.01,SSW,207,12.0,12.0,62,0.00,,,0.00,VWS V14.01,2013-08-25 17:11:00,
2013-08-25 13:12:00,82.2,68.4,30.01,SSW,196,11.0,11.0,63,0.00,,,0.00,VWS V14.01,2013-08-25 17:12:00,
2013-08-25 13:13:00,82.2,68.4,30.01,SSW,196,11.0,11.0,63,0.00,,,0.00,VWS V14.01,2013-08-25 17:13:00,
2013-08-25 13:15:00,82.3,68.5,30.01,SW,225,7.0,11.0,63,0.00,,,0.00,VWS V14.01,2013-08-25 17:15:00,
2013-08-25 13:16:00,82.4,68.1,30.01,SW,221,10.0,11.0,62,0.00,,,0.00,VWS V14.01,2013-08-25 17:16:00,
2013-08-25 13:17:00,82.5,68.2,30.01,SW,229,13.0,13.0,62,0.00,,,0.00,VWS V14.01,2013-08-25 17:17:00,
2013-08-25 13:18:00,82.5,68.2,30.01,SSW,207,13.0,13.0,62,0.00,,,0.00,VWS V14.01,2013-08-25 17:18:00,
2013-08-25 13:19:00,82.5,68.6,30.01,SSW,213,4.0,11.0,63,0.00,,,0.00,VWS V14.01,2013-08-25 17:19:00,
2013-08-25 13:20:00,82.5,68.2,30.01,SSW,207,0.0,11.0,62,0.00,,,0.00,VWS V14.01,2013-08-25 17:20:00,
2013-08-25 13:21:00,82.6,69.2,30.01,SW,236,18.0,18.0,64,0.00,,,0.00,VWS V14.01,2013-08-25 17:21:00,
2013-08-25 13:22:00,82.7,68.4,30.01,South,182,10.0,11.0,62,0.00,,,0.00,VWS V14.01,2013-08-25 17:22:00,
2013-08-25 13:23:00,82.7,68.4,30.01,SW,219,7.0,11.0,62,0.00,,,0.00,VWS V14.01,2013-08-25 17:23:00,
2013-08-25 13:24:00,82.8,68.5,30.01,SSW,195,6.0,11.0,62,0.00,,,0.00,VWS V14.01,2013-08-25 17:24:00,
2013-08-25 13:25:00,82.9,69.0,30.01,South,188,10.0,11.0,63,0.00,,,0.00,VWS V14.01,2013-08-25 17:25:00,
2013-08-25 13:26:00,82.9,68.6,30.00,South,179,9.0,11.0,62,0.00,,,0.00,VWS V14.01,2013-08-25 17:26:00,
2013-08-25 13:27:00,83.1,68.7,30.00,SSW,209,6.0,11.0,62,0.00,,,0.00,VWS V14.01,2013-08-25 17:27:00,
2013-08-25 13:28:00,83.1,68.7,30.00,SSW,198,9.0,11.0,62,0.00,,,0.00,VWS V14.01,2013-08-25 17:28:00,
2013-08-25 13:29:00,83.2,68.8,30.00,SW,222,8.0,11.0,62,0.00,,,0.00,VWS V14.01,2013-08-25 17:29:00,
2013-08-25 13:30:00,83.3,68.9,30.00,SSW,196,9.0,11.0,62,0.00,,,0.00,VWS V14.01,2013-08-25 17:30:00,
2013-08-25 13:31:00,83.4,69.5,30.00,SW,222,8.0,11.0,63,0.00,,,0.00,VWS V14.01,2013-08-25 17:31:00,
2013-08-25 13:32:00,83.7,69.3,30.00,SW,219,5.0,11.0,62,0.00,,,0.00,VWS V14.01,2013-08-25 17:32:00,
2013-08-25 13:33:00,83.6,69.2,30.00,SSW,196,8.0,11.0,62,0.00,,,0.00,VWS V14.01,2013-08-25 17:33:00,
2013-08-25 13:34:00,83.8,69.4,30.00,SW,227,12.0,12.0,62,0.00,,,0.00,VWS V14.01,2013-08-25 17:34:00,
2013-08-25 13:35:00,83.8,69.4,30.00,SW,218,0.0,11.0,62,0.00,,,0.00,VWS V14.01,2013-08-25 17:35:00,
2013-08-25 13:36:00,84.0,69.6,30.00,SSW,202,22.0,22.0,62,0.00,,,0.00,VWS V14.01,2013-08-25 17:36:00,
2013-08-25 13:37:00,84.1,68.7,30.00,South,186,9.0,11.0,60,0.00,,,0.00,VWS V14.01,2013-08-25 17:37:00,
2013-08-25 13:38:00,84.1,68.7,30.00,South,171,11.0,11.0,60,0.00,,,0.00,VWS V14.01,2013-08-25 17:38:00,
2013-08-25 13:39:00,84.1,68.7,30.00,SW,234,9.0,11.0,60,0.00,,,0.00,VWS V14.01,2013-08-25 17:39:00,
2013-08-25 13:40:00,84.1,68.7,30.00,SW,236,5.0,11.0,60,0.00,,,0.00,VWS V14.01,2013-08-25 17:40:00,
2013-08-25 13:41:00,84.1,69.2,30.00,SW,223,9.0,11.0,61,0.00,,,0.00,VWS V14.01,2013-08-25 17:41:00,
2013-08-25 13:42:00,84.3,69.4,30.00,SSE,165,4.0,11.0,61,0.00,,,0.00,VWS V14.01,2013-08-25 17:42:00,
2013-08-25 13:43:00,84.3,69.4,30.00,SSW,196,8.0,11.0,61,0.00,,,0.00,VWS V14.01,2013-08-25 17:43:00,
2013-08-25 13:44:00,84.4,70.0,30.00,WSW,237,4.0,11.0,62,0.00,,,0.00,VWS V14.01,2013-08-25 17:44:00,
2013-08-25 13:45:00,84.5,70.5,30.00,SSW,203,11.0,11.0,63,0.00,,,0.00,VWS V14.01,2013-08-25 17:45:00,
2013-08-25 13:46:00,84.6,69.7,30.00,SSW,207,7.0,11.0,61,0.00,,,0.00,VWS V14.01,2013-08-25 17:46:00,
2013-08-25 13:47:00,84.9,70.0,30.00,SSW,202,9.0,11.0,61,0.00,,,0.00,VWS V14.01,2013-08-25 17:47:00,
2013-08-25 13:48:00,84.8,69.9,30.00,WSW,240,5.0,11.0,61,0.00,,,0.00,VWS V14.01,2013-08-25 17:48:00,
2013-08-25 13:49:00,85.0,70.1,30.00,SW,223,5.0,11.0,61,0.00,,,0.00,VWS V14.01,2013-08-25 17:49:00,
2013-08-25 13:50:00,85.1,70.2,29.99,SE,133,9.0,11.0,61,0.00,,,0.00,VWS V14.01,2013-08-25 17:50:00,
2013-08-25 13:51:00,85.2,69.8,29.99,SSW,198,6.0,11.0,60,0.00,,,0.00,VWS V14.01,2013-08-25 17:51:00,
2013-08-25 13:52:00,85.5,69.6,30.00,South,188,6.0,11.0,59,0.00,,,0.00,VWS V14.01,2013-08-25 17:52:00,
2013-08-25 13:53:00,85.5,69.6,29.99,SSW,213,9.0,11.0,59,0.00,,,0.00,VWS V14.01,2013-08-25 17:53:00,
2013-08-25 13:54:00,85.6,70.1,30.00,SSW,212,6.0,11.0,60,0.00,,,0.00,VWS V14.01,2013-08-25 17:54:00,
2013-08-25 13:55:00,85.6,70.6,29.99,SSW,192,14.0,14.0,61,0.00,,,0.00,VWS V14.01,2013-08-25 17:55:00,
2013-08-25 13:56:00,85.7,69.7,29.99,SSW,207,11.0,11.0,59,0.00,,,0.00,VWS V14.01,2013-08-25 17:56:00,
2013-08-25 13:57:00,85.8,69.3,29.99,SW,219,8.0,11.0,58,0.00,,,0.00,VWS V14.01,2013-08-25 17:57:00,
2013-08-25 13:58:00,85.9,70.4,29.99,SSW,205,12.0,12.0,60,0.00,,,0.00,VWS V14.01,2013-08-25 17:58:00,
2013-08-25 13:59:00,85.9,70.4,29.99,SSW,194,15.0,15.0,60,0.00,,,0.00,VWS V14.01,2013-08-25 17:59:00,
2013-08-25 14:00:00,85.9,69.9,29.99,SSW,212,4.0,11.0,59,0.00,,,0.00,VWS V14.01,2013-08-25 18:00:00,
2013-08-25 14:01:00,86.0,70.0,29.99,SSW,203,7.0,11.0,59,0.00,,,0.00,VWS V14.01,2013-08-25 18:01:00,
2013-08-25 14:02:00,86.0,69.5,29.99,SW,221,11.0,11.0,58,0.00,,,0.00,VWS V14.01,2013-08-25 18:02:00,
2013-08-25 14:03:00,86.1,70.6,29.99,South,181,8.0,11.0,60,0.00,,,0.00,VWS V14.01,2013-08-25 18:03:00,
2013-08-25 14:04:00,86.1,70.6,29.99,SSW,192,9.0,11.0,60,0.00,,,0.00,VWS V14.01,2013-08-25 18:04:00,
2013-08-25 14:05:00,86.1,70.1,29.99,SSW,195,9.0,11.0,59,0.00,,,0.00,VWS V14.01,2013-08-25 18:05:00,
2013-08-25 14:06:00,86.2,69.7,29.99,South,186,13.0,13.0,58,0.00,,,0.00,VWS V14.01,2013-08-25 18:06:00,
2013-08-25 14:07:00,86.3,69.8,29.99,South,169,9.0,11.0,58,0.00,,,0.00,VWS V14.01,2013-08-25 18:07:00,
2013-08-25 14:08:00,86.3,69.8,29.99,SSW,194,11.0,11.0,58,0.00,,,0.00,VWS V14.01,2013-08-25 18:08:00,
2013-08-25 14:09:00,86.3,69.8,29.99,SW,229,9.0,11.0,58,0.00,,,0.00,VWS V14.01,2013-08-25 18:09:00,
2013-08-25 14:10:00,86.4,69.9,29.99,SSW,200,8.0,11.0,58,0.00,,,0.00,VWS V14.01,2013-08-25 18:10:00,
2013-08-25 14:11:00,86.4,69.9,29.99,SW,215,7.0,11.0,58,0.00,,,0.00,VWS V14.01,2013-08-25 18:11:00,
2013-08-25 14:12:00,86.5,70.0,29.99,SSW,193,22.0,22.0,58,0.00,,,0.00,VWS V14.01,2013-08-25 18:12:00,
2013-08-25 14:13:00,86.6,70.1,29.99,SW,226,0.0,11.0,58,0.00,,,0.00,VWS V14.01,2013-08-25 18:13:00,
2013-08-25 14:14:00,86.6,70.1,29.99,SW,226,0.0,11.0,58,0.00,,,0.00,VWS V14.01,2013-08-25 18:14:00,
2013-08-25 14:15:00,86.6,70.1,29.99,SW,218,10.0,11.0,58,0.00,,,0.00,VWS V14.01,2013-08-25 18:15:00,
2013-08-25 14:16:00,86.7,69.7,29.99,SSW,194,10.0,11.0,57,0.00,,,0.00,VWS V14.01,2013-08-25 18:16:00,
2013-08-25 14:17:00,86.8,70.3,29.99,SSW,207,4.0,11.0,58,0.00,,,0.00,VWS V14.01,2013-08-25 18:17:00,
2013-08-25 14:18:00,86.8,70.3,29.99,SSW,209,13.0,13.0,58,0.00,,,0.00,VWS V14.01,2013-08-25 18:18:00,
2013-08-25 14:19:00,86.8,70.3,29.99,SW,217,11.0,11.0,58,0.00,,,0.00,VWS V14.01,2013-08-25 18:19:00,
2013-08-25 14:20:00,86.8,69.8,29.99,SSW,195,3.0,11.0,57,0.00,,,0.00,VWS V14.01,2013-08-25 18:20:00,
2013-08-25 14:21:00,86.9,70.4,29.99,SW,217,2.0,11.0,58,0.00,,,0.00,VWS V14.01,2013-08-25 18:21:00,
2013-08-25 14:22:00,87.0,70.4,29.99,SW,215,11.0,11.0,58,0.00,,,0.00,VWS V14.01,2013-08-25 18:22:00,
2013-08-25 14:23:00,87.1,70.0,29.99,South,173,0.0,11.0,57,0.00,,,0.00,VWS V14.01,2013-08-25 18:23:00,
2013-08-25 14:24:00,87.1,70.0,29.99,SSW,199,0.0,11.0,57,0.00,,,0.00,VWS V14.01,2013-08-25 18:24:00,
2013-08-25 14:25:00,87.2,70.6,29.99,SW,224,0.0,11.0,58,0.00,,,0.00,VWS V14.01,2013-08-25 18:25:00,
2013-08-25 14:26:00,87.3,71.2,29.99,South,188,7.0,11.0,59,0.00,,,0.00,VWS V14.01,2013-08-25 18:26:00,
2013-08-25 14:27:00,87.5,70.9,29.99,SW,220,8.0,11.0,58,0.00,,,0.00,VWS V14.01,2013-08-25 18:27:00,
2013-08-25 14:28:00,87.8,70.7,29.99,SSW,198,12.0,12.0,57,0.00,,,0.00,VWS V14.01,2013-08-25 18:28:00,
2013-08-25 14:29:00,87.7,70.6,29.99,SSW,208,13.0,13.0,57,0.00,,,0.00,VWS V14.01,2013-08-25 18:29:00,
2013-08-25 14:30:00,87.8,70.2,29.99,SW,234,5.0,11.0,56,0.00,,,0.00,VWS V14.01,2013-08-25 18:30:00,
2013-08-25 14:31:00,87.8,70.2,29.99,SSW,207,8.0,11.0,56,0.00,,,0.00,VWS V14.01,2013-08-25 18:31:00,
2013-08-25 14:32:00,87.7,69.5,29.99,South,188,4.0,11.0,55,0.00,,,0.00,VWS V14.01,2013-08-25 18:32:00,
2013-08-25 14:33:00,87.5,69.9,29.99,SW,224,11.0,11.0,56,0.00,,,0.00,VWS V14.01,2013-08-25 18:33:00,
2013-08-25 14:34:00,87.6,70.0,29.99,SSW,192,14.0,14.0,56,0.00,,,0.00,VWS V14.01,2013-08-25 18:34:00,
2013-08-25 14:35:00,87.5,69.9,29.99,SSE,148,10.0,11.0,56,0.00,,,0.00,VWS V14.01,2013-08-25 18:35:00,
2013-08-25 14:36:00,87.3,69.7,29.98,South,191,6.0,11.0,56,0.00,,,0.00,VWS V14.01,2013-08-25 18:36:00,
2013-08-25 14:37:00,87.2,70.1,29.99,SSW,210,10.0,11.0,57,0.00,,,0.00,VWS V14.01,2013-08-25 18:37:00,
2013-08-25 14:38:00,87.0,69.9,29.98,South,178,5.0,11.0,57,0.00,,,0.00,VWS V14.01,2013-08-25 18:38:00,
2013-08-25 14:39:00,87.0,70.4,29.98,SW,235,10.0,11.0,58,0.00,,,0.00,VWS V14.01,2013-08-25 18:39:00,
2013-08-25 14:40:00,87.0,69.9,29.98,SSW,206,5.0,11.0,57,0.00,,,0.00,VWS V14.01,2013-08-25 18:40:00,
2013-08-25 14:41:00,86.9,69.8,29.98,SSW,205,0.0,11.0,57,0.00,,,0.00,VWS V14.01,2013-08-25 18:41:00,
2013-08-25 14:42:00,87.0,70.4,29.98,SW,225,11.0,11.0,58,0.00,,,0.00,VWS V14.01,2013-08-25 18:42:00,
2013-08-25 14:43:00,87.1,70.5,29.99,South,175,11.0,11.0,58,0.00,,,0.00,VWS V14.01,2013-08-25 18:43:00,
2013-08-25 14:44:00,87.1,70.5,29.98,SW,223,12.0,12.0,58,0.00,,,0.00,VWS V14.01,2013-08-25 18:44:00,
2013-08-25 14:45:00,87.1,70.5,29.99,SSE,164,12.0,12.0,58,0.00,,,0.00,VWS V14.01,2013-08-25 18:45:00,
2013-08-25 14:46:00,87.2,70.6,29.98,SW,217,3.0,11.0,58,0.00,,,0.00,VWS V14.01,2013-08-25 18:46:00,
2013-08-25 14:47:00,87.3,70.7,29.98,SSW,207,8.0,11.0,58,0.00,,,0.00,VWS V14.01,2013-08-25 18:47:00,
2013-08-25 14:48:00,87.4,70.3,29.98,SW,236,12.0,12.0,57,0.00,,,0.00,VWS V14.01,2013-08-25 18:48:00,
2013-08-25 14:49:00,87.5,71.4,29.98,SSW,200,3.0,11.0,59,0.00,,,0.00,VWS V14.01,2013-08-25 18:49:00,
2013-08-25 14:50:00,87.6,71.5,29.98,SW,232,3.0,11.0,59,0.00,,,0.00,VWS V14.01,2013-08-25 18:50:00,
2013-08-25 14:51:00,87.7,71.6,29.98,SW,236,0.0,11.0,59,0.00,,,0.00,VWS V14.01,2013-08-25 18:51:00,
2013-08-25 14:52:00,87.9,71.8,29.98,SSW,203,22.0,22.0,59,0.00,,,0.00,VWS V14.01,2013-08-25 18:52:00,
2013-08-25 14:53:00,88.1,71.5,29.99,SW,214,12.0,12.0,58,0.00,,,0.00,VWS V14.01,2013-08-25 18:53:00,
2013-08-25 14:54:00,88.2,70.5,29.98,SSW,194,10.0,11.0,56,0.00,,,0.00,VWS V14.01,2013-08-25 18:54:00,
2013-08-25 14:55:00,88.2,70.5,29.98,South,189,7.0,11.0,56,0.00,,,0.00,VWS V14.01,2013-08-25 18:55:00,
2013-08-25 14:56:00,88.3,70.6,29.98,SW,232,0.0,11.0,56,0.00,,,0.00,VWS V14.01,2013-08-25 18:56:00,
2013-08-25 14:57:00,88.4,71.2,29.98,SW,224,0.0,11.0,57,0.00,,,0.00,VWS V14.01,2013-08-25 18:57:00,
2013-08-25 14:58:00,88.5,71.3,29.98,SSE,168,5.0,11.0,57,0.00,,,0.00,VWS V14.01,2013-08-25 18:58:00,
2013-08-25 14:59:00,88.7,71.0,29.98,SW,221,0.0,11.0,56,0.00,,,0.00,VWS V14.01,2013-08-25 18:59:00,
2013-08-25 15:00:00,88.7,71.0,29.98,SSW,199,0.0,11.0,56,0.00,,,0.00,VWS V14.01,2013-08-25 19:00:00,
2013-08-25 15:01:00,88.8,72.6,29.98,WSW,254,7.0,11.0,59,0.00,,,0.00,VWS V14.01,2013-08-25 19:01:00,
2013-08-25 15:02:00,88.9,71.2,29.98,SSW,213,12.0,12.0,56,0.00,,,0.00,VWS V14.01,2013-08-25 19:02:00,
2013-08-25 15:03:00,89.0,70.8,29.98,SSW,196,7.0,11.0,55,0.00,,,0.00,VWS V14.01,2013-08-25 19:03:00,
2013-08-25 15:04:00,89.1,70.8,29.97,SW,227,6.0,11.0,55,0.00,,,0.00,VWS V14.01,2013-08-25 19:04:00,
2013-08-25 15:05:00,89.1,70.8,29.97,SW,227,6.0,11.0,55,0.00,,,0.00,VWS V14.01,2013-08-25 19:05:00,
2013-08-25 15:06:00,89.0,70.8,29.97,SW,215,0.0,11.0,55,0.00,,,0.00,VWS V14.01,2013-08-25 19:06:00,
2013-08-25 15:07:00,89.1,71.4,29.97,SSW,203,14.0,14.0,56,0.00,,,0.00,VWS V14.01,2013-08-25 19:07:00,
2013-08-25 15:08:00,89.1,70.3,29.97,South,188,7.0,11.0,54,0.00,,,0.00,VWS V14.01,2013-08-25 19:08:00,
2013-08-25 15:09:00,89.1,71.4,29.97,SSW,202,8.0,11.0,56,0.00,,,0.00,VWS V14.01,2013-08-25 19:09:00,
2013-08-25 15:10:00,89.1,71.4,29.97,SSW,202,8.0,11.0,56,0.00,,,0.00,VWS V14.01,2013-08-25 19:10:00,
2013-08-25 15:11:00,89.1,70.3,29.97,SW,223,12.0,12.0,54,0.00,,,0.00,VWS V14.01,2013-08-25 19:11:00,
2013-08-25 15:12:00,89.1,70.3,29.97,SSW,196,8.0,11.0,54,0.00,,,0.00,VWS V14.01,2013-08-25 19:12:00,
2013-08-25 15:13:00,89.0,70.8,29.97,WSW,250,11.0,11.0,55,0.00,,,0.00,VWS V14.01,2013-08-25 19:13:00,
2013-08-25 15:14:00,89.0,71.3,29.97,WSW,244,9.0,11.0,56,0.00,,,0.00,VWS V14.01,2013-08-25 19:14:00,
2013-08-25 15:15:00,89.0,71.3,29.97,WSW,244,9.0,11.0,56,0.00,,,0.00,VWS V14.01,2013-08-25 19:15:00,
2013-08-25 15:16:00,89.0,70.8,29.97,SSW,197,2.0,11.0,55,0.00,,,0.00,VWS V14.01,2013-08-25 19:16:00,
2013-08-25 15:17:00,89.0,71.3,29.96,SW,218,9.0,11.0,56,0.00,,,0.00,VWS V14.01,2013-08-25 19:17:00,
2013-08-25 15:18:00,89.0,71.3,29.96,SW,235,7.0,11.0,56,0.00,,,0.00,VWS V14.01,2013-08-25 19:18:00,
2013-08-25 15:19:00,89.1,70.8,29.96,SSW,209,0.0,11.0,55,0.00,,,0.00,VWS V14.01,2013-08-25 19:19:00,
2013-08-25 15:20:00,89.1,70.8,29.96,SSW,209,0.0,11.0,55,0.00,,,0.00,VWS V14.01,2013-08-25 19:20:00,
2013-08-25 15:21:00,89.1,71.9,29.96,SW,227,4.0,11.0,57,0.00,,,0.00,VWS V14.01,2013-08-25 19:21:00,
2013-08-25 15:22:00,89.2,71.5,29.96,SW,217,10.0,11.0,56,0.00,,,0.00,VWS V14.01,2013-08-25 19:22:00,
2013-08-25 15:23:00,89.3,71.0,29.96,SSW,192,0.0,11.0,55,0.00,,,0.00,VWS V14.01,2013-08-25 19:23:00,
2013-08-25 15:24:00,89.3,71.0,29.96,SW,215,14.0,14.0,55,0.00,,,0.00,VWS V14.01,2013-08-25 19:24:00,
2013-08-25 15:25:00,89.3,71.0,29.96,SW,215,14.0,14.0,55,0.00,,,0.00,VWS V14.01,2013-08-25 19:25:00,
2013-08-25 15:26:00,89.4,70.6,29.96,SSW,209,4.0,11.0,54,0.00,,,0.00,VWS V14.01,2013-08-25 19:26:00,
2013-08-25 15:27:00,89.5,71.7,29.96,SW,224,3.0,11.0,56,0.00,,,0.00,VWS V14.01,2013-08-25 19:27:00,
2013-08-25 15:28:00,89.5,71.7,29.96,South,182,0.0,11.0,56,0.00,,,0.00,VWS V14.01,2013-08-25 19:28:00,
2013-08-25 15:29:00,89.6,70.8,29.96,SW,230,9.0,11.0,54,0.00,,,0.00,VWS V14.01,2013-08-25 19:29:00,
2013-08-25 15:30:00,89.6,70.8,29.96,SW,230,9.0,11.0,54,0.00,,,0.00,VWS V14.01,2013-08-25 19:30:00,
2013-08-25 15:31:00,89.6,71.8,29.96,WSW,241,10.0,11.0,56,0.00,,,0.00,VWS V14.01,2013-08-25 19:31:00,
2013-08-25 15:32:00,89.6,70.8,29.96,WSW,238,17.0,17.0,54,0.00,,,0.00,VWS V14.01,2013-08-25 19:32:00,
2013-08-25 15:33:00,89.6,70.8,29.96,SW,222,5.0,11.0,54,0.00,,,0.00,VWS V14.01,2013-08-25 19:33:00,
2013-08-25 15:34:00,89.6,70.2,29.96,South,190,13.0,13.0,53,0.00,,,0.00,VWS V14.01,2013-08-25 19:34:00,
2013-08-25 15:35:00,89.6,70.2,29.96,South,190,13.0,13.0,53,0.00,,,0.00,VWS V14.01,2013-08-25 19:35:00,
2013-08-25 15:36:00,89.5,70.7,29.96,WSW,242,14.0,14.0,54,0.00,,,0.00,VWS V14.01,2013-08-25 19:36:00,
2013-08-25 15:37:00,89.5,70.7,29.96,SSW,205,7.0,11.0,54,0.00,,,0.00,VWS V14.01,2013-08-25 19:37:00,
2013-08-25 15:38:00,89.4,70.0,29.96,SSW,195,8.0,11.0,53,0.00,,,0.00,VWS V14.01,2013-08-25 19:38:00,
2013-08-25 15:39:00,89.3,71.0,29.96,SW,223,8.0,11.0,55,0.00,,,0.00,VWS V14.01,2013-08-25 19:39:00,
2013-08-25 15:40:00,89.3,71.0,29.96,SSW,206,7.0,11.0,55,0.00,,,0.00,VWS V14.01,2013-08-25 19:40:00,
2013-08-25 15:42:00,89.3,70.5,29.96,SW,234,2.0,11.0,54,0.00,,,0.00,VWS V14.01,2013-08-25 19:42:00,
2013-08-25 15:43:00,89.3,70.5,29.96,WSW,250,1.0,11.0,54,0.00,,,0.00,VWS V14.01,2013-08-25 19:43:00,
2013-08-25 15:44:00,89.3,70.5,29.96,SSW,200,6.0,11.0,54,0.00,,,0.00,VWS V14.01,2013-08-25 19:44:00,
2013-08-25 15:45:00,89.3,70.5,29.96,SSW,200,6.0,11.0,54,0.00,,,0.00,VWS V14.01,2013-08-25 19:45:00,
2013-08-25 15:46:00,89.3,71.0,29.96,SW,219,4.0,11.0,55,0.00,,,0.00,VWS V14.01,2013-08-25 19:46:00,
2013-08-25 15:47:00,89.4,71.1,29.96,SW,225,8.0,11.0,55,0.00,,,0.00,VWS V14.01,2013-08-25 19:47:00,
2013-08-25 15:49:00,89.5,70.7,29.96,SW,214,6.0,11.0,54,0.00,,,0.00,VWS V14.01,2013-08-25 19:49:00,
2013-08-25 15:51:00,89.5,70.1,29.96,SW,219,10.0,11.0,53,0.00,,,0.00,VWS V14.01,2013-08-25 19:51:00,
2013-08-25 15:53:00,89.4,70.6,29.95,SW,219,6.0,11.0,54,0.00,,,0.00,VWS V14.01,2013-08-25 19:53:00,
2013-08-25 15:54:00,89.2,70.9,29.95,WSW,241,13.0,13.0,55,0.00,,,0.00,VWS V14.01,2013-08-25 19:54:00,
2013-08-25 15:56:00,89.0,70.2,29.96,SW,214,8.0,11.0,54,0.00,,,0.00,VWS V14.01,2013-08-25 19:56:00,
2013-08-25 15:57:00,88.9,70.7,29.95,South,186,9.0,11.0,55,0.00,,,0.00,VWS V14.01,2013-08-25 19:57:00,
2013-08-25 15:58:00,88.8,70.6,29.96,WSW,257,11.0,11.0,55,0.00,,,0.00,VWS V14.01,2013-08-25 19:58:00,
2013-08-25 15:59:00,88.7,71.5,29.96,SSW,196,2.0,11.0,57,0.00,,,0.00,VWS V14.01,2013-08-25 19:59:00,
2013-08-25 16:00:00,88.7,71.5,29.96,SSW,196,2.0,11.0,57,0.00,,,0.00,VWS V14.01,2013-08-25 20:00:00,
2013-08-25 16:01:00,88.8,71.1,29.96,SW,215,9.0,11.0,56,0.00,,,0.00,VWS V14.01,2013-08-25 20:01:00,
2013-08-25 16:04:00,88.6,70.4,29.95,SW,216,10.0,11.0,55,0.00,,,0.00,VWS V14.01,2013-08-25 20:04:00,
2013-08-25 16:05:00,88.6,70.4,29.95,SW,228,10.0,11.0,55,0.00,,,0.00,VWS V14.01,2013-08-25 20:05:00,
2013-08-25 16:06:00,88.5,70.3,29.95,SW,223,5.0,11.0,55,0.00,,,0.00,VWS V14.01,2013-08-25 20:06:00,
2013-08-25 16:07:00,88.4,70.7,29.95,SW,221,9.0,11.0,56,0.00,,,0.00,VWS V14.01,2013-08-25 20:07:00,
2013-08-25 16:08:00,88.3,70.6,29.95,SW,231,6.0,11.0,56,0.00,,,0.00,VWS V14.01,2013-08-25 20:08:00,
2013-08-25 16:09:00,88.2,70.5,29.95,WSW,244,14.0,14.0,56,0.00,,,0.00,VWS V14.01,2013-08-25 20:09:00,
2013-08-25 16:10:00,88.2,70.5,29.95,WSW,244,14.0,14.0,56,0.00,,,0.00,VWS V14.01,2013-08-25 20:10:00,
2013-08-25 16:11:00,88.1,70.4,29.95,WSW,248,1.0,11.0,56,0.00,,,0.00,VWS V14.01,2013-08-25 20:11:00,
2013-08-25 16:12:00,88.1,71.5,29.96,South,186,12.0,12.0,58,0.00,,,0.00,VWS V14.01,2013-08-25 20:12:00,
2013-08-25 16:13:00,88.0,70.9,29.96,SSW,209,0.0,11.0,57,0.00,,,0.00,VWS V14.01,2013-08-25 20:13:00,
2013-08-25 16:14:00,88.0,70.3,29.96,South,187,6.0,11.0,56,0.00,,,0.00,VWS V14.01,2013-08-25 20:14:00,
2013-08-25 16:15:00,88.0,70.3,29.96,SSE,155,6.0,11.0,56,0.00,,,0.00,VWS V14.01,2013-08-25 20:15:00,
2013-08-25 16:16:00,88.0,70.3,29.96,WSW,246,17.0,17.0,56,0.00,,,0.00,VWS V14.01,2013-08-25 20:16:00,
2013-08-25 16:17:00,87.9,70.3,29.96,WSW,253,4.0,11.0,56,0.00,,,0.00,VWS V14.01,2013-08-25 20:17:00,
2013-08-25 16:18:00,87.9,70.3,29.96,South,171,9.0,11.0,56,0.00,,,0.00,VWS V14.01,2013-08-25 20:18:00,
2013-08-25 16:19:00,87.7,71.1,29.95,SW,228,4.0,11.0,58,0.00,,,0.00,VWS V14.01,2013-08-25 20:19:00,
2013-08-25 16:20:00,87.7,70.6,29.96,West,264,8.0,11.0,57,0.00,,,0.00,VWS V14.01,2013-08-25 20:20:00,
2013-08-25 16:21:00,87.7,71.1,29.95,SSW,205,4.0,11.0,58,0.00,,,0.00,VWS V14.01,2013-08-25 20:21:00,
2013-08-25 16:22:00,87.7,71.1,29.95,South,189,8.0,11.0,58,0.00,,,0.00,VWS V14.01,2013-08-25 20:22:00,
2013-08-25 16:23:00,87.7,70.6,29.95,SSW,212,0.0,11.0,57,0.00,,,0.00,VWS V14.01,2013-08-25 20:23:00,
2013-08-25 16:24:00,87.7,70.6,29.95,SW,223,15.0,15.0,57,0.00,,,0.00,VWS V14.01,2013-08-25 20:24:00,
2013-08-25 16:25:00,87.7,70.6,29.95,SSW,192,9.0,11.0,57,0.00,,,0.00,VWS V14.01,2013-08-25 20:25:00,
2013-08-25 16:26:00,87.6,70.0,29.95,SW,216,8.0,11.0,56,0.00,,,0.00,VWS V14.01,2013-08-25 20:26:00,
2013-08-25 16:27:00,87.5,70.4,29.95,West,273,4.0,11.0,57,0.00,,,0.00,VWS V14.01,2013-08-25 20:27:00,
2013-08-25 16:28:00,87.5,70.4,29.95,SSW,197,9.0,11.0,57,0.00,,,0.00,VWS V14.01,2013-08-25 20:28:00,
2013-08-25 16:29:00,87.3,70.2,29.95,SW,217,4.0,11.0,57,0.00,,,0.00,VWS V14.01,2013-08-25 20:29:00,
2013-08-25 16:30:00,87.4,70.8,29.95,SW,236,9.0,11.0,58,0.00,,,0.00,VWS V14.01,2013-08-25 20:30:00,
2013-08-25 16:31:00,87.3,70.2,29.95,SW,217,10.0,11.0,57,0.00,,,0.00,VWS V14.01,2013-08-25 20:31:00,
2013-08-25 16:33:00,87.3,70.2,29.95,SSW,207,6.0,11.0,57,0.00,,,0.00,VWS V14.01,2013-08-25 20:33:00,
2013-08-25 16:34:00,87.3,70.2,29.95,SW,236,14.0,14.0,57,0.00,,,0.00,VWS V14.01,2013-08-25 20:34:00,
2013-08-25 16:35:00,87.3,70.2,29.95,West,270,7.0,11.0,57,0.00,,,0.00,VWS V14.01,2013-08-25 20:35:00,
2013-08-25 16:36:00,87.2,70.1,29.95,SSW,212,8.0,11.0,57,0.00,,,0.00,VWS V14.01,2013-08-25 20:36:00,
2013-08-25 16:37:00,87.2,70.1,29.95,SW,217,7.0,11.0,57,0.00,,,0.00,VWS V14.01,2013-08-25 20:37:00,
2013-08-25 16:38:00,87.1,70.0,29.95,SW,222,6.0,11.0,57,0.00,,,0.00,VWS V14.01,2013-08-25 20:38:00,
2013-08-25 16:39:00,87.0,70.4,29.95,SW,219,5.0,11.0,58,0.00,,,0.00,VWS V14.01,2013-08-25 20:39:00,
2013-08-25 16:40:00,87.0,69.9,29.95,WSW,240,4.0,11.0,57,0.00,,,0.00,VWS V14.01,2013-08-25 20:40:00,
2013-08-25 16:41:00,86.9,70.4,29.95,SW,219,15.0,15.0,58,0.00,,,0.00,VWS V14.01,2013-08-25 20:41:00,
2013-08-25 16:42:00,86.9,69.8,29.95,SW,225,9.0,11.0,57,0.00,,,0.00,VWS V14.01,2013-08-25 20:42:00,
2013-08-25 16:43:00,86.9,69.8,29.95,SW,229,5.0,11.0,57,0.00,,,0.00,VWS V14.01,2013-08-25 20:43:00,
2013-08-25 16:44:00,86.8,70.3,29.95,SSW,209,1.0,11.0,58,0.00,,,0.00,VWS V14.01,2013-08-25 20:44:00,
2013-08-25 16:45:00,86.9,70.4,29.95,WSW,246,7.0,11.0,58,0.00,,,0.00,VWS V14.01,2013-08-25 20:45:00,
2013-08-25 16:46:00,86.9,70.4,29.95,SSW,195,7.0,11.0,58,0.00,,,0.00,VWS V14.01,2013-08-25 20:46:00,
2013-08-25 16:47:00,86.9,70.4,29.95,SW,219,4.0,11.0,58,0.00,,,0.00,VWS V14.01,2013-08-25 20:47:00,
2013-08-25 16:48:00,87.0,70.9,29.95,SW,217,5.0,11.0,59,0.00,,,0.00,VWS V14.01,2013-08-25 20:48:00,
2013-08-25 16:49:00,87.0,70.9,29.95,SW,234,6.0,11.0,59,0.00,,,0.00,VWS V14.01,2013-08-25 20:49:00,
2013-08-25 16:50:00,87.1,70.5,29.95,SW,229,5.0,11.0,58,0.00,,,0.00,VWS V14.01,2013-08-25 20:50:00,
2013-08-25 16:51:00,87.1,70.5,29.95,SW,221,7.0,11.0,58,0.00,,,0.00,VWS V14.01,2013-08-25 20:51:00,
2013-08-25 16:52:00,87.1,70.0,29.95,SW,224,7.0,11.0,57,0.00,,,0.00,VWS V14.01,2013-08-25 20:52:00,
2013-08-25 16:53:00,87.1,70.0,29.95,SSW,203,7.0,11.0,57,0.00,,,0.00,VWS V14.01,2013-08-25 20:53:00,
2013-08-25 16:54:00,87.2,70.1,29.95,SW,219,8.0,11.0,57,0.00,,,0.00,VWS V14.01,2013-08-25 20:54:00,
2013-08-25 16:55:00,87.1,70.0,29.95,SSW,202,8.0,11.0,57,0.00,,,0.00,VWS V14.01,2013-08-25 20:55:00,
2013-08-25 16:56:00,87.2,70.1,29.95,SW,230,9.0,11.0,57,0.00,,,0.00,VWS V14.01,2013-08-25 20:56:00,
2013-08-25 16:57:00,87.1,69.5,29.95,WSW,242,16.0,16.0,56,0.00,,,0.00,VWS V14.01,2013-08-25 20:57:00,
2013-08-25 17:00:00,87.1,70.0,29.95,SW,230,3.0,11.0,57,0.00,,,0.00,VWS V14.01,2013-08-25 21:00:00,
2013-08-25 17:01:00,87.1,70.0,29.95,WSW,244,4.0,11.0,57,0.00,,,0.00,VWS V14.01,2013-08-25 21:01:00,
2013-08-25 17:02:00,87.1,70.0,29.95,SW,232,6.0,11.0,57,0.00,,,0.00,VWS V14.01,2013-08-25 21:02:00,
2013-08-25 17:03:00,87.2,70.6,29.95,SW,235,13.0,13.0,58,0.00,,,0.00,VWS V14.01,2013-08-25 21:03:00,
2013-08-25 17:04:00,87.2,70.1,29.95,WSW,252,9.0,11.0,57,0.00,,,0.00,VWS V14.01,2013-08-25 21:04:00,
2013-08-25 17:05:00,87.2,70.1,29.95,SW,227,7.0,11.0,57,0.00,,,0.00,VWS V14.01,2013-08-25 21:05:00,
2013-08-25 17:06:00,87.2,70.1,29.95,SW,227,7.0,11.0,57,0.00,,,0.00,VWS V14.01,2013-08-25 21:06:00,
2013-08-25 17:07:00,87.2,70.1,29.95,SW,222,10.0,11.0,57,0.00,,,0.00,VWS V14.01,2013-08-25 21:07:00,
2013-08-25 17:08:00,87.1,70.0,29.95,SSW,210,0.0,11.0,57,0.00,,,0.00,VWS V14.01,2013-08-25 21:08:00,
2013-08-25 17:09:00,87.0,69.9,29.95,SW,215,7.0,11.0,57,0.00,,,0.00,VWS V14.01,2013-08-25 21:09:00,
2013-08-25 17:10:00,86.8,69.8,29.95,SW,225,7.0,11.0,57,0.00,,,0.00,VWS V14.01,2013-08-25 21:10:00,
2013-08-25 17:11:00,86.8,69.8,29.95,SW,225,7.0,11.0,57,0.00,,,0.00,VWS V14.01,2013-08-25 21:11:00,
2013-08-25 17:12:00,86.7,69.7,29.95,SSW,213,5.0,11.0,57,0.00,,,0.00,VWS V14.01,2013-08-25 21:12:00,
2013-08-25 17:13:00,86.6,70.1,29.95,SW,224,5.0,11.0,58,0.00,,,0.00,VWS V14.01,2013-08-25 21:13:00,
2013-08-25 17:14:00,86.5,69.5,29.95,SSW,211,14.0,14.0,57,0.00,,,0.00,VWS V14.01,2013-08-25 21:14:00,
2013-08-25 17:15:00,86.2,69.7,29.95,SW,221,7.0,11.0,58,0.00,,,0.00,VWS V14.01,2013-08-25 21:15:00,
2013-08-25 17:16:00,86.2,69.7,29.95,SW,221,7.0,11.0,58,0.00,,,0.00,VWS V14.01,2013-08-25 21:16:00,
2013-08-25 17:17:00,86.1,69.6,29.95,SSW,209,12.0,12.0,58,0.00,,,0.00,VWS V14.01,2013-08-25 21:17:00,
2013-08-25 17:18:00,85.9,68.9,29.95,SSW,194,6.0,11.0,57,0.00,,,0.00,VWS V14.01,2013-08-25 21:18:00,
2013-08-25 17:19:00,85.8,69.3,29.95,WSW,244,8.0,11.0,58,0.00,,,0.00,VWS V14.01,2013-08-25 21:19:00,
2013-08-25 17:20:00,85.6,69.1,29.95,SW,229,9.0,11.0,58,0.00,,,0.00,VWS V14.01,2013-08-25 21:20:00,
2013-08-25 17:21:00,85.6,69.1,29.95,SW,229,9.0,11.0,58,0.00,,,0.00,VWS V14.01,2013-08-25 21:21:00,
2013-08-25 17:22:00,85.5,69.1,29.95,WSW,249,8.0,11.0,58,0.00,,,0.00,VWS V14.01,2013-08-25 21:22:00,
2013-08-25 17:23:00,85.4,69.0,29.95,SW,231,5.0,11.0,58,0.00,,,0.00,VWS V14.01,2013-08-25 21:23:00,
2013-08-25 17:24:00,85.4,69.0,29.95,SW,234,5.0,11.0,58,0.00,,,0.00,VWS V14.01,2013-08-25 21:24:00,
2013-08-25 17:25:00,85.3,69.4,29.94,WSW,238,3.0,11.0,59,0.00,,,0.00,VWS V14.01,2013-08-25 21:25:00,
2013-08-25 17:26:00,85.3,69.4,29.94,WSW,238,3.0,11.0,59,0.00,,,0.00,VWS V14.01,2013-08-25 21:26:00,
2013-08-25 17:27:00,85.2,69.3,29.94,SW,225,16.0,16.0,59,0.00,,,0.00,VWS V14.01,2013-08-25 21:27:00,
2013-08-25 17:28:00,85.1,68.7,29.95,South,182,7.0,11.0,58,0.00,,,0.00,VWS V14.01,2013-08-25 21:28:00,
2013-08-25 17:29:00,85.0,69.1,29.94,South,187,12.0,12.0,59,0.00,,,0.00,VWS V14.01,2013-08-25 21:29:00,
2013-08-25 17:30:00,84.8,68.4,29.95,SW,233,5.0,11.0,58,0.00,,,0.00,VWS V14.01,2013-08-25 21:30:00,
2013-08-25 17:31:00,84.8,68.4,29.95,SW,233,5.0,11.0,58,0.00,,,0.00,VWS V14.01,2013-08-25 21:31:00,
2013-08-25 17:32:00,84.7,69.3,29.95,South,182,8.0,11.0,60,0.00,,,0.00,VWS V14.01,2013-08-25 21:32:00,
2013-08-25 17:33:00,84.6,68.7,29.95,SW,214,11.0,11.0,59,0.00,,,0.00,VWS V14.01,2013-08-25 21:33:00,
2013-08-25 17:34:00,84.5,69.1,29.94,SSW,212,8.0,11.0,60,0.00,,,0.00,VWS V14.01,2013-08-25 21:34:00,
2013-08-25 17:35:00,84.3,68.4,29.94,SW,228,13.0,13.0,59,0.00,,,0.00,VWS V14.01,2013-08-25 21:35:00,
2013-08-25 17:36:00,84.3,68.4,29.94,SW,228,13.0,13.0,59,0.00,,,0.00,VWS V14.01,2013-08-25 21:36:00,
2013-08-25 17:37:00,84.2,68.3,29.94,South,170,14.0,14.0,59,0.00,,,0.00,VWS V14.01,2013-08-25 21:37:00,
2013-08-25 17:38:00,84.2,68.8,29.94,SSW,196,13.0,13.0,60,0.00,,,0.00,VWS V14.01,2013-08-25 21:38:00,
2013-08-25 17:39:00,84.1,68.7,29.94,SSW,207,6.0,11.0,60,0.00,,,0.00,VWS V14.01,2013-08-25 21:39:00,
2013-08-25 17:40:00,84.0,68.6,29.94,SSW,212,13.0,13.0,60,0.00,,,0.00,VWS V14.01,2013-08-25 21:40:00,
2013-08-25 17:41:00,84.0,68.6,29.94,SSW,212,13.0,13.0,60,0.00,,,0.00,VWS V14.01,2013-08-25 21:41:00,
2013-08-25 17:42:00,83.9,68.5,29.94,SW,220,14.0,14.0,60,0.00,,,0.00,VWS V14.01,2013-08-25 21:42:00,
2013-08-25 17:43:00,83.9,68.5,29.94,SW,221,11.0,11.0,60,0.00,,,0.00,VWS V14.01,2013-08-25 21:43:00,
2013-08-25 17:44:00,83.8,68.4,29.94,South,179,11.0,11.0,60,0.00,,,0.00,VWS V14.01,2013-08-25 21:44:00,
2013-08-25 17:45:00,83.8,68.9,29.94,SW,229,5.0,11.0,61,0.00,,,0.00,VWS V14.01,2013-08-25 21:45:00,
2013-08-25 17:46:00,83.8,68.9,29.94,SSW,211,5.0,11.0,61,0.00,,,0.00,VWS V14.01,2013-08-25 21:46:00,
2013-08-25 17:47:00,83.7,68.8,29.94,SW,225,19.0,19.0,61,0.00,,,0.00,VWS V14.01,2013-08-25 21:47:00,
2013-08-25 17:48:00,83.7,68.8,29.94,SW,225,6.0,11.0,61,0.00,,,0.00,VWS V14.01,2013-08-25 21:48:00,
2013-08-25 17:49:00,83.7,68.8,29.94,WSW,245,10.0,11.0,61,0.00,,,0.00,VWS V14.01,2013-08-25 21:49:00,
2013-08-25 17:50:00,83.7,68.8,29.94,SW,235,0.0,11.0,61,0.00,,,0.00,VWS V14.01,2013-08-25 21:50:00,
2013-08-25 17:51:00,83.7,68.8,29.94,WSW,248,12.0,12.0,61,0.00,,,0.00,VWS V14.01,2013-08-25 21:51:00,
2013-08-25 17:52:00,83.7,69.3,29.94,SW,222,14.0,14.0,62,0.00,,,0.00,VWS V14.01,2013-08-25 21:52:00,
2013-08-25 17:53:00,83.7,68.8,29.94,SW,215,6.0,11.0,61,0.00,,,0.00,VWS V14.01,2013-08-25 21:53:00,
2013-08-25 17:54:00,83.8,68.9,29.94,SW,218,7.0,11.0,61,0.00,,,0.00,VWS V14.01,2013-08-25 21:54:00,
2013-08-25 17:55:00,83.9,69.0,29.94,SW,227,8.0,11.0,61,0.00,,,0.00,VWS V14.01,2013-08-25 21:55:00,
2013-08-25 17:56:00,83.9,69.0,29.94,SSW,203,7.0,11.0,61,0.00,,,0.00,VWS V14.01,2013-08-25 21:56:00,
2013-08-25 17:57:00,83.9,69.0,29.94,SW,231,10.0,11.0,61,0.00,,,0.00,VWS V14.01,2013-08-25 21:57:00,
2013-08-25 17:58:00,84.0,68.6,29.94,SW,215,12.0,12.0,60,0.00,,,0.00,VWS V14.01,2013-08-25 21:58:00,
2013-08-25 17:59:00,84.0,68.6,29.94,SW,225,12.0,12.0,60,0.00,,,0.00,VWS V14.01,2013-08-25 21:59:00,
2013-08-25 18:00:00,84.1,68.7,29.94,SW,216,13.0,13.0,60,0.00,,,0.00,VWS V14.01,2013-08-25 22:00:00,
2013-08-25 18:01:00,84.0,68.6,29.94,South,190,10.0,11.0,60,0.00,,,0.00,VWS V14.01,2013-08-25 22:01:00,
2013-08-25 18:02:00,84.1,68.7,29.94,SW,225,7.0,11.0,60,0.00,,,0.00,VWS V14.01,2013-08-25 22:02:00,
2013-08-25 18:03:00,84.1,68.7,29.94,SW,215,6.0,11.0,60,0.00,,,0.00,VWS V14.01,2013-08-25 22:03:00,
2013-08-25 18:04:00,84.0,68.6,29.94,SSW,196,7.0,11.0,60,0.00,,,0.00,VWS V14.01,2013-08-25 22:04:00,
2013-08-25 18:05:00,84.0,68.6,29.94,South,186,15.0,15.0,60,0.00,,,0.00,VWS V14.01,2013-08-25 22:05:00,
2013-08-25 18:06:00,84.0,68.6,29.94,SSW,209,12.0,12.0,60,0.00,,,0.00,VWS V14.01,2013-08-25 22:06:00,
2013-08-25 18:08:00,83.9,68.5,29.94,SW,224,7.0,11.0,60,0.00,,,0.00,VWS V14.01,2013-08-25 22:08:00,
2013-08-25 18:09:00,83.9,68.5,29.94,SW,215,6.0,11.0,60,0.00,,,0.00,VWS V14.01,2013-08-25 22:09:00,
2013-08-25 18:10:00,83.9,68.5,29.94,SW,230,12.0,12.0,60,0.00,,,0.00,VWS V14.01,2013-08-25 22:10:00,
2013-08-25 18:11:00,83.9,68.5,29.94,SSW,199,11.0,11.0,60,0.00,,,0.00,VWS V14.01,2013-08-25 22:11:00,
2013-08-25 18:12:00,83.9,68.5,29.94,SW,230,9.0,11.0,60,0.00,,,0.00,VWS V14.01,2013-08-25 22:12:00,
2013-08-25 18:13:00,83.8,68.4,29.94,SSW,207,13.0,13.0,60,0.00,,,0.00,VWS V14.01,2013-08-25 22:13:00,
2013-08-25 18:14:00,83.8,68.4,29.94,South,182,3.0,11.0,60,0.00,,,0.00,VWS V14.01,2013-08-25 22:14:00,
2013-08-25 18:15:00,83.8,68.9,29.94,SSW,211,18.0,18.0,61,0.00,,,0.00,VWS V14.01,2013-08-25 22:15:00,
2013-08-25 18:16:00,83.7,68.3,29.94,South,171,7.0,11.0,60,0.00,,,0.00,VWS V14.01,2013-08-25 22:16:00,
2013-08-25 18:17:00,83.7,68.3,29.94,SW,223,4.0,11.0,60,0.00,,,0.00,VWS V14.01,2013-08-25 22:17:00,
2013-08-25 18:18:00,83.6,68.7,29.94,SW,236,6.0,11.0,61,0.00,,,0.00,VWS V14.01,2013-08-25 22:18:00,
2013-08-25 18:19:00,83.6,68.7,29.94,SW,217,11.0,11.0,61,0.00,,,0.00,VWS V14.01,2013-08-25 22:19:00,
2013-08-25 18:20:00,83.6,68.3,29.94,South,191,3.0,11.0,60,0.00,,,0.00,VWS V14.01,2013-08-25 22:20:00,
2013-08-25 18:21:00,83.5,68.7,29.94,WSW,257,5.0,11.0,61,0.00,,,0.00,VWS V14.01,2013-08-25 22:21:00,
2013-08-25 18:22:00,83.5,68.7,29.94,SW,220,8.0,11.0,61,0.00,,,0.00,VWS V14.01,2013-08-25 22:22:00,
2013-08-25 18:23:00,83.5,68.7,29.94,SSW,193,7.0,11.0,61,0.00,,,0.00,VWS V14.01,2013-08-25 22:23:00,
2013-08-25 18:24:00,83.4,68.6,29.94,South,175,7.0,11.0,61,0.00,,,0.00,VWS V14.01,2013-08-25 22:24:00,
2013-08-25 18:25:00,83.4,68.6,29.94,WSW,244,5.0,11.0,61,0.00,,,0.00,VWS V14.01,2013-08-25 22:25:00,
2013-08-25 18:26:00,83.4,68.6,29.94,SSW,206,0.0,11.0,61,0.00,,,0.00,VWS V14.01,2013-08-25 22:26:00,
2013-08-25 18:27:00,83.4,68.6,29.94,SW,228,1.0,11.0,61,0.00,,,0.00,VWS V14.01,2013-08-25 22:27:00,
2013-08-25 18:28:00,83.4,68.6,29.94,South,173,12.0,12.0,61,0.00,,,0.00,VWS V14.01,2013-08-25 22:28:00,
2013-08-25 18:29:00,83.4,68.6,29.94,SSW,202,5.0,11.0,61,0.00,,,0.00,VWS V14.01,2013-08-25 22:29:00,
2013-08-25 18:30:00,83.4,68.6,29.94,SSW,199,8.0,11.0,61,0.00,,,0.00,VWS V14.01,2013-08-25 22:30:00,
2013-08-25 18:31:00,83.3,68.5,29.94,SSW,202,16.0,16.0,61,0.00,,,0.00,VWS V14.01,2013-08-25 22:31:00,
2013-08-25 18:32:00,83.3,68.5,29.94,SSW,202,16.0,16.0,61,0.00,,,0.00,VWS V14.01,2013-08-25 22:32:00,
2013-08-25 18:33:00,83.3,68.0,29.94,SSW,205,12.0,12.0,60,0.00,,,0.00,VWS V14.01,2013-08-25 22:33:00,
2013-08-25 18:34:00,83.3,68.5,29.94,SSW,207,8.0,11.0,61,0.00,,,0.00,VWS V14.01,2013-08-25 22:34:00,
2013-08-25 18:35:00,83.3,68.5,29.94,SSW,200,4.0,11.0,61,0.00,,,0.00,VWS V14.01,2013-08-25 22:35:00,
2013-08-25 18:36:00,83.2,68.4,29.95,SW,234,15.0,15.0,61,0.00,,,0.00,VWS V14.01,2013-08-25 22:36:00,
2013-08-25 18:37:00,83.2,68.4,29.95,SSW,209,13.0,13.0,61,0.00,,,0.00,VWS V14.01,2013-08-25 22:37:00,
2013-08-25 18:38:00,83.2,68.4,29.94,West,270,8.0,11.0,61,0.00,,,0.00,VWS V14.01,2013-08-25 22:38:00,
2013-08-25 18:39:00,83.2,68.4,29.94,WSW,252,4.0,11.0,61,0.00,,,0.00,VWS V14.01,2013-08-25 22:39:00,
2013-08-25 18:40:00,83.1,68.3,29.94,SW,225,8.0,11.0,61,0.00,,,0.00,VWS V14.01,2013-08-25 22:40:00,
2013-08-25 18:41:00,83.1,68.3,29.94,SSW,194,10.0,11.0,61,0.00,,,0.00,VWS V14.01,2013-08-25 22:41:00,
2013-08-25 18:42:00,83.1,68.3,29.94,SSW,194,10.0,11.0,61,0.00,,,0.00,VWS V14.01,2013-08-25 22:42:00,
2013-08-25 18:43:00,83.1,68.3,29.94,SSW,207,7.0,11.0,61,0.00,,,0.00,VWS V14.01,2013-08-25 22:43:00,
2013-08-25 18:44:00,83.1,68.7,29.94,SW,223,9.0,11.0,62,0.00,,,0.00,VWS V14.01,2013-08-25 22:44:00,
2013-08-25 18:45:00,83.0,68.2,29.94,SSW,206,8.0,11.0,61,0.00,,,0.00,VWS V14.01,2013-08-25 22:45:00,
2013-08-25 18:46:00,83.0,68.2,29.94,South,191,11.0,11.0,61,0.00,,,0.00,VWS V14.01,2013-08-25 22:46:00,
2013-08-25 18:47:00,83.0,68.2,29.94,South,191,11.0,11.0,61,0.00,,,0.00,VWS V14.01,2013-08-25 22:47:00,
2013-08-25 18:48:00,83.0,68.2,29.94,SSW,206,24.0,24.0,61,0.00,,,0.00,VWS V14.01,2013-08-25 22:48:00,
2013-08-25 18:49:00,83.0,68.2,29.94,SSW,212,15.0,15.0,61,0.00,,,0.00,VWS V14.01,2013-08-25 22:49:00,
2013-08-25 18:50:00,83.0,68.2,29.94,SW,222,8.0,11.0,61,0.00,,,0.00,VWS V14.01,2013-08-25 22:50:00,
2013-08-25 18:51:00,83.0,68.2,29.94,SSW,196,13.0,13.0,61,0.00,,,0.00,VWS V14.01,2013-08-25 22:51:00,
2013-08-25 18:52:00,83.0,68.2,29.94,SSW,196,13.0,13.0,61,0.00,,,0.00,VWS V14.01,2013-08-25 22:52:00,
2013-08-25 18:53:00,82.9,68.1,29.94,South,184,11.0,11.0,61,0.00,,,0.00,VWS V14.01,2013-08-25 22:53:00,
2013-08-25 18:54:00,82.9,68.1,29.94,South,185,11.0,11.0,61,0.00,,,0.00,VWS V14.01,2013-08-25 22:54:00,
2013-08-25 18:55:00,82.9,68.1,29.94,WSW,242,5.0,11.0,61,0.00,,,0.00,VWS V14.01,2013-08-25 22:55:00,
2013-08-25 18:56:00,82.8,68.5,29.94,SSW,212,6.0,11.0,62,0.00,,,0.00,VWS V14.01,2013-08-25 22:56:00,
2013-08-25 18:57:00,82.8,68.5,29.94,SSW,212,6.0,11.0,62,0.00,,,0.00,VWS V14.01,2013-08-25 22:57:00,
2013-08-25 18:58:00,82.8,68.5,29.94,SW,226,14.0,14.0,62,0.00,,,0.00,VWS V14.01,2013-08-25 22:58:00,
2013-08-25 18:59:00,82.8,68.0,29.94,WSW,248,3.0,11.0,61,0.00,,,0.00,VWS V14.01,2013-08-25 22:59:00,
2013-08-25 19:00:00,82.8,68.5,29.94,SW,231,8.0,11.0,62,0.00,,,0.00,VWS V14.01,2013-08-25 23:00:00,
2013-08-25 19:01:00,82.7,67.9,29.94,SW,223,13.0,13.0,61,0.00,,,0.00,VWS V14.01,2013-08-25 23:01:00,
2013-08-25 19:02:00,82.7,67.9,29.94,SW,223,13.0,13.0,61,0.00,,,0.00,VWS V14.01,2013-08-25 23:02:00,
2013-08-25 19:03:00,82.7,67.9,29.94,SW,221,12.0,12.0,61,0.00,,,0.00,VWS V14.01,2013-08-25 23:03:00,
2013-08-25 19:04:00,82.7,68.4,29.94,South,186,7.0,11.0,62,0.00,,,0.00,VWS V14.01,2013-08-25 23:04:00,
2013-08-25 19:05:00,82.7,67.9,29.94,SSW,211,7.0,11.0,61,0.00,,,0.00,VWS V14.01,2013-08-25 23:05:00,
2013-08-25 19:06:00,82.7,68.4,29.94,SSW,200,7.0,11.0,62,0.00,,,0.00,VWS V14.01,2013-08-25 23:06:00,
2013-08-25 19:07:00,82.7,68.4,29.94,SSW,200,7.0,11.0,62,0.00,,,0.00,VWS V14.01,2013-08-25 23:07:00,
2013-08-25 19:08:00,82.6,68.3,29.94,SSW,207,0.0,11.0,62,0.00,,,0.00,VWS V14.01,2013-08-25 23:08:00,
2013-08-25 19:09:00,82.6,68.3,29.94,SSW,211,14.0,14.0,62,0.00,,,0.00,VWS V14.01,2013-08-25 23:09:00,
2013-08-25 19:10:00,82.6,67.8,29.94,South,180,12.0,12.0,61,0.00,,,0.00,VWS V14.01,2013-08-25 23:10:00,
2013-08-25 19:11:00,82.6,68.3,29.94,WSW,242,6.0,11.0,62,0.00,,,0.00,VWS V14.01,2013-08-25 23:11:00,
2013-08-25 19:12:00,82.6,68.3,29.94,WSW,242,6.0,11.0,62,0.00,,,0.00,VWS V14.01,2013-08-25 23:12:00,
2013-08-25 19:13:00,82.5,67.7,29.94,SSW,197,13.0,13.0,61,0.00,,,0.00,VWS V14.01,2013-08-25 23:13:00,
2013-08-25 19:14:00,82.5,68.2,29.94,SW,224,10.0,11.0,62,0.00,,,0.00,VWS V14.01,2013-08-25 23:14:00,
2013-08-25 19:15:00,82.5,67.7,29.94,SSW,200,7.0,11.0,61,0.00,,,0.00,VWS V14.01,2013-08-25 23:15:00,
2013-08-25 19:16:00,82.5,68.2,29.95,SSW,202,14.0,14.0,62,0.00,,,0.00,VWS V14.01,2013-08-25 23:16:00,
2013-08-25 19:17:00,82.5,68.2,29.95,SW,219,12.0,12.0,62,0.00,,,0.00,VWS V14.01,2013-08-25 23:17:00,
2013-08-25 19:18:00,82.4,67.6,29.95,SSW,211,12.0,12.0,61,0.00,,,0.00,VWS V14.01,2013-08-25 23:18:00,
2013-08-25 19:19:00,82.4,67.6,29.95,SW,234,14.0,14.0,61,0.00,,,0.00,VWS V14.01,2013-08-25 23:19:00,
2013-08-25 19:20:00,82.4,68.1,29.95,SSW,196,2.0,11.0,62,0.00,,,0.00,VWS V14.01,2013-08-25 23:20:00,
2013-08-25 19:21:00,82.4,67.6,29.95,SSW,212,10.0,11.0,61,0.00,,,0.00,VWS V14.01,2013-08-25 23:21:00,
2013-08-25 19:22:00,82.4,67.6,29.95,SSW,208,17.0,17.0,61,0.00,,,0.00,VWS V14.01,2013-08-25 23:22:00,
2013-08-25 19:23:00,82.4,67.6,29.95,SW,236,14.0,14.0,61,0.00,,,0.00,VWS V14.01,2013-08-25 23:23:00,
2013-08-25 19:24:00,82.4,67.6,29.95,SSW,196,6.0,11.0,61,0.00,,,0.00,VWS V14.01,2013-08-25 23:24:00,
2013-08-25 19:25:00,82.4,67.6,29.94,SW,219,15.0,15.0,61,0.00,,,0.00,VWS V14.01,2013-08-25 23:25:00,
2013-08-25 19:26:00,82.4,67.6,29.95,SW,214,16.0,16.0,61,0.00,,,0.00,VWS V14.01,2013-08-25 23:26:00,
2013-08-25 19:27:00,82.4,67.6,29.95,SW,223,5.0,11.0,61,0.00,,,0.00,VWS V14.01,2013-08-25 23:27:00,
2013-08-25 19:28:00,82.4,67.6,29.95,SSW,192,11.0,11.0,61,0.00,,,0.00,VWS V14.01,2013-08-25 23:28:00,
2013-08-25 19:29:00,82.4,67.6,29.95,SW,232,12.0,12.0,61,0.00,,,0.00,VWS V14.01,2013-08-25 23:29:00,
2013-08-25 19:30:00,82.4,67.6,29.95,South,184,10.0,11.0,61,0.00,,,0.00,VWS V14.01,2013-08-25 23:30:00,
2013-08-25 19:31:00,82.4,67.6,29.95,SSW,192,8.0,11.0,61,0.00,,,0.00,VWS V14.01,2013-08-25 23:31:00,
2013-08-25 19:32:00,82.4,67.6,29.94,SSW,200,4.0,11.0,61,0.00,,,0.00,VWS V14.01,2013-08-25 23:32:00,
2013-08-25 19:33:00,82.4,67.6,29.95,SSW,193,11.0,11.0,61,0.00,,,0.00,VWS V14.01,2013-08-25 23:33:00,
2013-08-25 19:34:00,82.4,67.6,29.94,SSE,166,9.0,11.0,61,0.00,,,0.00,VWS V14.01,2013-08-25 23:34:00,
2013-08-25 19:35:00,82.4,67.6,29.95,SSW,205,7.0,11.0,61,0.00,,,0.00,VWS V14.01,2013-08-25 23:35:00,
2013-08-25 19:36:00,82.3,67.5,29.94,SSW,205,12.0,12.0,61,0.00,,,0.00,VWS V14.01,2013-08-25 23:36:00,
2013-08-25 19:37:00,82.3,67.5,29.95,South,180,10.0,11.0,61,0.00,,,0.00,VWS V14.01,2013-08-25 23:37:00,
2013-08-25 19:38:00,82.3,67.5,29.94,SW,221,15.0,15.0,61,0.00,,,0.00,VWS V14.01,2013-08-25 23:38:00,
2013-08-25 19:39:00,82.3,67.5,29.95,South,190,4.0,11.0,61,0.00,,,0.00,VWS V14.01,2013-08-25 23:39:00,
2013-08-25 19:40:00,82.3,68.0,29.94,SW,216,14.0,14.0,62,0.00,,,0.00,VWS V14.01,2013-08-25 23:40:00,
2013-08-25 19:41:00,82.2,67.9,29.94,SW,214,6.0,11.0,62,0.00,,,0.00,VWS V14.01,2013-08-25 23:41:00,
2013-08-25 19:42:00,82.3,68.0,29.94,SW,216,5.0,11.0,62,0.00,,,0.00,VWS V14.01,2013-08-25 23:42:00,
2013-08-25 19:43:00,82.2,67.9,29.94,SW,225,5.0,11.0,62,0.00,,,0.00,VWS V14.01,2013-08-25 23:43:00,
2013-08-25 19:44:00,82.2,67.9,29.94,SSW,205,6.0,11.0,62,0.00,,,0.00,VWS V14.01,2013-08-25 23:44:00,
2013-08-25 19:45:00,82.1,67.8,29.94,SSW,197,10.0,11.0,62,0.00,,,0.00,VWS V14.01,2013-08-25 23:45:00,
2013-08-25 19:46:00,82.1,67.3,29.94,SW,225,12.0,12.0,61,0.00,,,0.00,VWS V14.01,2013-08-25 23:46:00,
2013-08-25 19:47:00,82.1,67.3,29.94,SSW,202,17.0,17.0,61,0.00,,,0.00,VWS V14.01,2013-08-25 23:47:00,
2013-08-25 19:48:00,82.1,67.3,29.94,SW,221,7.0,11.0,61,0.00,,,0.00,VWS V14.01,2013-08-25 23:48:00,
2013-08-25 19:49:00,82.1,67.3,29.94,SSW,192,0.0,11.0,61,0.00,,,0.00,VWS V14.01,2013-08-25 23:49:00,
2013-08-25 19:50:00,82.0,67.2,29.94,WSW,252,5.0,11.0,61,0.00,,,0.00,VWS V14.01,2013-08-25 23:50:00,
2013-08-25 19:51:00,82.0,67.2,29.94,SW,225,0.0,11.0,61,0.00,,,0.00,VWS V14.01,2013-08-25 23:51:00,
2013-08-25 19:52:00,82.0,67.2,29.95,SSW,206,12.0,12.0,61,0.00,,,0.00,VWS V14.01,2013-08-25 23:52:00,
2013-08-25 19:53:00,82.0,67.2,29.95,South,184,10.0,11.0,61,0.00,,,0.00,VWS V14.01,2013-08-25 23:53:00,
2013-08-25 19:54:00,82.0,67.2,29.95,South,171,5.0,11.0,61,0.00,,,0.00,VWS V14.01,2013-08-25 23:54:00,
2013-08-25 19:55:00,82.0,67.2,29.94,WSW,239,10.0,11.0,61,0.00,,,0.00,VWS V14.01,2013-08-25 23:55:00,
2013-08-25 19:56:00,82.0,67.2,29.95,SSW,202,6.0,11.0,61,0.00,,,0.00,VWS V14.01,2013-08-25 23:56:00,
2013-08-25 19:57:00,82.0,67.2,29.95,SSW,195,8.0,11.0,61,0.00,,,0.00,VWS V14.01,2013-08-25 23:57:00,
2013-08-25 19:58:00,82.0,67.2,29.95,SSW,198,6.0,11.0,61,0.00,,,0.00,VWS V14.01,2013-08-25 23:58:00,
2013-08-25 19:59:00,82.0,67.7,29.95,SW,233,7.0,11.0,62,0.00,,,0.00,VWS V14.01,2013-08-25 23:59:00,
2013-08-25 20:00:00,81.9,67.1,29.95,SSW,196,6.0,11.0,61,0.00,,,0.00,VWS V14.01,2013-08-26 00:00:00,
2013-08-25 20:01:00,81.9,67.1,29.95,SSW,211,0.0,11.0,61,0.00,,,0.00,VWS V14.01,2013-08-26 00:01:00,
2013-08-25 20:02:00,81.9,67.1,29.95,SSW,197,5.0,11.0,61,0.00,,,0.00,VWS V14.01,2013-08-26 00:02:00,
2013-08-25 20:04:00,81.9,67.6,29.95,SW,214,7.0,11.0,62,0.00,,,0.00,VWS V14.01,2013-08-26 00:04:00,
2013-08-25 20:05:00,81.8,67.1,29.95,South,182,16.0,16.0,61,0.00,,,0.00,VWS V14.01,2013-08-26 00:05:00,
2013-08-25 20:06:00,81.8,67.1,29.95,South,181,4.0,11.0,61,0.00,,,0.00,VWS V14.01,2013-08-26 00:06:00,
2013-08-25 20:07:00,81.7,66.9,29.95,SSW,196,9.0,11.0,61,0.00,,,0.00,VWS V14.01,2013-08-26 00:07:00,
2013-08-25 20:08:00,81.7,66.9,29.95,SSW,196,9.0,11.0,61,0.00,,,0.00,VWS V14.01,2013-08-26 00:08:00,
2013-08-25 20:09:00,81.7,66.9,29.95,SSW,200,5.0,11.0,61,0.00,,,0.00,VWS V14.01,2013-08-26 00:09:00,
2013-08-25 20:10:00,81.7,66.9,29.95,SSW,208,8.0,11.0,61,0.00,,,0.00,VWS V14.01,2013-08-26 00:10:00,
2013-08-25 20:11:00,81.6,66.9,29.95,SW,227,6.0,11.0,61,0.00,,,0.00,VWS V14.01,2013-08-26 00:11:00,
2013-08-25 20:12:00,81.6,66.9,29.95,SSW,206,12.0,12.0,61,0.00,,,0.00,VWS V14.01,2013-08-26 00:12:00,
2013-08-25 20:13:00,81.6,66.9,29.95,SSW,213,8.0,11.0,61,0.00,,,0.00,VWS V14.01,2013-08-26 00:13:00,
2013-08-25 20:14:00,81.5,66.8,29.95,SSW,196,5.0,11.0,61,0.00,,,0.00,VWS V14.01,2013-08-26 00:14:00,
2013-08-25 20:15:00,81.5,67.2,29.95,SSW,198,10.0,11.0,62,0.00,,,0.00,VWS V14.01,2013-08-26 00:15:00,
2013-08-25 20:16:00,81.4,66.7,29.95,SSW,196,5.0,11.0,61,0.00,,,0.00,VWS V14.01,2013-08-26 00:16:00,
2013-08-25 20:17:00,81.4,67.1,29.95,South,185,4.0,11.0,62,0.00,,,0.00,VWS V14.01,2013-08-26 00:17:00,
2013-08-25 20:18:00,81.4,67.1,29.95,South,180,10.0,11.0,62,0.00,,,0.00,VWS V14.01,2013-08-26 00:18:00,
2013-08-25 20:19:00,81.4,67.1,29.95,SW,227,3.0,11.0,62,0.00,,,0.00,VWS V14.01,2013-08-26 00:19:00,
2013-08-25 20:20:00,81.3,67.1,29.95,SSW,207,11.0,11.0,62,0.00,,,0.00,VWS V14.01,2013-08-26 00:20:00,
2013-08-25 20:21:00,81.3,67.1,29.95,SW,228,7.0,11.0,62,0.00,,,0.00,VWS V14.01,2013-08-26 00:21:00,
2013-08-25 20:22:00,81.2,66.9,29.95,SW,218,9.0,11.0,62,0.00,,,0.00,VWS V14.01,2013-08-26 00:22:00,
2013-08-25 20:23:00,81.2,66.9,29.94,SW,224,16.0,16.0,62,0.00,,,0.00,VWS V14.01,2013-08-26 00:23:00,
2013-08-25 20:24:00,81.2,66.9,29.95,SW,220,7.0,11.0,62,0.00,,,0.00,VWS V14.01,2013-08-26 00:24:00,
2013-08-25 20:25:00,81.2,66.9,29.94,SW,218,13.0,13.0,62,0.00,,,0.00,VWS V14.01,2013-08-26 00:25:00,
2013-08-25 20:26:00,81.1,66.9,29.94,SSW,200,6.0,11.0,62,0.00,,,0.00,VWS V14.01,2013-08-26 00:26:00,
2013-08-25 20:27:00,81.0,66.8,29.95,SW,218,11.0,11.0,62,0.00,,,0.00,VWS V14.01,2013-08-26 00:27:00,
2013-08-25 20:28:00,81.1,66.9,29.94,SW,221,7.0,11.0,62,0.00,,,0.00,VWS V14.01,2013-08-26 00:28:00,
2013-08-25 20:29:00,81.0,66.8,29.95,South,190,6.0,11.0,62,0.00,,,0.00,VWS V14.01,2013-08-26 00:29:00,
2013-08-25 20:30:00,81.0,66.8,29.94,SSW,198,3.0,11.0,62,0.00,,,0.00,VWS V14.01,2013-08-26 00:30:00,
2013-08-25 20:31:00,80.9,66.7,29.95,SSW,196,8.0,11.0,62,0.00,,,0.00,VWS V14.01,2013-08-26 00:31:00,
2013-08-25 20:32:00,80.8,66.6,29.95,SW,217,3.0,11.0,62,0.00,,,0.00,VWS V14.01,2013-08-26 00:32:00,
2013-08-25 20:34:00,80.8,66.6,29.95,SW,221,4.0,11.0,62,0.00,,,0.00,VWS V14.01,2013-08-26 00:34:00,
2013-08-25 20:35:00,80.7,66.5,29.95,SW,223,13.0,13.0,62,0.00,,,0.00,VWS V14.01,2013-08-26 00:35:00,
2013-08-25 20:36:00,80.7,66.5,29.94,SSW,211,5.0,11.0,62,0.00,,,0.00,VWS V14.01,2013-08-26 00:36:00,
2013-08-25 20:37:00,80.6,66.4,29.95,SW,223,5.0,11.0,62,0.00,,,0.00,VWS V14.01,2013-08-26 00:37:00,
2013-08-25 20:38:00,80.6,66.4,29.95,SSW,202,5.0,11.0,62,0.00,,,0.00,VWS V14.01,2013-08-26 00:38:00,
2013-08-25 20:39:00,80.5,66.8,29.95,South,184,9.0,11.0,63,0.00,,,0.00,VWS V14.01,2013-08-26 00:39:00,
2013-08-25 20:40:00,80.5,66.8,29.95,SSW,205,6.0,11.0,63,0.00,,,0.00,VWS V14.01,2013-08-26 00:40:00,
2013-08-25 20:41:00,80.5,66.8,29.95,SW,223,7.0,11.0,63,0.00,,,0.00,VWS V14.01,2013-08-26 00:41:00,
2013-08-25 20:42:00,80.4,66.7,29.95,SSW,209,6.0,11.0,63,0.00,,,0.00,VWS V14.01,2013-08-26 00:42:00,
2013-08-25 20:43:00,80.4,66.7,29.95,SSW,208,9.0,11.0,63,0.00,,,0.00,VWS V14.01,2013-08-26 00:43:00,
2013-08-25 20:44:00,80.4,66.7,29.95,SSW,194,10.0,11.0,63,0.00,,,0.00,VWS V14.01,2013-08-26 00:44:00,
2013-08-25 20:45:00,80.4,66.7,29.95,SSW,198,12.0,12.0,63,0.00,,,0.00,VWS V14.01,2013-08-26 00:45:00,
2013-08-25 20:46:00,80.3,66.6,29.95,SSW,203,11.0,11.0,63,0.00,,,0.00,VWS V14.01,2013-08-26 00:46:00,
2013-08-25 20:47:00,80.2,66.5,29.95,SW,219,7.0,11.0,63,0.00,,,0.00,VWS V14.01,2013-08-26 00:47:00,
2013-08-25 20:48:00,80.2,66.5,29.95,SSW,208,8.0,11.0,63,0.00,,,0.00,VWS V14.01,2013-08-26 00:48:00,
2013-08-25 20:49:00,80.2,66.5,29.95,SW,225,6.0,11.0,63,0.00,,,0.00,VWS V14.01,2013-08-26 00:49:00,
2013-08-25 20:50:00,80.2,66.5,29.95,SSW,193,7.0,11.0,63,0.00,,,0.00,VWS V14.01,2013-08-26 00:50:00,
2013-08-25 20:51:00,80.2,66.5,29.95,SSW,197,7.0,11.0,63,0.00,,,0.00,VWS V14.01,2013-08-26 00:51:00,
2013-08-25 20:52:00,80.2,66.5,29.95,SSW,208,7.0,11.0,63,0.00,,,0.00,VWS V14.01,2013-08-26 00:52:00,
2013-08-25 20:53:00,80.1,66.8,29.95,SSW,200,0.0,11.0,64,0.00,,,0.00,VWS V14.01,2013-08-26 00:53:00,
2013-08-25 20:54:00,80.2,66.9,29.95,SSW,194,8.0,11.0,64,0.00,,,0.00,VWS V14.01,2013-08-26 00:54:00,
2013-08-25 20:55:00,80.2,66.9,29.95,SW,223,12.0,12.0,64,0.00,,,0.00,VWS V14.01,2013-08-26 00:55:00,
2013-08-25 20:56:00,80.1,66.4,29.95,SW,217,9.0,11.0,63,0.00,,,0.00,VWS V14.01,2013-08-26 00:56:00,
2013-08-25 20:57:00,80.1,66.4,29.95,SSE,168,19.0,19.0,63,0.00,,,0.00,VWS V14.01,2013-08-26 00:57:00,
2013-08-25 20:58:00,80.1,66.4,29.95,SW,229,9.0,11.0,63,0.00,,,0.00,VWS V14.01,2013-08-26 00:58:00,
2013-08-25 20:59:00,80.1,66.4,29.95,SW,226,8.0,11.0,63,0.00,,,0.00,VWS V14.01,2013-08-26 00:59:00,
2013-08-25 21:00:00,80.1,66.4,29.95,SW,228,6.0,11.0,63,0.00,,,0.00,VWS V14.01,2013-08-26 01:00:00,
2013-08-25 21:01:00,80.1,66.4,29.95,SSW,193,8.0,11.0,63,0.00,,,0.00,VWS V14.01,2013-08-26 01:01:00,
2013-08-25 21:02:00,80.1,66.4,29.95,SW,219,7.0,11.0,63,0.00,,,0.00,VWS V14.01,2013-08-26 01:02:00,
2013-08-25 21:03:00,80.1,66.4,29.95,SSW,205,13.0,13.0,63,0.00,,,0.00,VWS V14.01,2013-08-26 01:03:00,
2013-08-25 21:04:00,80.1,66.4,29.95,SSW,194,12.0,12.0,63,0.00,,,0.00,VWS V14.01,2013-08-26 01:04:00,
2013-08-25 21:05:00,80.1,66.4,29.95,SSW,213,8.0,11.0,63,0.00,,,0.00,VWS V14.01,2013-08-26 01:05:00,
2013-08-25 21:06:00,80.1,66.4,29.95,SSW,196,9.0,11.0,63,0.00,,,0.00,VWS V14.01,2013-08-26 01:06:00,
2013-08-25 21:07:00,80.1,66.4,29.95,South,190,7.0,11.0,63,0.00,,,0.00,VWS V14.01,2013-08-26 01:07:00,
2013-08-25 21:08:00,80.1,66.4,29.95,SSW,204,5.0,11.0,63,0.00,,,0.00,VWS V14.01,2013-08-26 01:08:00,
2013-08-25 21:09:00,80.1,66.4,29.95,SSW,204,5.0,11.0,63,0.00,,,0.00,VWS V14.01,2013-08-26 01:09:00,
2013-08-25 21:10:00,80.2,66.5,29.95,SSW,207,5.0,11.0,63,0.00,,,0.00,VWS V14.01,2013-08-26 01:10:00,
2013-08-25 21:11:00,80.1,66.4,29.95,SSW,200,7.0,11.0,63,0.00,,,0.00,VWS V14.01,2013-08-26 01:11:00,
2013-08-25 21:12:00,80.1,66.4,29.95,SW,222,0.0,11.0,63,0.00,,,0.00,VWS V14.01,2013-08-26 01:12:00,
2013-08-25 21:13:00,80.1,66.4,29.95,SW,232,6.0,11.0,63,0.00,,,0.00,VWS V14.01,2013-08-26 01:13:00,
2013-08-25 21:14:00,80.1,66.4,29.95,SW,232,6.0,11.0,63,0.00,,,0.00,VWS V14.01,2013-08-26 01:14:00,
2013-08-25 21:15:00,80.1,66.4,29.95,SW,226,10.0,11.0,63,0.00,,,0.00,VWS V14.01,2013-08-26 01:15:00,
2013-08-25 21:16:00,80.1,66.4,29.95,SSW,198,8.0,11.0,63,0.00,,,0.00,VWS V14.01,2013-08-26 01:16:00,
2013-08-25 21:17:00,80.1,66.4,29.95,South,171,6.0,11.0,63,0.00,,,0.00,VWS V14.01,2013-08-26 01:17:00,
2013-08-25 21:18:00,80.1,66.4,29.95,South,189,6.0,11.0,63,0.00,,,0.00,VWS V14.01,2013-08-26 01:18:00,
2013-08-25 21:19:00,80.1,66.4,29.95,South,189,6.0,11.0,63,0.00,,,0.00,VWS V14.01,2013-08-26 01:19:00,
2013-08-25 21:20:00,80.1,66.4,29.95,South,182,0.0,11.0,63,0.00,,,0.00,VWS V14.01,2013-08-26 01:20:00,
2013-08-25 21:21:00,80.0,66.3,29.95,SSW,194,4.0,11.0,63,0.00,,,0.00,VWS V14.01,2013-08-26 01:21:00,
2013-08-25 21:22:00,80.0,66.3,29.95,South,179,7.0,11.0,63,0.00,,,0.00,VWS V14.01,2013-08-26 01:22:00,
2013-08-25 21:23:00,80.0,66.3,29.95,SW,229,13.0,13.0,63,0.00,,,0.00,VWS V14.01,2013-08-26 01:23:00,
2013-08-25 21:24:00,80.0,66.3,29.95,SW,229,13.0,13.0,63,0.00,,,0.00,VWS V14.01,2013-08-26 01:24:00,
2013-08-25 21:25:00,80.0,66.3,29.95,SW,229,12.0,12.0,63,0.00,,,0.00,VWS V14.01,2013-08-26 01:25:00,
2013-08-25 21:26:00,80.0,66.3,29.95,SSW,193,0.0,11.0,63,0.00,,,0.00,VWS V14.01,2013-08-26 01:26:00,
2013-08-25 21:27:00,80.0,66.3,29.95,South,182,6.0,11.0,63,0.00,,,0.00,VWS V14.01,2013-08-26 01:27:00,
2013-08-25 21:28:00,80.0,66.3,29.96,South,186,7.0,11.0,63,0.00,,,0.00,VWS V14.01,2013-08-26 01:28:00,
2013-08-25 21:29:00,80.0,66.3,29.96,South,186,7.0,11.0,63,0.00,,,0.00,VWS V14.01,2013-08-26 01:29:00,
2013-08-25 21:30:00,80.0,66.3,29.96,South,191,11.0,11.0,63,0.00,,,0.00,VWS V14.01,2013-08-26 01:30:00,
2013-08-25 21:31:00,80.0,66.3,29.96,South,186,0.0,11.0,63,0.00,,,0.00,VWS V14.01,2013-08-26 01:31:00,
2013-08-25 21:32:00,80.0,66.3,29.96,SSW,208,8.0,11.0,63,0.00,,,0.00,VWS V14.01,2013-08-26 01:32:00,
2013-08-25 21:33:00,80.0,66.3,29.96,South,188,1.0,11.0,63,0.00,,,0.00,VWS V14.01,2013-08-26 01:33:00,
2013-08-25 21:34:00,80.0,66.3,29.96,South,188,1.0,11.0,63,0.00,,,0.00,VWS V14.01,2013-08-26 01:34:00,
2013-08-25 21:35:00,80.0,66.7,29.96,South,180,7.0,11.0,64,0.00,,,0.00,VWS V14.01,2013-08-26 01:35:00,
2013-08-25 21:36:00,80.0,66.3,29.96,SW,220,0.0,11.0,63,0.00,,,0.00,VWS V14.01,2013-08-26 01:36:00,
2013-08-25 21:37:00,80.0,66.7,29.96,South,186,8.0,11.0,64,0.00,,,0.00,VWS V14.01,2013-08-26 01:37:00,
2013-08-25 21:38:00,80.0,66.7,29.96,South,187,0.0,11.0,64,0.00,,,0.00,VWS V14.01,2013-08-26 01:38:00,
2013-08-25 21:39:00,80.0,66.7,29.96,South,187,0.0,11.0,64,0.00,,,0.00,VWS V14.01,2013-08-26 01:39:00,
2013-08-25 21:40:00,80.0,66.7,29.96,SSW,195,9.0,11.0,64,0.00,,,0.00,VWS V14.01,2013-08-26 01:40:00,
2013-08-25 21:41:00,79.9,66.6,29.96,SSW,206,4.0,11.0,64,0.00,,,0.00,VWS V14.01,2013-08-26 01:41:00,
2013-08-25 21:42:00,79.9,66.6,29.96,SSW,192,7.0,11.0,64,0.00,,,0.00,VWS V14.01,2013-08-26 01:42:00,
2013-08-25 21:43:00,79.9,66.7,29.96,SW,235,5.0,11.0,64,0.00,,,0.00,VWS V14.01,2013-08-26 01:43:00,
2013-08-25 21:44:00,79.9,66.6,29.96,SSW,205,4.0,11.0,64,0.00,,,0.00,VWS V14.01,2013-08-26 01:44:00,
2013-08-25 21:45:00,79.9,66.6,29.96,SSW,199,6.0,11.0,64,0.00,,,0.00,VWS V14.01,2013-08-26 01:45:00,
2013-08-25 21:46:00,79.9,66.6,29.96,SSW,197,7.0,11.0,64,0.00,,,0.00,VWS V14.01,2013-08-26 01:46:00,
2013-08-25 21:47:00,79.9,66.6,29.96,South,183,10.0,11.0,64,0.00,,,0.00,VWS V14.01,2013-08-26 01:47:00,
2013-08-25 21:48:00,79.9,66.7,29.96,South,179,8.0,11.0,64,0.00,,,0.00,VWS V14.01,2013-08-26 01:48:00,
2013-08-25 21:49:00,79.9,66.6,29.96,SSE,152,3.0,11.0,64,0.00,,,0.00,VWS V14.01,2013-08-26 01:49:00,
2013-08-25 21:50:00,79.9,66.6,29.96,South,188,6.0,11.0,64,0.00,,,0.00,VWS V14.01,2013-08-26 01:50:00,
2013-08-25 21:51:00,79.9,66.6,29.96,SSW,213,1.0,11.0,64,0.00,,,0.00,VWS V14.01,2013-08-26 01:51:00,
2013-08-25 21:52:00,79.9,66.6,29.96,SSW,211,7.0,11.0,64,0.00,,,0.00,VWS V14.01,2013-08-26 01:52:00,
2013-08-25 21:53:00,79.9,66.7,29.96,South,190,10.0,11.0,64,0.00,,,0.00,VWS V14.01,2013-08-26 01:53:00,
2013-08-25 21:54:00,79.9,66.6,29.96,SW,223,11.0,11.0,64,0.00,,,0.00,VWS V14.01,2013-08-26 01:54:00,
2013-08-25 21:55:00,79.9,66.6,29.96,SW,219,4.0,11.0,64,0.00,,,0.00,VWS V14.01,2013-08-26 01:55:00,
2013-08-25 21:56:00,79.9,66.6,29.96,South,184,11.0,11.0,64,0.00,,,0.00,VWS V14.01,2013-08-26 01:56:00,
2013-08-25 21:57:00,79.9,66.6,29.96,South,173,8.0,11.0,64,0.00,,,0.00,VWS V14.01,2013-08-26 01:57:00,
2013-08-25 21:58:00,79.9,66.7,29.96,South,190,6.0,11.0,64,0.00,,,0.00,VWS V14.01,2013-08-26 01:58:00,
2013-08-25 21:59:00,79.9,67.1,29.96,SSW,208,4.0,11.0,65,0.00,,,0.00,VWS V14.01,2013-08-26 01:59:00,
2013-08-25 22:00:00,79.9,67.1,29.96,South,175,8.0,11.0,65,0.00,,,0.00,VWS V14.01,2013-08-26 02:00:00,
2013-08-25 22:01:00,79.8,67.0,29.96,WSW,246,9.0,11.0,65,0.00,,,0.00,VWS V14.01,2013-08-26 02:01:00,
2013-08-25 22:02:00,79.8,67.0,29.96,SSW,211,0.0,11.0,65,0.00,,,0.00,VWS V14.01,2013-08-26 02:02:00,
2013-08-25 22:03:00,79.7,66.9,29.97,SSW,209,5.0,11.0,65,0.00,,,0.00,VWS V14.01,2013-08-26 02:03:00,
2013-08-25 22:04:00,79.7,66.9,29.96,SW,227,0.0,11.0,65,0.00,,,0.00,VWS V14.01,2013-08-26 02:04:00,
2013-08-25 22:05:00,79.7,66.9,29.97,SSE,159,8.0,11.0,65,0.00,,,0.00,VWS V14.01,2013-08-26 02:05:00,
2013-08-25 22:06:00,79.7,66.9,29.97,SW,221,4.0,11.0,65,0.00,,,0.00,VWS V14.01,2013-08-26 02:06:00,
2013-08-25 22:07:00,79.7,66.9,29.97,SSW,194,0.0,11.0,65,0.00,,,0.00,VWS V14.01,2013-08-26 02:07:00,
2013-08-25 22:08:00,79.7,66.9,29.97,SSW,207,0.0,11.0,65,0.00,,,0.00,VWS V14.01,2013-08-26 02:08:00,
2013-08-25 22:09:00,79.6,66.8,29.97,SW,215,5.0,11.0,65,0.00,,,0.00,VWS V14.01,2013-08-26 02:09:00,
2013-08-25 22:10:00,79.6,66.8,29.97,SSW,200,5.0,11.0,65,0.00,,,0.00,VWS V14.01,2013-08-26 02:10:00,
2013-08-25 22:11:00,79.6,66.8,29.97,SW,223,3.0,11.0,65,0.00,,,0.00,VWS V14.01,2013-08-26 02:11:00,
2013-08-25 22:12:00,79.6,66.8,29.97,South,176,9.0,11.0,65,0.00,,,0.00,VWS V14.01,2013-08-26 02:12:00,
2013-08-25 22:13:00,79.6,66.8,29.97,SSW,211,0.0,11.0,65,0.00,,,0.00,VWS V14.01,2013-08-26 02:13:00,
2013-08-25 22:14:00,79.5,66.7,29.97,SW,219,0.0,11.0,65,0.00,,,0.00,VWS V14.01,2013-08-26 02:14:00,
2013-08-25 22:15:00,79.5,66.7,29.97,South,180,0.0,11.0,65,0.00,,,0.00,VWS V14.01,2013-08-26 02:15:00,
2013-08-25 22:16:00,79.5,66.7,29.96,SSW,209,0.0,11.0,65,0.00,,,0.00,VWS V14.01,2013-08-26 02:16:00,
2013-08-25 22:17:00,79.5,66.7,29.97,South,182,8.0,11.0,65,0.00,,,0.00,VWS V14.01,2013-08-26 02:17:00,
2013-08-25 22:18:00,79.5,66.7,29.96,South,191,7.0,11.0,65,0.00,,,0.00,VWS V14.01,2013-08-26 02:18:00,
2013-08-25 22:19:00,79.4,67.1,29.97,SSE,163,10.0,11.0,66,0.00,,,0.00,VWS V14.01,2013-08-26 02:19:00,
2013-08-25 22:20:00,79.4,67.1,29.97,SSE,163,10.0,11.0,66,0.00,,,0.00,VWS V14.01,2013-08-26 02:20:00,
2013-08-25 22:21:00,79.4,67.1,29.97,SSW,200,7.0,11.0,66,0.00,,,0.00,VWS V14.01,2013-08-26 02:21:00,
2013-08-25 22:22:00,79.3,67.0,29.97,SSW,202,5.0,11.0,66,0.00,,,0.00,VWS V14.01,2013-08-26 02:22:00,
2013-08-25 22:23:00,79.3,67.0,29.97,South,190,5.0,11.0,66,0.00,,,0.00,VWS V14.01,2013-08-26 02:23:00,
2013-08-25 22:24:00,79.3,67.0,29.97,South,178,9.0,11.0,66,0.00,,,0.00,VWS V14.01,2013-08-26 02:24:00,
2013-08-25 22:25:00,79.3,67.0,29.97,South,178,9.0,11.0,66,0.00,,,0.00,VWS V14.01,2013-08-26 02:25:00,
2013-08-25 22:26:00,79.3,67.0,29.96,SW,216,4.0,11.0,66,0.00,,,0.00,VWS V14.01,2013-08-26 02:26:00,
2013-08-25 22:27:00,79.2,66.9,29.97,SSW,194,0.0,11.0,66,0.00,,,0.00,VWS V14.01,2013-08-26 02:27:00,
2013-08-25 22:28:00,79.2,66.9,29.97,SSW,209,8.0,11.0,66,0.00,,,0.00,VWS V14.01,2013-08-26 02:28:00,
2013-08-25 22:29:00,79.1,66.8,29.97,SSW,207,0.0,11.0,66,0.00,,,0.00,VWS V14.01,2013-08-26 02:29:00,
2013-08-25 22:30:00,79.1,66.8,29.96,South,178,0.0,11.0,66,0.00,,,0.00,VWS V14.01,2013-08-26 02:30:00,
2013-08-25 22:31:00,79.1,66.8,29.97,SW,228,0.0,11.0,66,0.00,,,0.00,VWS V14.01,2013-08-26 02:31:00,
2013-08-25 22:32:00,79.1,66.8,29.97,SSW,196,0.0,11.0,66,0.00,,,0.00,VWS V14.01,2013-08-26 02:32:00,
2013-08-25 22:33:00,79.1,66.8,29.97,SSW,204,0.0,11.0,66,0.00,,,0.00,VWS V14.01,2013-08-26 02:33:00,
2013-08-25 22:34:00,79.0,66.7,29.97,SW,220,4.0,11.0,66,0.00,,,0.00,VWS V14.01,2013-08-26 02:34:00,
2013-08-25 22:35:00,78.9,66.6,29.97,SSW,202,5.0,11.0,66,0.00,,,0.00,VWS V14.01,2013-08-26 02:35:00,
2013-08-25 22:36:00,78.9,67.0,29.97,South,190,8.0,11.0,67,0.00,,,0.00,VWS V14.01,2013-08-26 02:36:00,
2013-08-25 22:37:00,78.9,66.6,29.97,SW,223,8.0,11.0,66,0.00,,,0.00,VWS V14.01,2013-08-26 02:37:00,
2013-08-25 22:38:00,78.9,67.0,29.97,SW,217,8.0,11.0,67,0.00,,,0.00,VWS V14.01,2013-08-26 02:38:00,
2013-08-25 22:39:00,78.9,67.0,29.97,SSW,209,0.0,11.0,67,0.00,,,0.00,VWS V14.01,2013-08-26 02:39:00,
2013-08-25 22:40:00,78.9,67.0,29.97,SSW,211,0.0,11.0,67,0.00,,,0.00,VWS V14.01,2013-08-26 02:40:00,
2013-08-25 22:41:00,78.9,67.0,29.97,SW,222,0.0,11.0,67,0.00,,,0.00,VWS V14.01,2013-08-26 02:41:00,
2013-08-25 22:42:00,78.8,66.9,29.97,SSW,210,0.0,11.0,67,0.00,,,0.00,VWS V14.01,2013-08-26 02:42:00,
2013-08-25 22:43:00,78.9,67.0,29.97,SSW,198,0.0,11.0,67,0.00,,,0.00,VWS V14.01,2013-08-26 02:43:00,
2013-08-25 22:44:00,78.8,66.9,29.96,SW,223,0.0,11.0,67,0.00,,,0.00,VWS V14.01,2013-08-26 02:44:00,
2013-08-25 22:45:00,78.8,66.9,29.97,SSW,194,7.0,11.0,67,0.00,,,0.00,VWS V14.01,2013-08-26 02:45:00,
2013-08-25 22:46:00,78.8,66.9,29.96,SW,225,0.0,11.0,67,0.00,,,0.00,VWS V14.01,2013-08-26 02:46:00,
2013-08-25 22:47:00,78.8,66.9,29.97,South,188,0.0,11.0,67,0.00,,,0.00,VWS V14.01,2013-08-26 02:47:00,
2013-08-25 22:48:00,78.8,66.9,29.97,SSW,213,6.0,11.0,67,0.00,,,0.00,VWS V14.01,2013-08-26 02:48:00,
2013-08-25 22:49:00,78.7,66.8,29.97,SW,224,0.0,11.0,67,0.00,,,0.00,VWS V14.01,2013-08-26 02:49:00,
2013-08-25 22:50:00,78.7,66.8,29.96,South,178,9.0,11.0,67,0.00,,,0.00,VWS V14.01,2013-08-26 02:50:00,
2013-08-25 22:52:00,78.7,66.8,29.97,SW,217,0.0,11.0,67,0.00,,,0.00,VWS V14.01,2013-08-26 02:52:00,
2013-08-25 22:53:00,78.7,66.8,29.97,SW,221,0.0,11.0,67,0.00,,,0.00,VWS V14.01,2013-08-26 02:53:00,
2013-08-25 22:54:00,78.7,66.8,29.97,SSW,209,0.0,11.0,67,0.00,,,0.00,VWS V14.01,2013-08-26 02:54:00,
2013-08-25 22:55:00,78.6,66.7,29.97,SW,225,0.0,11.0,67,0.00,,,0.00,VWS V14.01,2013-08-26 02:55:00,
2013-08-25 22:56:00,78.6,66.7,29.97,SW,225,0.0,11.0,67,0.00,,,0.00,VWS V14.01,2013-08-26 02:56:00,
2013-08-25 22:57:00,78.6,66.7,29.97,SSW,205,8.0,11.0,67,0.00,,,0.00,VWS V14.01,2013-08-26 02:57:00,
2013-08-25 22:58:00,78.6,66.7,29.97,SSW,194,0.0,11.0,67,0.00,,,0.00,VWS V14.01,2013-08-26 02:58:00,
2013-08-25 22:59:00,78.5,66.6,29.96,SSW,196,0.0,11.0,67,0.00,,,0.00,VWS V14.01,2013-08-26 02:59:00,
2013-08-25 23:00:00,78.5,66.6,29.96,South,188,7.0,11.0,67,0.00,,,0.00,VWS V14.01,2013-08-26 03:00:00,
2013-08-25 23:01:00,78.5,66.6,29.96,South,184,7.0,11.0,67,0.00,,,0.00,VWS V14.01,2013-08-26 03:01:00,
2013-08-25 23:02:00,78.5,66.6,29.96,SW,227,5.0,11.0,67,0.00,,,0.00,VWS V14.01,2013-08-26 03:02:00,
2013-08-25 23:03:00,78.5,66.6,29.96,SSE,165,0.0,11.0,67,0.00,,,0.00,VWS V14.01,2013-08-26 03:03:00,
2013-08-25 23:04:00,78.5,66.6,29.96,SSW,211,4.0,11.0,67,0.00,,,0.00,VWS V14.01,2013-08-26 03:04:00,
2013-08-25 23:05:00,78.5,67.1,29.96,SSW,213,0.0,11.0,68,0.00,,,0.00,VWS V14.01,2013-08-26 03:05:00,
2013-08-25 23:06:00,78.5,67.1,29.96,SSW,213,0.0,11.0,68,0.00,,,0.00,VWS V14.01,2013-08-26 03:06:00,
2013-08-25 23:07:00,78.5,66.6,29.96,SW,223,0.0,11.0,67,0.00,,,0.00,VWS V14.01,2013-08-26 03:07:00,
2013-08-25 23:08:00,78.5,67.1,29.96,SSW,192,10.0,11.0,68,0.00,,,0.00,VWS V14.01,2013-08-26 03:08:00,
2013-08-25 23:09:00,78.4,66.6,29.96,South,171,8.0,11.0,67,0.00,,,0.00,VWS V14.01,2013-08-26 03:09:00,
2013-08-25 23:10:00,78.4,67.0,29.96,SSW,194,0.0,11.0,68,0.00,,,0.00,VWS V14.01,2013-08-26 03:10:00,
2013-08-25 23:11:00,78.4,67.0,29.96,SSW,194,0.0,11.0,68,0.00,,,0.00,VWS V14.01,2013-08-26 03:11:00,
2013-08-25 23:12:00,78.4,67.0,29.96,SSW,200,0.0,11.0,68,0.00,,,0.00,VWS V14.01,2013-08-26 03:12:00,
2013-08-25 23:13:00,78.4,67.0,29.96,SW,221,10.0,11.0,68,0.00,,,0.00,VWS V14.01,2013-08-26 03:13:00,
2013-08-25 23:14:00,78.4,67.0,29.96,WSW,241,6.0,11.0,68,0.00,,,0.00,VWS V14.01,2013-08-26 03:14:00,
2013-08-25 23:15:00,78.4,67.0,29.96,SSW,205,0.0,11.0,68,0.00,,,0.00,VWS V14.01,2013-08-26 03:15:00,
2013-08-25 23:16:00,78.4,67.0,29.96,SSW,205,0.0,11.0,68,0.00,,,0.00,VWS V14.01,2013-08-26 03:16:00,
2013-08-25 23:17:00,78.4,67.0,29.96,SW,232,0.0,11.0,68,0.00,,,0.00,VWS V14.01,2013-08-26 03:17:00,
2013-08-25 23:18:00,78.4,67.0,29.96,SW,225,11.0,11.0,68,0.00,,,0.00,VWS V14.01,2013-08-26 03:18:00,
2013-08-25 23:19:00,78.4,67.0,29.96,SW,232,5.0,11.0,68,0.00,,,0.00,VWS V14.01,2013-08-26 03:19:00,
2013-08-25 23:20:00,78.4,67.4,29.96,SSW,196,6.0,11.0,69,0.00,,,0.00,VWS V14.01,2013-08-26 03:20:00,
2013-08-25 23:21:00,78.4,67.4,29.96,SSW,196,6.0,11.0,69,0.00,,,0.00,VWS V14.01,2013-08-26 03:21:00,
2013-08-25 23:22:00,78.3,67.7,29.96,SW,217,6.0,11.0,70,0.00,,,0.00,VWS V14.01,2013-08-26 03:22:00,
2013-08-25 23:23:00,78.3,68.1,29.96,South,183,0.0,11.0,71,0.00,,,0.00,VWS V14.01,2013-08-26 03:23:00,
2013-08-25 23:24:00,78.2,68.4,29.96,SW,222,0.0,11.0,72,0.00,,,0.00,VWS V14.01,2013-08-26 03:24:00,
2013-08-25 23:25:00,78.0,68.7,29.96,SW,223,0.0,11.0,73,0.00,,,0.00,VWS V14.01,2013-08-26 03:25:00,
2013-08-25 23:26:00,78.0,68.7,29.96,SW,223,0.0,11.0,73,0.00,,,0.00,VWS V14.01,2013-08-26 03:26:00,
2013-08-25 23:27:00,77.8,68.9,29.96,SW,220,0.0,11.0,74,0.00,,,0.00,VWS V14.01,2013-08-26 03:27:00,
2013-08-25 23:28:00,77.7,68.8,29.97,SSW,207,0.0,11.0,74,0.00,,,0.00,VWS V14.01,2013-08-26 03:28:00,
2013-08-25 23:29:00,77.5,69.0,29.96,SSW,208,0.0,11.0,75,0.00,,,0.00,VWS V14.01,2013-08-26 03:29:00,
2013-08-25 23:30:00,77.2,68.3,29.96,SSW,205,0.0,11.0,74,0.00,,,0.00,VWS V14.01,2013-08-26 03:30:00,
2013-08-25 23:31:00,77.2,68.3,29.96,SSW,205,0.0,11.0,74,0.00,,,0.00,VWS V14.01,2013-08-26 03:31:00,
2013-08-25 23:32:00,77.0,68.5,29.96,SSW,198,0.0,11.0,75,0.00,,,0.00,VWS V14.01,2013-08-26 03:32:00,
2013-08-25 23:33:00,76.9,68.4,29.96,SW,214,0.0,11.0,75,0.00,,,0.00,VWS V14.01,2013-08-26 03:33:00,
2013-08-25 23:34:00,76.7,68.2,29.96,SSW,202,0.0,11.0,75,0.00,,,0.00,VWS V14.01,2013-08-26 03:34:00,
2013-08-25 23:35:00,76.4,68.3,29.96,SSW,200,0.0,11.0,76,0.00,,,0.00,VWS V14.01,2013-08-26 03:35:00,
2013-08-25 23:36:00,76.4,68.3,29.96,SSW,200,0.0,11.0,76,0.00,,,0.00,VWS V14.01,2013-08-26 03:36:00,
2013-08-25 23:37:00,76.3,68.2,29.96,SW,217,0.0,11.0,76,0.00,,,0.00,VWS V14.01,2013-08-26 03:37:00,
2013-08-25 23:38:00,76.2,68.5,29.96,SSW,207,0.0,11.0,77,0.00,,,0.00,VWS V14.01,2013-08-26 03:38:00,
2013-08-25 23:39:00,76.1,68.4,29.96,SW,220,0.0,11.0,77,0.00,,,0.00,VWS V14.01,2013-08-26 03:39:00,
2013-08-25 23:40:00,76.0,68.3,29.96,WSW,254,0.0,11.0,77,0.00,,,0.00,VWS V14.01,2013-08-26 03:40:00,
2013-08-25 23:41:00,76.0,68.3,29.96,SSW,196,0.0,11.0,77,0.00,,,0.00,VWS V14.01,2013-08-26 03:41:00,
2013-08-25 23:42:00,75.9,68.6,29.96,SW,216,0.0,11.0,78,0.00,,,0.00,VWS V14.01,2013-08-26 03:42:00,
2013-08-25 23:43:00,75.8,68.1,29.96,South,190,7.0,11.0,77,0.00,,,0.00,VWS V14.01,2013-08-26 03:43:00,
2013-08-25 23:44:00,75.8,68.1,29.96,South,184,4.0,11.0,77,0.00,,,0.00,VWS V14.01,2013-08-26 03:44:00,
2013-08-25 23:45:00,75.7,68.4,29.96,SSW,198,5.0,11.0,78,0.00,,,0.00,VWS V14.01,2013-08-26 03:45:00,
2013-08-25 23:46:00,75.7,68.4,29.95,SSW,212,6.0,11.0,78,0.00,,,0.00,VWS V14.01,2013-08-26 03:46:00,
2013-08-25 23:47:00,75.6,68.3,29.96,SW,217,0.0,11.0,78,0.00,,,0.00,VWS V14.01,2013-08-26 03:47:00,
2013-08-25 23:48:00,75.5,68.2,29.95,SSW,211,0.0,11.0,78,0.00,,,0.00,VWS V14.01,2013-08-26 03:48:00,
2013-08-25 23:49:00,75.5,68.2,29.95,SSW,208,0.0,11.0,78,0.00,,,0.00,VWS V14.01,2013-08-26 03:49:00,
2013-08-25 23:50:00,75.5,68.2,29.95,SW,215,0.0,11.0,78,0.00,,,0.00,VWS V14.01,2013-08-26 03:50:00,
2013-08-25 23:51:00,75.5,68.2,29.95,SW,223,3.0,11.0,78,0.00,,,0.00,VWS V14.01,2013-08-26 03:51:00,
2013-08-25 23:52:00,75.4,68.1,29.95,WSW,244,4.0,11.0,78,0.00,,,0.00,VWS V14.01,2013-08-26 03:52:00,
2013-08-25 23:53:00,75.4,68.1,29.95,SSW,207,0.0,11.0,78,0.00,,,0.00,VWS V14.01,2013-08-26 03:53:00,
2013-08-25 23:54:00,75.4,68.1,29.95,SSW,208,0.0,11.0,78,0.00,,,0.00,VWS V14.01,2013-08-26 03:54:00,
2013-08-25 23:55:00,75.5,68.2,29.95,SW,217,3.0,11.0,78,0.00,,,0.00,VWS V14.01,2013-08-26 03:55:00,
2013-08-25 23:56:00,75.4,68.1,29.95,SSW,207,5.0,11.0,78,0.00,,,0.00,VWS V14.01,2013-08-26 03:56:00,
2013-08-25 23:57:00,75.4,68.1,29.95,SW,228,0.0,11.0,78,0.00,,,0.00,VWS V14.01,2013-08-26 03:57:00,
2013-08-25 23:58:00,75.5,68.2,29.95,SW,236,7.0,11.0,78,0.00,,,0.00,VWS V14.01,2013-08-26 03:58:00,
2013-08-25 23:59:00,75.5,68.2,29.95,SW,216,5.0,11.0,78,0.00,,,0.00,VWS V14.01,2013-08-26 03:59:00,